[[{"header":{"parameterUnit":"m.s-1","parameterCategory":1,"la1":30.6,"la2":29.2853,"lo1":-89.7004,"lo2":-87.6739,"dy":0.0162,"dx":0.0183,"nx":112,"ny":82,"refTime":"2026-02-18T12:00:00:Z","depth":0,"parameterNumber":2,"parameterNumberName":"U-component_of_WINDS"},"data":[0.0,0.0,0.0,0.0,0.0,0.0,0.0,0.0,0.0,0.0,0.0,0.0,0.0,0.0,0.0,0.0,0.0,0.0,0.0,0.0,0.0,0.0,0.0,0.0,0.0,0.0,0.0,0.0,0.0,0.0,0.0,0.0,0.0,0.0,0.0,0.0,0.0,0.0,0.0,0.0,0.0,0.0,0.0,0.0,0.0,0.0,0.0,0.0,0.0,0.0,0.0,0.0,0.0,0.0,0.0,0.0,0.0,0.0,0.0,0.0,0.0,0.0,0.0,0.0,0.0,0.0,0.0,0.0,0.0,0.0,0.0,0.0,0.0,0.0,0.0,0.0,0.0,0.0,0.0,0.0,0.0,0.0,0.0,0.0,0.0,0.0,0.0,0.0,0.0,0.0,-0.0,-0.0,-0.0,-0.0,-0.0,-0.0,-0.1761,-0.604,0.0,0.0,0.0,0.0,0.0,0.0,0.0,0.0,0.0,0.0,0.0,0.0,0.0,0.0,0.0,0.0,0.0,0.0,0.0,0.0,0.0,0.0,0.0,0.0,0.0,0.0,0.0,0.0,0.0,0.0,0.0,0.0,0.0,0.0,0.0,0.0,0.0,0.0,0.0,0.0,0.0,0.0,0.0,0.0,0.0,0.0,0.0,0.0,0.0,0.0,0.0,0.0,0.0,0.0,0.0,0.0,0.0,0.0,0.0,0.0,0.0,0.0,0.0,0.0,0.0,0.0,0.0,0.0,0.0,0.0,0.0,0.0,0.0,0.0,0.0,0.0,0.0,0.0,0.0,0.0,0.0,0.0,0.0,0.0,0.0,0.0,0.0,0.0,0.0,0.0,0.0,0.0,0.0,0.0,0.0,0.0,0.0,0.0,0.0,0.0,0.0,0.0,0.0,0.0,-0.0,-0.0,-0.0,-0.0,-0.0,-0.0,-0.1832,-0.6053,0.0,0.0,0.0,0.0,0.0,0.0,0.0,0.0,0.0,0.0,0.0,0.0,0.0,0.0,0.0,0.0,0.0,0.0,0.0,0.0,0.0,0.0,0.0,0.0,0.0,0.0,0.0,0.0,0.0,0.0,0.0,0.0,0.0,0.0,0.0,0.0,0.0,0.0,0.0,0.0,0.0,0.0,0.0,0.0,0.0,0.0,0.0,0.0,0.0,0.0,0.0,0.0,0.0,0.0,0.0,0.0,0.0,0.0,0.0,0.0,0.0,0.0,0.0,0.0,0.0,0.0,0.0,0.0,0.0,0.0,0.0,0.0,0.0,0.0,0.0,0.0,0.0,0.0,0.0,0.0,0.0,0.0,0.0,0.0,0.0,0.0,0.0,0.0,0.0,0.0,0.0,0.0,0.0,0.0,0.0,0.0,0.0,0.0,0.0,0.0,0.0,0.0,0.0,-0.0,-0.0,-0.0,-0.0,-0.0,-0.0,-0.0,-0.1275,-0.4415,-0.4144,0.0,0.0,0.0,0.0,0.0,0.0,0.0,0.0,0.0,0.0,0.0,0.0,0.0,0.0,0.0,0.0,0.0,0.0,0.0,0.0,0.0,0.0,0.0,0.0,0.0,0.0,0.0,0.0,0.0,0.0,0.0,0.0,0.0,0.0,0.0,0.0,0.0,0.0,0.0,0.0,0.0,0.0,0.0,0.0,0.0,0.0,0.0,0.0,0.0,0.0,0.0,0.0,0.0,0.0,0.0,0.0,0.0,0.0,0.0,0.0,0.0,0.0,0.0,0.0,0.0,0.0,0.0,0.0,0.0,0.0,0.0,0.0,0.0,0.0,0.0,0.0,0.0,0.0,0.0,0.0,0.0,0.0,0.0,0.0,0.0,0.0,0.0,0.0,0.0,0.0,0.0,0.0,0.0,0.0,0.0,0.0,0.0,0.0,0.0,0.0,0.0,0.0,-0.2123,-0.1869,-0.1118,-0.1041,-0.1051,-0.1035,-0.0771,-0.1658,-0.3992,-0.4826,0.0,0.0,0.0,0.0,0.0,0.0,0.0,0.0,0.0,0.0,0.0,0.0,0.0,0.0,0.0,0.0,0.0,0.0,0.0,0.0,0.0,0.0,0.0,0.0,0.0,0.0,0.0,0.0,0.0,0.0,0.0,0.0,0.0,0.0,0.0,0.0,0.0,0.0,0.0,0.0,0.0,0.0,0.0,0.0,0.0,0.0,0.0,0.0,0.0,0.0,0.0,0.0,0.0,0.0,0.0,0.0,0.0,0.0,0.0,0.0,0.0,0.0,0.0,0.0,0.0,0.0,0.0,0.0,0.0,0.0,0.0,0.0,0.0,0.0,0.0,0.0,0.0,0.0,0.0,0.0,0.0,0.0,0.0,0.0,0.0,0.0,0.0,0.0,0.0,0.0,0.0,0.0,0.0,0.0,0.0,0.0,0.0,0.0,0.0,0.0,0.0,0.0,-0.8259,-0.7183,-0.4438,-0.4177,-0.4193,-0.424,-0.3186,-0.3847,-0.7092,-0.5755,0.0,0.0,0.0,0.0,0.0,0.0,0.0,0.0,0.0,0.0,0.0,0.0,0.0,0.0,0.0,0.0,0.0,0.0,0.0,0.0,0.0,0.0,0.0,0.0,0.0,0.0,0.0,0.0,0.0,0.0,0.0,0.0,0.0,0.0,0.0,0.0,0.0,0.0,0.0,0.0,0.0,0.0,0.0,0.0,0.0,0.0,0.0,0.0,0.0,0.0,0.0,0.0,0.0,0.0,0.0,0.0,0.0,0.0,0.0,0.0,0.0,0.0,0.0,0.0,0.0,0.0,0.0,0.0,0.0,0.0,0.0,0.0,0.0,0.0,0.0,0.0,0.0,0.0,0.0,0.0,0.0,0.0,0.0,0.0,0.0,0.0,0.0,0.0,0.0,0.0,0.0,0.0,0.0,0.0,0.0,0.0,0.0,0.0,0.0,0.0,0.0,0.0,-0.8863,-0.8445,0.0,-0.7285,-0.7296,-0.7247,-0.6685,-0.6564,-0.7073,0.0,0.0,0.0,0.0,0.0,0.0,0.0,0.0,0.0,0.0,0.0,0.0,0.0,0.0,0.0,0.0,0.0,0.0,0.0,0.0,0.0,0.0,0.0,0.0,0.0,0.0,0.0,0.0,0.0,0.0,0.0,0.0,0.0,0.0,0.0,0.0,0.0,0.0,0.0,0.0,0.0,0.0,0.0,0.0,0.0,0.0,0.0,0.0,0.0,0.0,0.0,0.0,0.0,0.0,0.0,0.0,0.0,0.0,0.0,0.0,0.0,0.0,0.0,0.0,0.0,0.0,0.0,0.0,0.0,0.0,0.0,0.0,0.0,0.0,0.0,0.0,0.0,0.0,0.0,0.0,0.0,0.0,0.0,0.0,0.0,0.0,0.0,0.0,0.0,0.0,0.0,0.0,0.0,0.0,0.0,0.0,0.0,0.0,0.0,0.0,0.0,0.0,-0.8122,-0.8698,-0.8859,0.0,-0.8943,-0.8963,-0.901,-0.8562,-0.7879,-0.6995,0.0,0.0,0.0,0.0,0.0,0.0,0.0,0.0,0.0,0.0,0.0,0.0,0.0,0.0,0.0,0.0,0.0,0.0,0.0,0.0,0.0,0.0,0.0,0.0,0.0,0.0,0.0,0.0,0.0,0.0,0.0,0.0,0.0,0.0,0.0,0.0,0.0,0.0,0.0,0.0,0.0,0.0,0.0,0.0,0.0,0.0,0.0,0.0,0.0,0.0,0.0,0.0,0.0,0.0,0.0,0.0,0.0,0.0,0.0,0.0,0.0,0.0,0.0,0.0,0.0,0.0,0.0,0.0,0.0,0.0,0.0,0.0,0.0,0.0,0.0,0.0,0.0,0.0,0.0,0.0,0.0,0.0,0.0,0.0,0.0,0.0,0.0,0.0,0.0,0.0,0.0,0.0,0.0,0.0,0.0,0.0,0.0,0.0,0.0,0.0,0.0,0.0,-0.7425,-0.8272,-0.8797,-0.911,-0.9157,-0.9218,-0.9367,-0.856,-0.7794,0.0,0.0,0.0,0.0,0.0,0.0,0.0,0.0,0.0,0.0,0.0,0.0,0.0,0.0,0.0,0.0,0.0,0.0,0.0,0.0,0.0,0.0,0.0,0.0,0.0,0.0,0.0,0.0,0.0,0.0,0.0,0.0,0.0,0.0,0.0,0.0,0.0,0.0,0.0,0.0,0.0,0.0,0.0,0.0,0.0,0.0,0.0,0.0,0.0,0.0,0.0,0.0,0.0,0.0,0.0,0.0,0.0,0.0,0.0,0.0,0.0,0.0,0.0,0.0,0.0,0.0,0.0,0.0,0.0,0.0,0.0,0.0,0.0,0.0,0.0,0.0,0.0,0.0,0.0,0.0,0.0,0.0,0.0,0.0,0.0,0.0,0.0,0.0,0.0,0.0,0.0,0.0,0.0,0.0,0.0,0.0,0.0,0.0,0.0,0.0,0.0,0.0,0.0,-0.7738,-0.8484,-0.894,-0.9279,-0.9313,-0.9334,-0.9374,-0.8845,-0.8119,-0.7204,0.0,0.0,0.0,0.0,0.0,0.0,0.0,0.0,0.0,0.0,0.0,0.0,0.0,0.0,0.0,0.0,0.0,0.0,0.0,0.0,0.0,0.0,0.0,0.0,0.0,0.0,0.0,0.0,0.0,0.0,0.0,0.0,0.0,0.0,0.0,0.0,0.0,0.0,0.0,0.0,0.0,0.0,0.0,0.0,0.0,0.0,0.0,0.0,0.0,0.0,0.0,0.0,0.0,0.0,0.0,0.0,0.0,0.0,0.0,0.0,0.0,0.0,0.0,0.0,0.0,0.0,0.0,0.0,0.0,0.0,0.0,0.0,0.0,0.0,0.0,0.0,0.0,0.0,0.0,0.0,0.0,0.0,0.0,0.0,0.0,0.0,0.0,0.0,0.0,0.0,0.0,0.0,0.0,0.0,0.0,0.0,0.0,0.0,0.0,0.0,0.0,0.0,-0.7674,-0.8343,-0.8988,-0.934,-0.9381,-0.9408,-0.9469,-0.9062,-0.8377,-0.7387,0.0,0.0,0.0,0.0,0.0,0.0,0.0,0.0,0.0,0.0,0.0,0.0,0.0,0.0,0.0,0.0,0.0,0.0,0.0,0.0,0.0,0.0,0.0,0.0,0.0,0.0,0.0,0.0,0.0,0.0,0.0,0.0,0.0,0.0,0.0,0.0,0.0,0.0,0.0,0.0,0.0,0.0,0.0,0.0,0.0,0.0,0.0,0.0,0.0,0.0,0.0,0.0,0.0,0.0,0.0,0.0,0.0,0.0,0.0,0.0,0.0,0.0,0.0,0.0,0.0,0.0,0.0,0.0,0.0,0.0,0.0,0.0,0.0,0.0,0.0,0.0,0.0,0.0,0.0,0.0,0.0,0.0,0.0,0.0,0.0,0.0,0.0,0.0,0.0,0.0,0.0,0.0,0.0,0.0,0.0,0.0,0.0,0.0,0.0,0.0,0.0,0.0,-0.7299,-0.818,-0.8913,-0.9334,-0.9381,-0.9442,-0.9598,-0.9198,-0.856,-0.7861,0.0,0.0,0.0,0.0,0.0,0.0,0.0,0.0,0.0,0.0,0.0,0.0,0.0,0.0,0.0,0.0,0.0,0.0,0.0,0.0,0.0,0.0,0.0,0.0,0.0,0.0,0.0,0.0,0.0,0.0,0.0,0.0,0.0,0.0,0.0,0.0,0.0,0.0,0.0,0.0,0.0,0.0,0.0,0.0,0.0,0.0,0.0,0.0,0.0,0.0,0.0,0.0,0.0,0.0,0.0,0.0,0.0,0.0,0.0,0.0,1.1198,0.0,0.0,0.0,0.0,0.0,0.0,0.0,0.0,0.0,0.0,0.0,0.0,0.0,0.0,0.0,0.0,0.0,0.0,0.0,0.0,0.0,0.0,0.0,0.0,0.0,0.0,0.0,0.0,0.0,0.0,0.0,0.0,0.0,0.0,0.0,0.0,0.0,0.0,0.0,0.0,0.0,-0.7312,-0.8357,-0.9144,-0.9361,-0.9381,-0.9442,-0.9598,-0.9198,-0.892,-0.906,-0.8147,0.0,0.0,0.0,0.0,0.0,0.0,0.0,0.0,0.0,0.0,0.0,0.0,0.0,0.0,0.0,0.0,0.0,0.0,0.0,0.0,0.0,0.0,0.0,0.0,0.0,0.0,0.0,0.0,0.0,0.0,0.0,0.0,0.0,0.0,0.0,0.0,0.0,0.0,0.0,0.0,0.0,0.0,0.0,0.0,0.0,0.0,0.0,0.0,0.0,0.0,0.0,0.0,0.0,0.0,0.0,0.0,0.0,0.0,0.0,0.0,1.0565,0.0,0.0,0.0,0.0,0.0,0.0,0.0,0.0,0.0,0.0,0.0,0.0,0.0,0.0,0.0,0.0,0.0,0.0,0.0,0.0,0.0,0.0,0.0,0.0,0.0,0.0,0.0,0.0,0.0,0.0,0.0,0.0,0.0,0.0,0.0,0.0,0.0,0.0,0.0,0.0,-0.7414,-0.9013,-1.0212,-1.0266,-1.0964,-1.146,-1.1438,-1.1023,-1.0835,-1.1051,-0.9953,0.0,0.0,0.0,0.0,0.0,0.0,0.0,0.0,0.0,0.0,0.0,0.0,0.0,0.0,0.0,0.0,0.0,0.0,0.0,0.0,0.0,0.0,0.0,0.0,0.0,0.0,0.0,0.0,0.0,0.0,0.0,0.0,0.0,0.0,0.0,0.0,0.0,0.0,0.0,0.0,0.0,0.0,0.0,0.0,0.0,0.0,0.0,0.0,0.0,0.0,0.0,0.0,0.0,1.1975,1.2179,1.2403,1.2403,1.1935,1.1126,1.0451,0.9578,0.8728,0.0,0.0,0.0,0.0,0.0,0.0,0.0,0.0,0.0,0.0,0.0,0.0,0.0,0.0,0.0,0.0,0.0,0.0,0.0,0.0,0.0,0.0,0.0,0.0,0.0,-0.8901,-0.8266,0.0,0.0,0.0,0.0,0.0,0.0,0.0,0.0,0.0,0.0,0.0,0.0,-0.8166,-1.0108,-1.1489,-1.1637,-1.2764,-1.3447,-1.3487,-1.3116,-1.2985,-1.3038,-1.1886,-1.1012,0.0,0.0,0.0,0.0,0.0,0.0,0.0,0.0,0.0,0.0,0.0,0.0,0.0,0.0,0.0,0.0,0.0,0.0,0.0,0.0,0.0,0.0,0.0,0.0,0.0,0.0,0.0,0.0,0.0,0.0,0.0,0.0,1.7812,1.7313,0.0,0.0,0.0,0.0,0.0,0.0,0.0,0.0,0.0,0.0,0.0,0.0,0.0,1.2336,1.2516,1.1953,1.1825,1.2028,1.1379,1.1038,1.0955,1.0955,1.0913,1.0651,0.7168,0.0,0.9313,0.9092,0.0,0.0,0.0,0.0,0.0,0.0,0.0,0.0,0.0,0.0,0.0,0.0,0.0,0.0,0.0,0.0,0.0,0.0,0.0,0.0,0.0,0.0,-0.9266,-0.8907,-0.8996,-0.9368,0.0,-0.8604,-0.6909,-0.6703,-0.6162,0.0,0.0,0.0,0.0,0.0,0.0,0.0,-1.0817,-1.2131,-1.3058,-1.298,-1.3197,-1.3386,-1.3477,-1.3366,-1.3466,-1.4072,-1.3625,-1.3374,-1.3561,-1.2713,0.0,0.0,0.0,0.0,0.0,0.0,0.0,0.0,0.0,0.0,0.0,0.0,0.0,0.0,0.0,0.0,0.0,0.0,0.0,0.0,0.0,0.0,0.0,0.0,0.0,0.0,0.0,0.0,0.0,1.7412,1.8179,1.8596,1.7921,1.6875,0.0,0.0,0.0,0.0,0.0,0.0,0.0,0.0,0.0,1.1458,1.1842,1.186,1.1495,1.1453,1.1425,1.1582,1.1348,1.1292,1.1438,0.906,0.9102,1.1129,0.947,0.8159,0.7143,0.7022,0.7359,0.796,0.0,0.0,0.0,0.0,-0.3914,-0.4485,-0.6813,-0.8458,0.0,-0.813,0.0,0.0,0.0,0.0,0.0,0.0,0.0,0.0,0.0,0.0,0.0,-1.2454,-1.2613,-1.2785,-1.3164,-1.2262,-1.0843,0.0,-0.817,-0.7319,-0.5874,0.0,0.0,0.0,0.0,-1.0721,-1.1754,-1.3416,-1.4449,-1.4449,-1.5209,-1.5791,-1.5803,-1.5565,-1.564,-1.5934,-1.5256,-1.4922,-1.5084,-1.4055,-1.3026,0.0,0.0,0.0,0.0,0.0,0.0,0.0,0.0,0.0,0.0,0.0,0.0,0.0,0.0,0.0,0.0,0.0,0.0,0.0,0.0,0.0,0.0,0.0,0.0,0.0,0.0,0.0,0.0,1.7481,1.8345,1.8762,1.8225,1.6979,0.0,0.0,0.0,0.0,0.0,0.0,1.1891,1.2081,1.1893,1.1393,1.1615,1.1534,1.0893,1.1133,1.0806,0.9888,1.0008,1.0895,1.2119,0.901,0.9025,1.1543,1.1543,0.7456,0.1044,0.3143,0.4986,0.6332,0.3472,0.0112,-0.345,-0.7891,-1.0341,-1.1073,-0.8195,-0.8557,-1.0341,-0.994,0.0,-0.9069,-0.8826,0.0,0.0,0.0,0.0,-1.17,-1.2311,-1.3719,-1.5095,-1.5237,-1.5463,-1.5628,-1.565,-1.5129,-1.3872,0.0,-1.0575,-0.9634,-0.7803,0.0,0.0,0.0,0.0,-1.2455,-1.3213,-1.4859,-1.5956,-1.5956,-1.6935,-1.7582,-1.7582,-1.7382,-1.7194,-1.7048,-1.6486,-1.6099,-1.5952,-1.511,-1.4229,-1.3413,0.0,0.0,0.0,0.0,0.0,0.0,0.0,0.0,0.0,0.0,0.0,0.0,0.0,0.0,0.0,0.0,0.0,0.0,0.0,0.0,0.0,0.0,0.0,0.0,0.0,0.0,0.0,0.0,0.0,1.5869,1.7346,0.0,0.0,0.0,0.0,1.1763,1.2247,1.2307,1.1646,1.215,1.1919,1.0836,1.1133,1.1378,1.157,1.1878,1.0022,0.6121,0.6128,0.8356,1.246,1.2298,1.1992,1.1541,1.1541,0.2802,-1.0938,-0.3016,0.0275,-0.0266,-0.7801,-1.0762,-1.0616,-0.723,-0.8301,-1.1121,-1.089,-1.0686,-1.0728,-1.0699,-1.126,-1.1944,-1.1819,-1.2663,0.0,0.0,-1.4014,-1.4498,-1.4748,-1.5104,-1.5515,-1.5615,-1.5676,-1.6066,-1.7565,-1.6189,-1.4386,0.0,-1.3049,-1.2531,-1.2109,0.0,-1.1971,-1.3201,-1.3938,-1.4908,-1.6281,-1.7091,-1.7477,-1.7477,-1.7582,-1.7582,-1.7582,-1.7569,-1.7328,-1.6767,-1.6954,-1.6834,-1.6273,-1.6192,-1.5752,-1.487,-1.3681,0.0,0.0,0.0,0.0,0.0,0.0,0.0,0.0,0.0,0.0,0.0,0.0,0.0,0.0,0.0,0.0,0.0,0.0,0.0,0.0,0.0,0.0,0.0,0.0,0.0,0.0,0.0,0.0,1.6549,1.7453,0.0,1.3535,1.3407,1.2984,1.1893,1.22,1.2138,1.122,1.1502,1.1684,1.165,0.9122,0.7853,0.7898,1.0809,1.1541,1.0003,0.4673,0.2967,0.4241,-0.1096,-0.376,-0.3764,-0.1095,-0.312,-0.8557,-0.8159,-0.6283,-0.3949,-0.6764,-0.939,-1.1459,-0.9933,-1.0283,-1.1389,-1.1274,-1.1145,-1.1247,-1.2219,-1.3436,-1.4348,-1.4114,-1.43,-1.4582,-1.4666,-1.5737,-1.6908,-1.712,-1.8096,-1.916,-1.912,-1.9145,-1.9222,-1.9687,-1.9085,-1.8369,-1.7737,-1.5993,-1.423,-1.3136,-1.4084,-1.4758,-1.4321,-1.5236,-1.613,-1.6941,-1.7341,-1.7582,-1.7582,-1.7582,-1.7582,-1.7582,-1.7408,-1.7208,-1.7007,-1.6914,-1.6767,-1.6567,-1.638,-1.5952,-1.5257,-1.4282,-1.2759,0.0,0.0,0.0,0.0,0.0,0.0,0.0,0.0,0.0,0.0,0.0,0.0,0.0,0.0,0.0,0.0,0.0,0.0,0.0,0.0,0.0,0.0,0.0,0.0,0.0,0.0,1.6486,1.58,1.6641,1.6086,1.3129,1.3286,1.2952,1.1562,1.1806,1.1819,1.1286,1.0146,1.0173,1.1921,0.9407,0.6656,0.3865,0.6725,0.6911,0.407,-0.1568,-0.3452,-0.2352,-0.785,-1.1185,-1.2311,-0.9578,-0.8457,-0.8604,-1.1368,-1.0672,-0.798,-0.7847,-0.9501,-1.1747,-1.1523,-1.1832,-1.2611,-1.3146,-1.338,-1.3408,-1.4387,-1.5734,-1.6921,-1.6728,-1.6999,-1.7368,-1.7368,-1.8368,-1.9437,-1.9385,-2.0335,-2.1229,-2.1136,-2.1109,-2.1056,-2.0869,-2.0748,-2.0561,-2.0174,-1.8365,-1.6453,-1.5282,-1.6172,-1.679,-1.5693,-1.6338,-1.7074,-1.7275,-1.7462,-1.7582,-1.7582,-1.7582,-1.7582,-1.7582,-1.7315,-1.7154,-1.7154,-1.678,-1.6567,-1.6567,-1.6273,-1.5899,-1.5404,-1.4242,-1.2906,-1.1423,0.0,0.0,0.0,0.0,0.0,0.0,0.0,0.0,0.0,0.0,0.0,0.0,0.0,0.0,0.0,0.0,0.0,0.0,0.0,0.0,0.0,0.0,0.0,1.3158,1.3847,1.3975,1.3429,1.4923,1.4957,1.2274,1.2696,1.2559,1.0809,1.1201,1.1462,1.1643,0.8053,0.7548,1.117,1.1772,0.8181,0.0157,-0.0314,-0.4397,-1.2481,-1.2481,-1.0386,-0.657,-0.657,-0.8622,-1.2447,-1.2447,-1.2427,-1.2549,-1.2549,-1.2454,-1.2422,-1.2148,-1.2038,-1.2017,-1.1839,-1.2896,-1.4725,-1.6554,-1.7106,-1.7062,-1.7062,-1.8134,-1.9421,-1.9421,-2.063,-2.1977,-2.1977,-2.1977,-2.1911,-2.163,-2.1563,-2.1496,-2.1189,-2.1109,-2.1109,-2.1082,-2.0855,-2.0655,-2.0655,-1.9973,-1.9199,-1.8624,-1.8263,-1.7956,-1.7649,-1.7595,0.0,-1.7582,-1.7582,-1.7582,-1.7582,-1.7582,-1.7582,-1.7582,-1.7418,-1.7244,-1.7244,-1.6693,-1.637,-1.637,-1.5992,-1.5685,-1.5497,-1.3845,-1.279,-1.2493,0.0,0.0,0.0,0.0,0.0,0.0,0.0,0.0,0.0,0.0,0.0,0.0,0.0,0.0,0.0,0.0,0.0,0.0,0.0,0.0,0.0,0.0,1.1747,1.2812,1.4173,1.4629,1.3439,1.4406,1.4457,1.2294,1.2163,1.2136,1.1563,0.9035,0.8687,1.1511,1.1041,0.8292,0.3281,0.3292,0.2356,-0.0,-0.5971,-1.0241,-1.2481,-1.2467,-1.1972,-1.0843,-1.082,-1.1448,-1.2562,-1.2542,-1.2522,-1.2515,-1.2515,-1.3399,-1.4541,-1.4469,-1.4308,-1.4343,-1.5731,-1.6481,-1.6901,-1.7168,-1.8047,-1.9254,-1.9254,-2.0327,-2.1616,-2.1616,-2.1595,-2.171,-2.1924,-2.183,-2.1697,-2.183,-2.1871,-2.1737,-2.1229,-2.1109,-2.0989,-2.0561,-2.0414,-2.0361,-2.0361,-1.9987,-1.9559,-1.9185,-1.8704,-1.8263,-1.7969,-1.7729,0.0,-1.7582,-1.7582,-1.7582,-1.7582,-1.7582,-1.7582,-1.7582,-1.8231,-1.8644,-1.8557,-1.8047,-1.7698,-1.7601,-1.6457,-1.6047,-1.6541,-1.6437,-1.6158,0.0,0.0,0.0,0.0,0.0,0.0,0.0,0.0,0.0,0.0,0.0,0.0,0.0,0.0,0.0,0.0,0.0,0.0,0.0,0.0,0.0,0.0,1.1431,1.1478,1.2012,1.3139,1.3535,1.2788,1.3313,1.3349,1.2319,1.2105,1.1987,1.1782,0.9878,0.8079,0.6848,0.7049,0.5027,0.0157,-0.0,-0.1728,-0.5184,-1.0085,-1.2467,-1.2447,-1.2434,-1.2576,-1.2562,-1.2542,-1.2528,0.0,-1.3202,-1.3617,-1.361,-1.4446,-1.5505,0.0,0.0,0.0,0.0,0.0,-1.9138,-1.9129,-1.9606,-2.0435,-2.1296,-2.1046,-2.1649,-2.2231,-2.2231,-2.2004,-2.1764,-2.1937,-2.1857,-2.175,-2.179,-2.1804,-2.1683,-2.1216,-2.1015,-2.0828,-2.0494,-2.0321,-2.0227,-2.0227,-2.0,0.0,-1.9412,-1.8878,-1.8384,-1.8076,-1.7769,-1.7582,-1.7582,-1.7582,-1.7582,-1.7582,-1.7582,-1.7582,-1.7582,-1.8628,0.0,0.0,0.0,-1.9193,-1.8801,-1.7597,0.0,0.0,0.0,0.0,0.0,0.0,0.0,0.0,-1.4834,-1.5431,0.0,0.0,0.0,0.0,0.0,0.0,0.0,0.0,0.0,0.0,0.0,0.0,0.0,0.0,0.0,0.0,1.139,1.1804,1.1269,1.1362,1.1565,1.183,1.2005,1.204,1.1568,1.2192,1.2251,1.167,1.1299,0.7863,0.0471,0.0,0.0,0.0,0.0,-0.4711,-1.1673,-1.2311,-1.2447,-1.2556,-1.2549,-1.2528,-1.2501,-1.2501,-1.2649,-1.2923,-1.4438,-1.5252,-1.5518,-1.7115,-1.8036,-1.8239,-1.6618,-1.7226,-1.9128,-2.0665,-2.1282,-2.1366,-2.2845,0.0,0.0,-2.2512,-2.2245,-2.2031,-2.1991,-2.1964,-2.1937,-2.1977,-2.1964,-2.1884,-2.1657,-2.1603,-2.1523,-2.1189,-2.0909,-2.0695,-2.0601,-2.0374,-2.0187,-2.0187,-1.9947,-1.9679,-1.9452,-1.8931,-1.8437,-1.8116,-1.7849,-1.7689,-1.7689,-1.7689,-1.7795,-1.7887,0.0,0.0,-1.8149,-1.9111,-1.9867,-2.0025,-2.0752,-2.0769,-1.9971,-1.9457,-1.936,-1.9737,-1.9915,-2.0223,-2.0746,-2.1165,-2.1449,-2.1432,-1.8849,-1.9092,0.0,0.0,0.0,0.0,0.0,0.0,0.0,0.0,0.0,0.0,0.0,0.0,0.0,0.0,0.0,1.0878,1.101,1.1108,1.118,1.1643,1.1844,1.1898,1.2192,1.1119,0.7795,1.0526,1.2467,1.2284,0.6121,0.1728,0.0157,-0.0,0.0,-0.9923,-1.0085,-0.9276,-0.7521,-1.0826,-1.2562,-1.2556,0.0,0.0,-1.2501,-1.2501,-1.3348,-1.4565,-1.4985,-1.5922,-1.7243,-1.7487,-1.878,-2.0637,-2.0385,-2.1668,-2.3459,-2.3482,-2.3379,-2.3287,-2.328,-2.3126,-2.2819,-2.2512,-2.2378,-2.2298,-2.2058,-2.1817,0.0,-2.1924,-2.1817,-2.1683,-2.1857,-2.1897,-2.1764,-2.1243,-2.1069,-2.0828,-2.012,-1.992,-1.988,-1.988,-1.9653,-1.9506,-1.9679,-1.9225,-1.8744,-1.8437,-1.8357,-1.8317,-1.8317,-1.8317,-1.8728,-1.9989,-2.0097,-2.0422,-2.1306,-2.2553,-2.323,-2.2885,-2.3143,-2.2646,-2.1286,-2.2311,-2.2793,-2.2559,-2.3505,-2.3897,-2.3613,-2.3708,-2.3918,-2.4241,-2.1861,-2.1602,0.0,0.0,0.0,0.0,0.0,0.0,0.0,0.0,0.0,0.0,0.0,1.214,1.1296,0.0,1.0872,1.104,1.0982,1.1067,1.1449,1.1643,1.1095,0.9137,1.1041,1.166,0.9584,0.7542,0.6285,0.6285,0.2356,-0.0,-0.0,-0.3925,-0.8181,-1.2324,-1.2467,-1.1485,-0.9392,-1.1442,-1.2542,-1.2528,-1.244,-1.2393,-1.2393,-1.2318,-1.328,-1.5117,-1.5901,-1.7262,-1.9051,-2.0066,-2.115,-2.2325,-2.2601,-2.3387,-2.4382,-2.4102,-2.3901,-2.3728,-2.3434,-2.3126,-2.2942,-2.356,-2.3615,-2.3562,-2.4124,-2.3676,-2.2936,-2.2808,-2.2071,-2.1363,-2.151,-2.155,-2.1727,-2.2174,-2.2213,-2.2219,-2.2572,-2.1993,-2.1256,-2.1085,-2.0254,-1.9586,-1.9586,-2.0012,-1.992,-1.8857,-1.8584,-1.8809,-1.9552,-1.9552,-2.0194,-2.1679,-2.1786,-2.2028,-2.2606,-2.365,-2.4491,-2.5026,-2.473,-2.4197,-2.3377,-2.3877,-2.4183,-2.4183,-2.4986,-2.541,-2.541,-2.584,-2.6152,-2.6367,-2.5413,-2.508,0.0,0.0,0.0,0.0,0.0,0.0,0.0,0.0,1.3374,1.3275,1.3128,1.2531,1.1222,1.1311,1.1456,1.1035,1.1101,1.1348,1.1543,1.1663,1.0498,0.7354,0.8726,1.0085,1.0085,0.3925,-0.0,-0.0,-0.0,-0.0785,-0.2356,-0.8816,-1.2474,-1.2467,-1.2447,-1.242,-1.2542,-1.2542,-1.2528,-1.2501,-1.2359,-1.2436,-1.2885,-1.2721,-1.38,-1.6086,-1.7745,-1.9368,-2.0943,-2.2523,-2.3273,-2.334,-2.3527,-2.4052,-2.4569,-2.4391,-2.4282,-2.42,-2.4358,-2.3928,-2.361,-2.5143,-2.5237,-2.4948,-2.6352,-2.5878,-2.4715,-2.4253,-2.3164,-2.216,-2.2104,-2.209,-2.2327,-2.3807,-2.3841,-2.3991,-2.4875,-2.3935,-2.2587,-2.1891,-2.0982,-2.0178,-1.9945,-2.1074,-2.1383,-1.9707,-1.9458,-1.9943,-2.1122,-2.134,-2.1884,-2.3392,-2.3499,-2.3572,-2.3823,-2.4589,-2.5451,-2.654,-2.6055,-2.5703,-2.5703,-2.5352,-2.5332,-2.5684,-2.5977,-2.6289,-2.6641,-2.7246,-2.7539,-2.7539,-2.7969,-2.7851,2.321,2.0022,1.8309,1.8004,1.767,1.7674,0.0,0.0,1.5426,1.5573,1.3754,1.2039,1.1841,1.1217,1.0733,1.096,1.1174,1.1395,1.1583,1.1663,1.145,1.0999,0.5274,0.1413,0.1413,0.0628,-0.0,-0.0,-0.0,-0.3297,-1.0722,-1.1998,-1.246,-1.2562,-1.2562,-1.2542,-1.2508,-1.2508,-1.2508,-1.2501,-1.2359,-1.3188,-1.481,-1.4629,-1.6496,-1.9753,-2.1483,-2.2487,-2.2625,-2.2913,-2.3073,-2.33,-2.306,-2.408,-2.5884,-2.5996,-2.5908,-2.5933,-2.751,-2.6734,-2.5457,-2.6953,-2.6304,-2.5297,-2.6758,-2.7151,-2.6832,-2.6346,-2.6107,-2.5918,-2.5578,-2.5497,-2.5497,-2.5741,-2.5708,-2.523,-2.3733,-2.3172,-2.2568,-2.0832,-2.1123,-2.1715,-2.1671,-2.2679,-2.3023,-2.1541,-2.2398,-2.3262,-2.3484,-2.3484,-2.4038,-2.5611,-2.572,-2.6135,-2.7075,-2.7226,-2.7415,-2.7519,-2.7773,-2.793,-2.793,-2.7891,-2.7891,-2.793,-2.7617,-2.748,-2.7519,-2.7226,-2.709,-2.709,-2.7539,-2.7891,2.6034,2.2981,2.1274,0.0,2.0296,2.0095,2.0422,1.8074,1.5853,1.5601,1.3761,1.2009,1.1411,1.0955,1.0866,0.0,1.1342,1.1516,1.1517,1.163,0.9865,0.5351,0.1971,-0.0,-0.0,-0.4352,-0.7337,-0.7228,-0.5016,-0.517,-0.8632,-1.1161,-1.2576,-1.2556,-1.2535,-1.2515,-1.2501,-1.2501,-1.2461,-1.2379,-1.223,-1.3148,-1.4792,-1.4745,-1.6615,-2.0355,-2.2074,-2.2859,-2.2859,-2.2859,-2.2939,-2.3184,-2.4116,-2.4931,-2.5741,-2.5876,-2.651,-2.7328,-2.8129,-2.7765,-2.7354,-2.9025,-2.8974,-2.8629,-3.0086,-2.9834,-2.8972,-2.8587,-2.7736,-2.6952,-2.6786,-2.6587,-2.6561,-2.7539,-2.7608,-2.7399,-2.7617,-2.6867,-2.5894,-2.4935,-2.4386,-2.3991,-2.3901,-2.4892,-2.5604,-2.502,-2.4311,-2.4156,-2.5041,-2.5151,-2.5717,-2.7187,-2.7403,-2.7561,-2.8047,-2.7812,-2.7676,-2.7676,-2.7598,-2.7539,-2.7539,-2.7539,-2.7539,-2.7539,-2.7637,-2.7676,-2.7676,-2.7734,-2.7754,-2.7773,-2.8203,-2.8496,2.6157,2.4315,2.3299,2.253,2.2009,2.1556,2.1176,1.8336,1.5861,1.5556,1.3545,1.1751,1.0877,1.0886,1.1121,1.1281,1.1469,1.085,0.8629,0.8392,0.5586,-0.2034,-0.2941,-0.2536,-0.1666,-0.8116,-1.2266,-1.2556,-0.9692,-0.7959,-0.7981,-1.0814,-1.2528,-1.2481,-1.2454,-1.244,-1.244,-1.24,-1.2352,-1.2291,-1.2685,-1.3683,-1.5569,-1.6358,-1.8218,-2.0894,-2.2297,-2.2859,-2.2859,-2.2859,-2.2859,-2.2996,-2.4317,-2.5383,-2.6172,-2.6172,-2.737,-2.8952,-2.9474,-2.9344,-2.9213,-3.0918,-3.1176,-3.1121,-3.2527,-3.218,-3.1188,-3.0636,-2.9779,-2.8741,-2.8637,-2.841,-2.8412,-2.9544,-2.9545,-2.9405,-3.0039,-2.9275,-2.8217,-2.7576,-2.6828,-2.6084,-2.5929,-2.6964,-2.7937,-2.7937,-2.6524,-2.5763,-2.6774,-2.6791,-2.7168,-2.8174,-2.8301,-2.8301,-2.8301,-2.8008,-2.7832,-2.7832,-2.7539,-2.7363,-2.7363,-2.7363,-2.7363,-2.7363,-2.7676,-2.7832,-2.7851,-2.8262,-2.8457,-2.8476,-2.8906,-2.9101,2.1771,2.1999,2.2449,2.187,2.1695,2.1495,2.0849,1.8265,1.5863,1.5893,1.3177,1.0758,1.0941,1.0967,1.1134,1.1477,1.164,0.8925,0.1459,0.0289,-0.2292,-0.949,-1.0401,-0.9117,0.0,-0.9276,-1.194,-1.2532,-1.2386,-1.228,-1.2387,-1.2393,-1.2474,-1.2305,-1.2298,-1.2298,-1.2298,-1.2149,-1.2149,-1.2284,-1.3885,-1.5578,-1.7561,-2.1016,-2.2722,-2.2859,-2.2859,-2.2859,-2.2859,-2.2859,-2.2859,-2.2859,-2.2996,-2.5128,-2.818,-2.818,-2.9213,-3.09,-3.2638,-3.211,-3.1047,-3.2765,-3.2218,-3.1157,-3.2873,-3.3398,-3.3194,-3.2766,-3.2649,-3.2552,-3.2144,-3.2027,-3.191,-3.1501,-3.1385,-3.0873,-2.8874,-2.8426,-2.7931,-2.6332,-2.7002,-2.7714,-2.7714,-2.8671,-2.957,-2.957,-2.9439,-2.9264,-2.8836,-2.8427,-2.8281,-2.8301,-2.8301,-2.8301,-2.8301,-2.8281,-2.8281,-2.8281,-2.8262,-2.8262,-2.8262,-2.8262,-2.8262,-2.8262,-2.8262,-2.8281,-2.8281,-2.8691,-2.8906,-2.8906,-2.9355,-2.9551,2.1756,2.3116,2.4222,2.2627,2.2617,2.2462,2.0144,1.7781,1.5833,1.452,1.2386,1.0767,1.0927,1.0891,1.1042,1.1462,0.7256,0.3032,0.0437,-0.4506,-0.8375,-1.0389,-1.0677,0.0,0.0,0.0,0.0,-1.2318,-1.2332,-1.2379,-1.2515,-1.2427,-1.2352,-1.2291,-1.2189,-1.2142,-1.2142,-1.3408,-1.394,-1.3885,-1.693,-1.8628,-1.9329,-2.1785,-2.2859,-2.2859,-2.2859,-2.2859,-2.2859,-2.2859,-2.2859,-2.3133,-2.5517,-2.7105,-2.8443,-3.0789,-3.1982,-3.2619,-3.3165,-3.3019,-3.2619,-3.3165,-3.3019,-3.2619,-3.3165,-3.3418,-3.3398,-3.3242,-3.3203,-3.3184,-3.3027,-3.2793,-3.2559,-3.2402,-3.2148,-3.1696,-3.0653,-3.0439,-3.0225,-2.9468,-2.9554,-2.9811,-2.9811,-3.0181,-3.0332,-3.0039,-2.9746,-2.9512,-2.9375,-2.9219,-2.9141,-2.9141,-2.9141,-2.9023,-2.873,-2.8711,-2.8594,-2.832,-2.8555,-2.8711,-2.8711,-2.8984,-2.9141,-2.9141,-2.9141,-2.9141,-2.9141,-2.9277,-2.9355,-2.9355,-2.9785,-2.998,2.2692,2.3756,2.4317,2.3335,2.2723,2.1764,1.9579,1.7299,1.5044,1.3466,1.1788,1.0362,0.9184,0.9869,1.0032,0.7828,0.3314,-0.099,-0.3778,-0.8271,-1.1233,-1.0933,-1.0888,-1.0968,0.0,0.0,0.0,-1.1898,-1.2155,-1.2271,-1.242,-1.2338,-1.2264,-1.221,-1.206,-1.2268,-1.3008,-1.4099,-1.5298,-1.6606,-1.9005,-2.0479,-2.117,-2.2297,-2.2859,-2.2859,-2.2859,-2.2859,-2.2859,-2.2859,-2.3256,-2.406,-2.6306,-2.8032,-2.9344,-3.1707,-3.2892,-3.3418,-3.3418,-3.3418,-3.3418,-3.3418,-3.3418,-3.3418,-3.3418,-3.3418,-3.3418,-3.3418,-3.3418,-3.3418,-3.3418,-3.3223,-3.2988,-3.2832,-3.2598,-3.2266,-3.1836,-3.1758,-3.1621,-3.1191,-3.1113,-3.1074,-3.0918,-3.0898,-3.0781,-3.0488,-3.0215,-2.9922,-2.9609,-2.957,-2.957,-2.957,-2.957,-2.9453,-2.918,-2.9141,-2.9043,-2.8769,-2.9004,-2.9141,-2.9141,-2.9414,-2.957,-2.957,-2.957,-2.957,-2.957,-2.9726,-2.9785,-2.9805,-3.0234,-3.0449,2.417,2.3847,2.2901,2.3708,2.1765,1.9457,1.9201,1.6415,1.3763,1.2902,1.1635,0.9691,0.0,0.0,0.7388,0.052,-0.04,-0.2882,-1.0323,-1.0915,-1.0914,0.0,0.0,0.0,0.0,0.0,0.0,-1.1606,0.0,-1.2135,-1.2291,-1.2284,-1.221,-1.2067,-1.1904,-1.2685,-1.4703,-1.4659,-1.6535,-2.0201,-2.0201,-2.1183,-2.2859,-2.2859,-2.2859,-2.2859,-2.2859,-2.2859,-2.2859,-2.2996,-2.406,-2.5517,-2.5651,-2.7883,-3.0771,-3.09,-3.1963,-3.3418,-3.3418,-3.3418,-3.3418,-3.3418,-3.3418,-3.3418,-3.3418,-3.3418,-3.3418,-3.3418,-3.3418,-3.3418,-3.3418,-3.3418,-3.332,-3.293,-3.2832,-3.2715,-3.2285,-3.2207,-3.207,-3.1641,-3.1543,-3.1387,-3.0996,-3.0898,-3.0898,-3.0898,-3.0898,-3.0586,-2.9746,-2.9648,-2.9648,-2.9648,-2.9648,-2.9629,-2.9609,-2.9609,-2.959,-2.957,-2.959,-2.9609,-2.9609,-2.9629,-2.9648,-2.9648,-2.9648,-2.9648,-2.9648,-3.0039,-3.0234,-3.0234,-3.0684,-3.0898,2.4564,2.4659,2.3724,2.1649,2.044,1.9038,1.6089,1.4352,1.3105,1.1557,1.0562,0.9858,0.0,0.0,0.0,-0.825,-0.6149,0.0,-0.6945,-0.9706,0.0,-1.1288,0.0,-1.1267,-1.1226,-1.1321,0.0,0.0,-1.1891,-1.2176,-1.2433,-1.2237,-1.2101,-1.206,-1.1809,-1.2525,-1.4508,-1.7268,-1.9773,-2.216,-2.216,-2.2435,-2.2859,-2.2859,-2.2859,-2.2859,-2.2859,-2.2859,-2.2996,-2.4317,-2.5113,-2.5771,-2.841,-2.9977,-3.09,-3.2237,-3.3019,-3.3418,-3.3418,-3.3418,-3.3418,-3.3418,-3.3418,-3.3418,-3.3418,-3.3418,-3.3418,-3.3418,-3.3418,-3.3418,-3.3418,-3.3418,-3.3398,-3.3281,-3.3262,-3.3144,-3.2734,-3.2637,-3.25,-3.209,-3.1738,-3.1484,-3.1367,-3.1094,-3.0898,-3.0898,-3.0898,-3.082,-3.0586,-3.0547,-3.0547,-3.0547,-3.0547,-3.041,-3.0059,-3.0039,-2.9902,-2.959,-2.9863,-3.0039,-3.0039,-3.0371,-3.0547,-3.0547,-3.0547,-3.0547,-3.0547,-3.0664,-3.0703,-3.0723,-3.084,-3.0898,2.51,2.4089,2.2625,2.0629,1.8738,1.6899,1.4883,1.3397,1.1456,0.8602,0.7177,0.6427,0.6393,-0.1348,0.0,0.0,0.0,0.0,-0.8154,-1.0096,-1.1402,0.0,-1.1497,0.0,-1.1457,-1.1592,-1.2177,0.0,-1.2586,-1.2162,-1.2393,-1.225,-1.2135,-1.206,-1.2707,-1.4239,-1.6826,-1.9912,-2.1885,-2.2859,-2.2859,-2.2859,-2.2859,-2.2859,-2.2859,-2.2859,0.0,-2.2859,-2.2996,-2.4723,-2.5905,-2.6972,-2.9717,-3.1304,-3.2091,-3.3019,-3.3418,-3.3418,-3.3418,-3.3418,-3.3418,-3.3418,-3.3418,-3.3418,-3.3418,-3.3418,-3.3418,-3.3418,-3.3418,-3.3418,-3.3418,-3.3418,-3.3418,-3.3418,-3.3418,-3.3359,-3.3125,-3.3066,-3.2949,-3.2519,-3.209,-3.1797,-3.1797,-3.1601,-3.1387,-3.1191,-3.1172,-3.1094,-3.0918,-3.0898,-3.0898,-3.0898,-3.0898,-3.0781,-3.0527,-3.0508,-3.041,-3.0156,-3.0371,-3.0508,-3.0508,-3.0762,-3.0898,-3.0898,-3.0898,-3.0898,-3.0898,-3.0898,-3.0898,-3.0898,-3.1074,-3.1172,2.5337,2.3094,2.0662,1.9655,1.6778,1.4275,1.4491,1.2383,0.9116,0.5139,0.2902,0.1358,0.0091,-0.2962,-0.6416,-0.9658,0.0,-1.1381,-1.1314,-1.1275,-1.1335,-1.1626,-1.1935,-1.2135,-1.2283,-1.2564,-1.3744,-1.5544,-1.3783,-1.2599,-1.2761,-1.2877,-1.2921,-1.2741,-1.4479,-1.6881,-2.0063,-2.2022,-2.2859,-2.2859,-2.2859,-2.2859,-2.2859,-2.2859,-2.2859,-2.2859,0.0,0.0,-2.2996,-2.4723,-2.6573,-2.8427,-3.0125,-3.1835,-3.3437,-3.3496,-3.3476,-3.3437,-3.3496,-3.3476,-3.3418,-3.3418,-3.3418,-3.3418,-3.3418,-3.3418,-3.3418,-3.3418,-3.3418,-3.3418,-3.3418,-3.3418,-3.3418,-3.3418,-3.3418,-3.3418,-3.3418,-3.3418,-3.332,-3.2949,-3.2539,-3.2246,-3.2246,-3.2207,-3.2031,-3.166,-3.1601,-3.1445,-3.1035,-3.0918,-3.0898,-3.0898,-3.0898,-3.0898,-3.0898,-3.0898,-3.0898,-3.0898,-3.0898,-3.0898,-3.0898,-3.0898,-3.0898,-3.0898,-3.0937,-3.0976,-3.0976,-3.1035,-3.1055,-3.1074,-3.1426,-3.1601,2.415,2.2243,1.9764,1.6396,1.4736,1.3553,1.2234,0.9194,0.0,0.0,0.1119,-0.1604,-0.4792,-0.6503,-0.8032,-0.9567,-1.0115,-1.0541,-1.1274,-1.1396,-1.1497,0.0,-1.323,-1.4446,-1.449,0.0,0.0,0.0,0.0,-1.4843,-1.4879,-1.6238,-1.6759,-1.6387,-1.8174,-1.9401,-2.0051,-2.2022,-2.2859,-2.2859,-2.2859,-2.2859,-2.2859,-2.2859,-2.2859,-2.2859,-2.2859,0.0,-2.2996,-2.4723,-2.6573,-2.8427,-3.0125,-3.1835,-3.3457,-3.3828,-3.373,-3.3476,-3.3828,-3.373,-3.3418,-3.3418,-3.3418,-3.3418,-3.3418,-3.3418,-3.3418,-3.3418,-3.3418,-3.3418,-3.3418,-3.3418,-3.3418,-3.3418,-3.3418,-3.3418,-3.3418,-3.3418,-3.3398,-3.332,-3.2969,-3.2695,-3.2695,-3.2402,-3.2148,-3.207,-3.2051,-3.1894,-3.1465,-3.1113,-3.0898,-3.0898,-3.0898,-3.0898,-3.0898,-3.0898,-3.0898,-3.0898,-3.0898,-3.0898,-3.0898,-3.0898,-3.0898,-3.0898,-3.123,-3.1406,-3.1406,-3.1777,-3.1953,-3.1953,-3.2031,-3.2051,2.2409,1.9968,1.7428,1.5197,1.34,1.1526,0.8751,0.0,0.0,0.0,-0.2765,-0.4138,-0.5989,-0.7018,0.0,-0.8582,-0.9831,-1.0745,-1.0925,-1.2465,0.0,-1.3488,-1.5223,-1.6524,0.0,0.0,0.0,0.0,0.0,-1.815,-1.7198,-1.7556,-1.8187,-1.8856,-1.9703,-2.0617,-2.1596,-2.2435,-2.2859,-2.2859,-2.2859,-2.2859,-2.2859,-2.2859,-2.2859,-2.2859,-2.2859,0.0,-2.3133,-2.5786,-2.737,-2.8427,-3.1176,-3.2619,-3.3476,-3.3906,-3.3945,-3.3789,-3.4004,-3.3945,-3.373,-3.3496,-3.3418,-3.3418,-3.3418,-3.3418,-3.3418,-3.3418,-3.3418,-3.3418,-3.3418,-3.3418,-3.3418,-3.3418,-3.3418,-3.3418,-3.3418,-3.3418,-3.3418,-3.3418,-3.3262,-3.3125,-3.3125,-3.2949,-3.2734,-3.2519,-3.25,-3.2344,-3.1914,-3.168,-3.1387,-3.0937,-3.0898,-3.0976,-3.1191,-3.1211,-3.1309,-3.1543,-3.1562,-3.1562,-3.1562,-3.1562,-3.1562,-3.1562,-3.1758,-3.1855,-3.1855,-3.207,-3.2168,-3.2168,-3.2383,-3.25,1.9787,1.7253,1.5214,1.4309,1.2321,0.9607,0.5938,0.3382,0.0,-0.4834,-0.5802,-0.578,-0.5949,0.0,-0.7539,0.0,-0.9928,-1.1232,-1.1434,-1.3784,-1.5461,0.0,-1.73,0.0,-1.8948,0.0,0.0,0.0,0.0,0.0,-1.9788,-1.898,-1.9227,-2.0802,-2.0726,-2.1459,-2.2859,-2.2859,-2.2859,-2.2859,-2.2859,-2.2859,-2.2859,-2.2859,-2.2859,-2.2859,-2.2859,0.0,0.0,-2.6321,-2.79,-2.8558,-3.1579,-3.3019,-3.3496,-3.4023,-3.416,-3.4082,-3.418,-3.4141,-3.4004,-3.3555,-3.3418,-3.3418,-3.3418,-3.3418,-3.3418,-3.3418,-3.3418,-3.3418,-3.3418,-3.3418,-3.3418,-3.3418,-3.3418,-3.3418,-3.3418,-3.3418,-3.3418,-3.3418,-3.3418,-3.3418,-3.3418,-3.3418,-3.3301,-3.2988,-3.293,-3.2773,-3.2363,-3.2305,-3.2012,-3.125,-3.1172,-3.1309,-3.1621,-3.166,-3.1797,-3.2148,-3.2168,-3.2168,-3.2168,-3.2168,-3.2168,-3.2168,-3.2266,-3.2305,-3.2305,-3.2402,-3.2441,-3.2441,-3.2773,-3.293,1.6062,1.5026,1.443,1.2388,1.1207,0.9462,0.5724,0.0,0.0364,-0.4706,-0.5795,-0.5867,-0.6003,0.0,0.0,0.0,0.0,-1.2316,-1.4147,-1.4974,-1.5643,-1.6718,0.0,0.0,-2.0897,0.0,0.0,0.0,0.0,0.0,-2.3288,-2.1438,-2.1172,-2.2638,-2.2598,-2.2722,-2.2859,-2.2859,-2.2859,-2.2859,-2.2859,-2.2859,-2.2859,-2.2859,-2.2859,-2.2859,-2.2859,0.0,0.0,-2.4979,-2.6706,-2.8427,-3.0254,-3.1963,-3.3516,-3.4336,-3.4394,-3.4121,-3.4512,-3.4394,-3.4004,-3.3555,-3.3418,-3.3418,-3.3418,-3.3418,-3.3418,-3.3418,-3.3418,-3.3418,-3.3418,-3.3418,-3.3418,-3.3418,-3.3418,-3.3418,-3.3418,-3.3418,-3.3418,-3.3418,-3.3418,-3.3418,-3.3418,-3.3418,-3.3418,-3.3379,-3.3359,-3.3203,-3.2793,-3.2734,-3.2559,-3.209,-3.2051,-3.207,-3.2109,-3.2109,-3.2129,-3.2168,-3.2168,-3.2168,-3.2168,-3.2168,-3.2168,-3.2168,-3.2539,-3.2734,-3.2734,-3.3125,-3.3301,-3.3301,-3.334,-3.3359,1.4806,1.377,1.2801,1.1798,0.9591,0.6902,0.4039,0.1193,-0.1834,-0.5098,-0.605,-0.6425,-0.6698,-0.7586,0.0,0.0,0.0,0.0,-1.2969,-1.5208,-1.6912,-1.7719,-2.0131,0.0,0.0,0.0,0.0,0.0,0.0,0.0,-2.3794,-2.3028,-2.2615,-2.2886,-2.2859,-2.2859,-2.2859,-2.2859,-2.2859,-2.2859,-2.2859,-2.2859,-2.2859,-2.2859,-2.2859,-2.2859,-2.2859,0.0,0.0,-2.6439,-2.8163,-2.9995,-3.1707,-3.2765,-3.3496,-3.4101,-3.4219,-3.4101,-3.4258,-3.4219,-3.4004,-3.3555,-3.3418,-3.3418,-3.3418,-3.3418,-3.3418,-3.3418,-3.3418,-3.3418,-3.3418,-3.3418,-3.3418,-3.3418,-3.3418,-3.3418,-3.3418,-3.3418,-3.3418,-3.3418,-3.3418,-3.3418,-3.3418,-3.3418,-3.3418,-3.3418,-3.3418,-3.3359,-3.3184,-3.3164,-3.3105,-3.2949,-3.248,-3.2266,-3.2519,-3.2539,-3.2656,-3.291,-3.293,-3.293,-3.293,-3.293,-3.293,-3.293,-3.3086,-3.3164,-3.3164,-3.334,-3.3418,-3.3418,-3.3418,-3.3418,1.3449,1.2521,1.1613,1.147,0.8467,0.4787,0.198,-0.0776,-0.3222,-0.5371,-0.631,-0.683,-0.7214,-0.8192,-0.928,0.0,0.0,-1.2667,-1.329,-1.5762,-1.776,0.0,0.0,0.0,0.0,0.0,0.0,0.0,0.0,0.0,0.0,-2.3688,-2.3407,-2.2886,-2.2859,-2.2859,-2.2859,-2.2859,-2.2859,-2.2859,-2.2859,-2.2859,-2.2859,-2.2859,-2.2859,-2.2859,0.0,0.0,0.0,-2.6706,-2.8427,-3.0254,-3.1963,-3.2892,-3.3476,-3.3906,-3.4082,-3.4082,-3.4082,-3.4082,-3.4004,-3.3555,-3.3418,-3.3418,-3.3418,-3.3418,-3.3418,-3.3418,-3.3418,-3.3418,-3.3418,-3.3418,-3.3418,-3.3418,-3.3418,-3.3418,-3.3418,-3.3418,-3.3418,-3.3418,-3.3418,-3.3418,-3.3418,-3.3418,-3.3418,-3.3418,-3.3418,-3.3418,-3.3418,-3.3418,-3.3418,-3.3418,-3.2891,-3.2656,-3.2949,-3.2988,-3.3105,-3.3398,-3.3418,-3.3418,-3.3418,-3.3418,-3.3418,-3.3418,-3.3418,-3.3418,-3.3418,-3.3418,-3.3418,-3.3418,-3.3418,-3.3418,1.1725,1.1386,1.1324,1.1029,0.792,0.3704,-0.0541,-0.2004,-0.3164,-0.5353,-0.631,-0.683,-0.7214,-0.8834,-1.0527,-1.1839,0.0,0.0,-1.6321,-1.6967,-1.7595,0.0,0.0,0.0,0.0,0.0,0.0,0.0,0.0,0.0,0.0,-2.3487,-2.3193,-2.2873,-2.2859,-2.2859,-2.2859,-2.2859,-2.2859,-2.2859,-2.2859,-2.2859,-2.2859,-2.2859,-2.2859,0.0,0.0,0.0,0.0,-2.4858,-2.6573,-2.8427,-3.0125,-3.1835,-3.3476,-3.3906,-3.4082,-3.4082,-3.4082,-3.4082,-3.4004,-3.3555,-3.3418,-3.3418,-3.3418,-3.3418,-3.3418,-3.3418,-3.3418,-3.3418,-3.3418,-3.3418,-3.3418,-3.3418,-3.3418,-3.3418,-3.3418,-3.3418,-3.3418,-3.3418,-3.3418,-3.3418,-3.3418,-3.3418,-3.3418,-3.3418,-3.3418,-3.3418,-3.3418,-3.3418,-3.3418,-3.3418,-3.3418,-3.3418,-3.3418,-3.3418,-3.3418,-3.3418,-3.3418,-3.3418,-3.3418,-3.3418,-3.3418,-3.3418,-3.3418,-3.3418,-3.3418,-3.3418,-3.3418,-3.3418,-3.3418,-3.3418,0.4697,0.4837,0.4988,0.4862,0.2211,-0.0768,-0.1699,-0.416,-0.6377,-0.6653,-0.7662,-0.8581,-0.8894,-0.9896,-1.132,-1.3136,-1.3697,0.0,0.0,0.0,0.0,0.0,0.0,0.0,0.0,0.0,0.0,0.0,0.0,0.0,0.0,-2.318,-2.2966,-2.2859,-2.2859,-2.2859,-2.2859,-2.2859,-2.2859,-2.2859,-2.2859,-2.2859,-2.2859,-2.2859,0.0,0.0,0.0,0.0,0.0,-2.6573,-2.8427,-3.0125,-3.1835,-3.2892,-3.3437,-3.3574,-3.3633,-3.3633,-3.3633,-3.3633,-3.3613,-3.3476,-3.3418,-3.3418,-3.3418,-3.3418,-3.3418,-3.3418,-3.3418,-3.3418,-3.3418,-3.3418,-3.3418,-3.3418,-3.3418,-3.3418,-3.3418,-3.3418,-3.3418,-3.3418,-3.3418,-3.3418,-3.3418,-3.3418,-3.3418,-3.3418,-3.3418,-3.3418,-3.3418,-3.3418,-3.3418,-3.3418,-3.3418,-3.3418,-3.3418,-3.3418,-3.3418,-3.3418,-3.3418,-3.3418,-3.3418,-3.3418,-3.3418,-3.3418,-3.3418,-3.3418,-3.3418,-3.3418,-3.3418,-3.3418,-3.3418,-3.3418,0.0219,0.0798,0.0808,0.0791,-0.1847,-0.4541,-0.4602,-0.6294,-0.7791,-0.7699,-0.855,-0.935,-0.9675,-1.0388,-1.153,-1.3146,-1.3507,0.0,0.0,0.0,0.0,0.0,0.0,0.0,0.0,0.0,0.0,0.0,0.0,0.0,0.0,-2.3033,-2.2859,-2.2859,-2.2859,-2.2859,-2.2859,-2.2859,-2.2859,-2.2859,-2.2859,-2.2859,-2.2859,-2.2859,0.0,0.0,0.0,0.0,0.0,-2.6706,-2.8558,-3.0918,-3.1963,-3.2765,-3.3418,-3.3418,-3.3418,-3.3418,-3.3418,-3.3418,-3.3418,-3.3418,-3.3418,-3.3418,-3.3418,-3.3418,-3.3418,-3.3418,-3.3418,-3.3418,-3.3418,-3.3418,-3.3418,-3.3418,-3.3418,-3.3418,-3.3418,-3.3418,-3.3418,-3.3418,-3.3418,-3.3418,-3.3418,-3.3418,-3.3418,-3.3418,-3.3418,-3.3418,-3.3418,-3.3418,-3.3418,-3.3418,-3.3418,-3.3418,-3.3418,-3.3418,-3.3418,-3.3418,-3.3418,-3.3418,-3.3418,-3.3418,-3.3418,-3.3418,-3.3418,-3.3418,-3.3418,-3.3418,-3.3418,-3.3418,-3.3418,-3.3516,0.0,-0.1488,-0.1639,-0.1637,-0.4371,-0.7388,-0.8333,-0.8195,0.0,-0.8573,-0.9086,-0.9491,-0.9789,-1.0505,-1.1343,-1.2305,0.0,0.0,0.0,0.0,0.0,0.0,0.0,0.0,0.0,0.0,0.0,0.0,0.0,0.0,0.0,-2.302,-2.2859,-2.2859,-2.2859,-2.2859,-2.2859,-2.2859,-2.2859,-2.2859,-2.2859,-2.2859,-2.2859,-2.2859,0.0,0.0,0.0,0.0,0.0,-2.5651,-2.7768,-3.0807,-3.0918,-3.1963,-3.3418,-3.3418,-3.3418,-3.3418,-3.3418,-3.3418,-3.3418,-3.3418,-3.3418,-3.3418,-3.3418,-3.3418,-3.3418,-3.3418,-3.3418,-3.3418,-3.3418,-3.3418,-3.3418,-3.3418,-3.3418,-3.3418,-3.3418,-3.3418,-3.3418,-3.3418,-3.3418,-3.3418,-3.3418,-3.3418,-3.3418,-3.3418,-3.3418,-3.3418,-3.3418,-3.3418,-3.3418,-3.3418,-3.3418,-3.3418,-3.3418,-3.3418,-3.3418,-3.3418,-3.3418,-3.3418,-3.3418,-3.3418,-3.3418,-3.3418,-3.3418,-3.3418,-3.3418,-3.3457,-3.3476,-3.3476,-3.3496,-3.373,-0.5266,0.0,-0.5512,-0.5425,-0.6649,-0.7982,0.0,-0.8883,-0.9529,-0.9589,-0.9952,-1.0523,-1.124,-1.1339,-1.1904,0.0,0.0,0.0,0.0,0.0,0.0,0.0,0.0,0.0,0.0,0.0,0.0,0.0,0.0,0.0,0.0,-2.2899,-2.2859,-2.2859,-2.2859,-2.2859,-2.2859,-2.2859,-2.2859,-2.2859,-2.2859,-2.2859,-2.2859,-2.2859,0.0,0.0,0.0,0.0,-2.5651,-2.6972,-2.8821,-3.0918,-3.2237,-3.3019,-3.3418,-3.3418,-3.3418,-3.3418,-3.3418,-3.3418,-3.3418,-3.3418,-3.3418,-3.3418,-3.3418,-3.3418,-3.3418,-3.3418,-3.3418,-3.3418,-3.3418,-3.3418,-3.3418,-3.3418,-3.3418,-3.3418,-3.3418,-3.3418,-3.3418,-3.3418,-3.3418,-3.3418,-3.3418,-3.3418,-3.3418,-3.3418,-3.3418,-3.3418,-3.3418,-3.3418,-3.3418,-3.3418,-3.3418,-3.3418,-3.3418,-3.3418,-3.3418,-3.3418,-3.3418,-3.3418,-3.3418,-3.3418,-3.3418,-3.3418,-3.3418,-3.3418,-3.3418,-3.375,-3.3926,-3.3926,-3.4258,-3.4453,-0.6589,-0.6798,-0.6991,-0.7567,-0.7899,-0.8376,-0.9388,-0.9702,-0.9939,-1.0288,-1.0536,-1.0806,-1.1356,0.0,0.0,0.0,0.0,0.0,0.0,0.0,0.0,0.0,0.0,0.0,0.0,0.0,0.0,0.0,0.0,0.0,0.0,-2.2859,-2.2859,-2.2859,-2.2859,-2.2859,-2.2859,-2.2859,-2.2859,-2.2859,-2.2859,-2.2859,-2.2859,-2.2859,-2.2859,0.0,0.0,0.0,-2.6839,-2.8689,-3.0384,-3.2091,-3.3019,-3.3418,-3.3418,-3.3418,-3.3418,-3.3418,-3.3418,-3.3418,-3.3418,-3.3418,-3.3418,-3.3418,-3.3418,-3.3418,-3.3418,-3.3418,-3.3418,-3.3418,-3.3418,-3.3418,-3.3418,-3.3418,-3.3418,-3.3418,-3.3418,-3.3418,-3.3418,-3.3418,-3.3574,-3.3711,-3.3711,-3.3887,-3.4004,-3.4004,-3.4004,-3.4004,-3.4004,-3.4004,-3.3926,-3.375,-3.3711,-3.3633,-3.3437,-3.3418,-3.3418,-3.3418,-3.3418,-3.3418,-3.3418,-3.3418,-3.3418,-3.3418,-3.3613,-3.3711,-3.373,-3.416,-3.4355,-3.4355,-3.459,-3.4824,-0.7033,-0.7305,-0.7628,-0.8612,-0.8699,-0.9036,-1.0976,-1.0572,0.0,0.0,0.0,0.0,0.0,-1.177,0.0,0.0,0.0,0.0,0.0,0.0,0.0,0.0,0.0,0.0,0.0,0.0,0.0,0.0,0.0,0.0,0.0,-2.2929,-2.2956,-2.3256,-2.2996,-2.2859,-2.2859,-2.2859,-2.2859,-2.2859,-2.2859,-2.2859,-2.2859,-2.2859,-2.2996,0.0,0.0,0.0,-2.8689,-3.0254,-3.1835,-3.3418,-3.3418,-3.3418,-3.3418,-3.3418,-3.3418,-3.3418,-3.3418,-3.3418,-3.3418,-3.3418,-3.3418,-3.3418,-3.3418,-3.3418,-3.3418,-3.3418,-3.3418,-3.3418,-3.3418,-3.3418,-3.3418,-3.3418,-3.3418,-3.3418,-3.3418,-3.3418,-3.3437,-3.3516,-3.3828,-3.4101,-3.416,-3.4473,-3.4707,-3.4707,-3.4707,-3.4707,-3.4707,-3.4707,-3.457,-3.4199,-3.416,-3.4023,-3.3652,-3.3613,-3.3613,-3.3613,-3.3555,-3.3555,-3.3613,-3.3613,-3.3613,-3.3613,-3.3984,-3.416,-3.416,-3.459,-3.4805,-3.4805,-3.4863,-3.5117,-0.7781,-0.8714,-0.9375,-0.8903,-1.002,-1.1056,-1.093,-1.1253,-1.1589,0.0,0.0,0.0,0.0,-1.3106,-1.352,0.0,0.0,0.0,0.0,0.0,0.0,0.0,0.0,0.0,0.0,0.0,0.0,0.0,0.0,0.0,0.0,-2.3278,-2.3254,-2.5113,-2.3652,-2.2859,-2.2859,-2.2859,-2.2859,-2.2859,-2.2859,-2.2859,-2.2859,-2.2859,-2.3665,0.0,0.0,-2.7354,-3.0384,-3.0642,-3.1835,-3.3418,-3.3418,-3.3418,-3.3418,-3.3418,-3.3418,-3.3418,-3.3418,-3.3418,-3.3418,-3.3418,-3.3418,-3.3418,-3.3418,-3.3418,-3.3418,-3.3418,-3.3418,-3.3418,-3.3418,-3.3418,-3.3418,-3.3418,-3.3418,-3.3418,-3.3418,-3.3418,-3.3535,-3.3906,-3.4023,-3.418,-3.4531,-3.4668,-3.4707,-3.4707,-3.4707,-3.4707,-3.4707,-3.4707,-3.4668,-3.4609,-3.4609,-3.457,-3.4512,-3.4492,-3.4492,-3.4492,-3.418,-3.4141,-3.4492,-3.4492,-3.4492,-3.4492,-3.457,-3.4609,-3.4609,-3.5059,-3.5293,-3.5293,-3.5644,-3.5859,-0.8623,-0.9658,-1.055,-1.0877,-1.1591,-1.2302,-1.2732,-1.2713,-1.2599,0.0,0.0,0.0,0.0,0.0,0.0,0.0,0.0,0.0,0.0,0.0,0.0,0.0,0.0,0.0,0.0,0.0,0.0,0.0,0.0,0.0,0.0,0.0,-2.432,-2.6158,-2.4598,-2.4216,-2.4994,-2.5126,-2.439,-2.2859,-2.3788,-2.3788,-2.2859,-2.3924,-2.4723,-2.5651,0.0,-2.9327,-3.09,-3.1835,-3.2619,-3.3418,-3.3418,-3.3418,-3.3418,-3.3418,-3.3418,-3.3418,-3.3418,-3.3418,-3.3418,-3.3418,-3.3418,-3.3418,-3.3418,-3.3418,-3.3418,-3.3418,-3.3418,-3.3418,-3.3418,-3.3418,-3.3418,-3.3418,-3.3418,-3.3418,-3.3418,-3.3418,-3.3555,-3.3984,-3.4258,-3.4551,-3.5,-3.5254,-3.541,-3.541,-3.541,-3.541,-3.541,-3.541,-3.5332,-3.5098,-3.5078,-3.498,-3.4726,-3.4707,-3.4707,-3.4707,-3.4512,-3.4492,-3.4687,-3.4707,-3.4707,-3.4707,-3.4941,-3.5078,-3.5078,-3.5508,-3.5723,-3.5742,-3.5937,-3.6016,-0.9638,-1.0538,-1.159,-1.2777,-1.2928,-1.3138,-1.4392,-1.4095,-1.3574,0.0,0.0,0.0,0.0,0.0,0.0,0.0,0.0,0.0,0.0,0.0,0.0,0.0,0.0,0.0,0.0,0.0,0.0,0.0,0.0,0.0,0.0,0.0,-2.5722,-2.747,-2.5817,-2.556,-2.6837,-2.7344,-2.6084,-2.3323,-2.4713,-2.4742,-2.3419,-2.4815,-2.5905,-2.6823,-2.9587,-3.1029,-3.1561,-3.2892,-3.3418,-3.3418,-3.3418,-3.3418,-3.3418,-3.3418,-3.3418,-3.3418,-3.3418,-3.3418,-3.3418,-3.3418,-3.3418,-3.3418,-3.3418,-3.3418,-3.3418,-3.3418,-3.3418,-3.3418,-3.3418,-3.3418,-3.3418,-3.3418,-3.3418,-3.3418,-3.3418,-3.3418,-3.3574,-3.4121,-3.4473,-3.4883,-3.5449,-3.5801,-3.6016,-3.6016,-3.6016,-3.6016,-3.6016,-3.6016,-3.5898,-3.5566,-3.5547,-3.5391,-3.5039,-3.5,-3.5,-3.5,-3.4922,-3.4902,-3.5,-3.5,-3.5,-3.5,-3.5351,-3.5547,-3.5547,-3.5859,-3.6016,-3.6016,-3.6016,-3.6016,-1.1091,-1.1765,-1.2496,-1.3707,-1.3758,-1.382,-1.5084,-1.4856,0.0,-1.5471,0.0,0.0,0.0,0.0,0.0,0.0,0.0,0.0,0.0,0.0,0.0,0.0,0.0,0.0,0.0,0.0,0.0,0.0,0.0,0.0,0.0,0.0,0.0,-2.9208,-2.7596,-2.6837,-2.6837,-2.8477,-2.7596,-2.4361,-2.4788,-2.4937,-2.4951,-2.5383,-2.7354,-3.0384,-3.0642,-3.1707,-3.3165,-3.3292,-3.3418,-3.3418,-3.3418,-3.3418,-3.3418,-3.3418,-3.3418,-3.3418,-3.3418,-3.3418,-3.3418,-3.3418,-3.3418,-3.3418,-3.3418,-3.3418,-3.3418,-3.3418,-3.3418,-3.3418,-3.3418,-3.3418,-3.3418,-3.3418,-3.3418,-3.3418,-3.3418,-3.3418,-3.3672,-3.4492,-3.4668,-3.4961,-3.582,-3.5996,-3.6016,-3.6016,-3.6016,-3.6016,-3.6016,-3.6016,-3.6016,-3.5976,-3.5976,-3.5957,-3.5937,-3.5918,-3.5918,-3.5918,-3.5566,-3.5527,-3.5918,-3.5918,-3.5918,-3.5918,-3.5957,-3.5976,-3.5976,-3.5996,-3.6016,-3.6016,-3.6016,-3.6016,-1.1377,-1.1886,-1.2545,-1.3561,-1.4135,0.0,0.0,-1.6179,-1.6406,-1.7301,-1.7395,0.0,0.0,0.0,0.0,0.0,0.0,0.0,0.0,0.0,0.0,0.0,0.0,0.0,0.0,0.0,0.0,0.0,0.0,0.0,0.0,0.0,0.0,-3.0357,-2.8756,-2.8392,-2.9397,-2.9998,-2.924,-2.689,-2.7495,-2.7272,-2.6279,-2.7421,-2.8887,-3.0538,-3.1589,-3.2516,-3.3418,-3.3418,-3.3418,-3.3418,-3.3418,-3.3418,-3.3418,-3.3418,-3.3418,-3.3418,-3.3418,-3.3418,-3.3418,-3.3418,-3.3418,-3.3418,-3.3418,-3.3418,-3.3418,-3.3418,-3.3418,-3.3418,-3.3418,-3.3418,-3.3418,-3.3418,-3.3418,-3.3418,-3.3418,-3.3418,-3.3672,-3.4531,-3.4707,-3.498,-3.5859,-3.6016,-3.6016,-3.6016,-3.6016,-3.6016,-3.6016,-3.6016,-3.6016,-3.6016,-3.6016,-3.6016,-3.6016,-3.6016,-3.6016,-3.6016,-3.5879,-3.5859,-3.6016,-3.6016,-3.6016,-3.6016,-3.6016,-3.6016,-3.6016,-3.6016,-3.6016,-3.6016,-3.6016,-3.6016,-1.181,-1.1997,-1.2518,-1.3414,0.0,0.0,-1.6794,-1.7288,-1.7769,-1.8945,-1.8891,-1.8651,-1.8744,0.0,0.0,0.0,0.0,0.0,0.0,0.0,0.0,0.0,0.0,0.0,0.0,0.0,0.0,0.0,0.0,0.0,0.0,0.0,0.0,0.0,-2.9785,-2.9766,-3.0898,-3.0898,-3.0274,-2.9176,-2.9712,-2.9169,-2.7679,-2.8924,-3.001,-3.0909,-3.2084,-3.2754,-3.3027,-3.3027,-3.3105,-3.3242,-3.3379,-3.3418,-3.3418,-3.3418,-3.3418,-3.3418,-3.3418,-3.3418,-3.3418,-3.3418,-3.3418,-3.3418,-3.3418,-3.3418,-3.3418,-3.3418,-3.3418,-3.3418,-3.3418,-3.3418,-3.3418,-3.3418,-3.3418,-3.3418,-3.3418,-3.3418,-3.3633,-3.4355,-3.4609,-3.4941,-3.5684,-3.5937,-3.6016,-3.6016,-3.6016,-3.6016,-3.6016,-3.6016,-3.6016,-3.6016,-3.6016,-3.6016,-3.6016,-3.6016,-3.6016,-3.6016,-3.6016,-3.6016,-3.6016,-3.6016,-3.6016,-3.6016,-3.6016,-3.6016,-3.6016,-3.6016,-3.6016,-3.6016,-3.6016,-3.6016,-1.2465,-1.2305,-1.2518,-1.3427,0.0,0.0,-1.7555,-1.805,-1.8557,-2.0321,-1.976,-1.9025,-1.9332,0.0,0.0,0.0,0.0,0.0,0.0,0.0,0.0,0.0,0.0,0.0,0.0,0.0,0.0,0.0,0.0,0.0,0.0,0.0,0.0,0.0,-3.0898,-3.0898,-3.0898,-3.0898,-3.0898,-3.0898,-3.0898,-3.0249,-2.9143,-2.94,-3.0482,-3.2168,-3.2168,-3.2168,-3.2168,-3.2168,-3.2422,-3.2832,-3.3242,-3.3418,-3.3418,-3.3418,-3.3418,-3.3418,-3.3418,-3.3418,-3.3418,-3.3418,-3.3418,-3.3418,-3.3418,-3.3418,-3.3418,-3.3418,-3.3418,-3.3418,-3.3418,-3.3418,-3.3418,-3.3418,-3.3418,-3.3418,-3.3418,-3.3418,-3.3555,-3.3984,-3.4414,-3.4844,-3.5312,-3.5742,-3.6016,-3.6016,-3.6016,-3.6016,-3.6016,-3.6016,-3.6016,-3.6016,-3.6016,-3.6016,-3.6016,-3.6016,-3.6016,-3.6016,-3.6016,-3.6016,-3.6016,-3.6016,-3.6016,-3.6016,-3.6016,-3.6016,-3.6016,-3.6016,-3.6016,-3.6016,-3.6016,-3.6016,-1.185,-1.2144,0.0,-1.3988,0.0,0.0,0.0,-1.9132,0.0,0.0,-2.0828,-2.0187,-2.0267,0.0,0.0,0.0,0.0,0.0,0.0,0.0,0.0,0.0,0.0,0.0,0.0,0.0,0.0,0.0,0.0,0.0,0.0,0.0,0.0,0.0,-3.0898,-3.0898,-3.0898,-3.0898,-3.0898,-3.0898,-3.0898,-3.0703,-3.0348,-3.0462,-3.093,-3.1719,-3.1719,-3.1875,-3.2168,-3.2168,-3.2246,-3.2402,-3.2812,-3.2988,-3.3008,-3.332,-3.3418,-3.3418,-3.3418,-3.3418,-3.3418,-3.3418,-3.3418,-3.3418,-3.3418,-3.3418,-3.3418,-3.3418,-3.3418,-3.3418,-3.3418,-3.3418,-3.3418,-3.3418,-3.3418,-3.3418,-3.3418,-3.3418,-3.3555,-3.3984,-3.418,-3.4512,-3.5254,-3.5488,-3.5684,-3.5976,-3.6016,-3.6016,-3.6016,-3.6016,-3.6016,-3.6016,-3.6016,-3.6016,-3.6016,-3.6016,-3.6016,-3.6016,-3.6016,-3.6016,-3.6016,-3.6016,-3.6016,-3.6016,-3.6016,-3.6016,-3.6016,-3.6016,-3.6016,-3.6016,-3.6016,-3.6016,-1.2305,-1.2786,0.0,-1.4897,-1.6286,-1.7809,-1.9639,0.0,0.0,0.0,0.0,-2.1056,0.0,0.0,0.0,0.0,0.0,0.0,0.0,0.0,0.0,0.0,0.0,0.0,0.0,0.0,0.0,0.0,0.0,0.0,0.0,0.0,0.0,0.0,-3.0898,-3.0898,-3.0898,-3.0898,-3.0898,-3.0898,-3.0898,-3.0898,-3.0898,-3.0898,-3.1035,-3.1269,-3.1269,-3.1426,-3.168,-3.1836,-3.1914,-3.1953,-3.2383,-3.2539,-3.2598,-3.3008,-3.3164,-3.3184,-3.3359,-3.3418,-3.3418,-3.3418,-3.3418,-3.3418,-3.3418,-3.3418,-3.3418,-3.3418,-3.3418,-3.3418,-3.3418,-3.3418,-3.3418,-3.3418,-3.3418,-3.3418,-3.3418,-3.3418,-3.3496,-3.3769,-3.3945,-3.4238,-3.4785,-3.5156,-3.5488,-3.5742,-3.5918,-3.6016,-3.6016,-3.6016,-3.6016,-3.6016,-3.6016,-3.6016,-3.6016,-3.6016,-3.6016,-3.6016,-3.6016,-3.6016,-3.6016,-3.6016,-3.6016,-3.6016,-3.6016,-3.6016,-3.6016,-3.6016,-3.6016,-3.6016,-3.6016,-3.6016,-1.3293,0.0,0.0,-1.5979,-1.7101,0.0,-2.0601,-2.155,-2.1951,-2.1977,0.0,0.0,0.0,0.0,0.0,0.0,0.0,0.0,0.0,0.0,0.0,0.0,0.0,0.0,0.0,0.0,0.0,0.0,0.0,0.0,0.0,0.0,0.0,-3.0762,-3.0762,-3.0762,-3.0762,-3.082,-3.082,0.0,-3.0859,-3.0898,-3.0898,-3.0898,-3.0898,-3.0898,-3.0898,-3.0898,-3.0918,-3.1309,-3.1465,-3.1504,-3.1934,-3.2109,-3.2168,-3.2578,-3.2734,-3.2793,-3.3223,-3.3359,-3.3379,-3.3418,-3.3418,-3.3418,-3.3418,-3.3418,-3.3418,-3.3418,-3.3418,-3.3418,-3.3418,-3.3418,-3.3418,-3.3418,-3.3418,-3.3418,-3.3418,-3.3418,-3.3418,-3.3418,-3.375,-3.4023,-3.4062,-3.4746,-3.5293,-3.5391,-3.5742,-3.6016,-3.6016,-3.6016,-3.6016,-3.6016,-3.6016,-3.6016,-3.6016,-3.6016,-3.6016,-3.6016,-3.6016,-3.6016,-3.6016,-3.6016,-3.6016,-3.6016,-3.6016,-3.6016,-3.6016,-3.6016,-3.6016,-3.6016,-3.6016,-3.6016,-1.2478,-1.3494,0.0,0.0,-1.8317,-1.992,-2.0882,-2.139,-2.171,0.0,0.0,0.0,0.0,0.0,0.0,0.0,0.0,0.0,0.0,0.0,0.0,0.0,0.0,0.0,0.0,0.0,0.0,0.0,0.0,0.0,0.0,0.0,0.0,-2.9844,-2.9844,-2.9844,-2.9844,-3.0176,-3.0351,0.0,-3.0723,-3.0898,-3.0898,-3.0898,-3.0898,-3.0898,-3.0898,-3.0898,-3.0898,-3.0996,-3.1035,-3.1074,-3.1484,-3.166,-3.1719,-3.2148,-3.2305,-3.2363,-3.2793,-3.293,-3.2988,-3.332,-3.3418,-3.3418,-3.3418,-3.3418,-3.3418,-3.3418,-3.3418,-3.3418,-3.3418,-3.3418,-3.3418,-3.3418,-3.3418,-3.3418,-3.3418,-3.3418,-3.3418,-3.3418,-3.3496,-3.3672,-3.4023,-3.4238,-3.459,-3.5293,-3.5742,-3.6016,-3.6016,-3.6016,-3.6016,-3.6016,-3.6016,-3.6016,-3.6016,-3.6016,-3.6016,-3.6016,-3.6016,-3.6016,-3.6016,-3.6016,-3.6016,-3.6016,-3.6016,-3.6016,-3.6016,-3.6016,-3.6016,-3.6016,-3.6016,-3.6016,-1.2639,0.0,0.0,-1.7836,0.0,-2.0388,-2.0975,-2.1229,0.0,0.0,0.0,0.0,0.0,0.0,0.0,0.0,0.0,0.0,0.0,0.0,0.0,0.0,0.0,0.0,0.0,0.0,0.0,0.0,0.0,0.0,0.0,-2.957,-2.957,-2.957,-2.957,-2.957,-2.957,-2.9785,-2.9902,-2.9902,-3.0137,-3.0371,-3.0566,-3.0781,-3.0898,-3.0898,-3.0898,-3.0898,-3.0898,-3.0898,-3.0898,-3.0918,-3.1133,-3.1211,-3.1269,-3.1699,-3.1855,-3.1914,-3.2344,-3.25,-3.2559,-3.2988,-3.3125,-3.3164,-3.3359,-3.3418,-3.3418,-3.3418,-3.3418,-3.3418,-3.3418,-3.3418,-3.3418,-3.3418,-3.3418,-3.3418,-3.3418,-3.3418,-3.3418,-3.3418,-3.3418,-3.3496,-3.373,-3.3945,-3.4297,-3.4961,-3.5254,-3.5469,-3.5684,-3.5723,-3.5801,-3.5996,-3.6016,-3.6016,-3.6016,-3.6016,-3.6016,-3.6016,-3.6016,-3.6016,-3.6016,-3.6016,-3.6016,-3.6016,-3.6016,-3.6016,-3.6016,-3.6016,-3.6016,-3.6016,-3.6016,-3.6016,-1.2826,0.0,-1.6273,-1.8971,-1.9947,0.0,-2.0909,-2.1069,0.0,0.0,0.0,0.0,0.0,0.0,0.0,0.0,0.0,0.0,0.0,0.0,0.0,0.0,0.0,0.0,0.0,0.0,0.0,0.0,0.0,0.0,-2.9355,-2.9355,-2.9355,-2.9355,-2.9355,-2.9355,-2.9355,-2.9414,-2.9453,-2.9453,-2.9531,-2.9746,-3.0098,-3.0488,-3.0742,-3.0898,-3.0898,-3.0898,-3.0898,-3.0898,-3.0898,-3.0898,-3.0898,-3.0898,-3.0937,-3.1289,-3.1406,-3.1465,-3.1894,-3.2051,-3.2129,-3.2559,-3.2734,-3.2851,-3.3203,-3.3359,-3.3418,-3.3418,-3.3418,-3.3418,-3.3418,-3.3418,-3.3418,-3.3418,-3.3418,-3.3418,-3.3418,-3.3418,-3.3418,-3.3418,-3.3418,-3.3418,-3.3418,-3.3789,-3.4199,-3.4531,-3.4648,-3.4844,-3.5234,-3.5273,-3.541,-3.5762,-3.5859,-3.5918,-3.5918,-3.5976,-3.6016,-3.6016,-3.6016,-3.6016,-3.6016,-3.6016,-3.6016,-3.6016,-3.6016,-3.6016,-3.6016,-3.6016,-3.6016,-3.6016,-3.6016,-3.6016,0.0,0.0,-1.6941,0.0,-1.9639,-2.0321,0.0,0.0,0.0,0.0,0.0,0.0,0.0,0.0,0.0,0.0,0.0,0.0,0.0,0.0,0.0,0.0,0.0,0.0,0.0,0.0,0.0,0.0,0.0,0.0,-2.8457,-2.8457,-2.8457,-2.8457,-2.8457,-2.8457,-2.8457,-2.8828,-2.9004,-2.9004,-2.9394,-2.959,-2.9648,-2.9726,-3.0176,-3.0898,-3.0898,-3.0898,-3.0898,-3.0898,-3.0898,-3.0898,-3.0898,-3.0898,-3.0898,-3.0957,-3.0976,-3.1035,-3.1465,-3.1601,-3.168,-3.2109,-3.25,-3.2812,-3.2871,-3.3125,-3.3418,-3.3418,-3.3418,-3.3418,-3.3418,-3.3418,-3.3418,-3.3418,-3.3418,-3.3418,-3.3418,-3.3418,-3.3418,-3.3418,-3.3418,-3.3418,-3.3418,-3.3789,-3.4082,-3.4141,-3.4473,-3.4726,-3.4785,-3.4785,-3.4805,-3.4863,-3.5234,-3.5488,-3.5488,-3.5801,-3.6016,-3.6016,-3.6016,-3.6016,-3.6016,-3.6016,-3.6016,-3.6016,-3.6016,-3.6016,-3.6016,-3.6016,-3.6016,-3.6016,-3.6016,-3.6016,-1.2759,-1.475,-1.6687,0.0,-1.9466,-1.9867,0.0,0.0,0.0,0.0,0.0,0.0,0.0,0.0,0.0,0.0,0.0,0.0,0.0,0.0,0.0,0.0,0.0,0.0,0.0,0.0,0.0,0.0,0.0,-2.8301,-2.8301,-2.8301,-2.8301,-2.8301,-2.8301,-2.8301,-2.8301,-2.8476,-2.8574,-2.8574,-2.9004,-2.9199,-2.9219,-2.9453,-2.9922,-3.0508,-3.0508,-3.0644,-3.0898,-3.0898,-3.0898,-3.0898,-3.0898,-3.0898,-3.0898,-3.0898,-3.0898,-3.0918,-3.1094,-3.1172,-3.123,-3.166,-3.1934,-3.2168,-3.2656,-3.293,-3.3125,-3.3359,-3.3418,-3.3418,-3.3418,-3.3418,-3.3418,-3.3418,-3.3418,-3.3418,-3.3418,-3.3418,-3.3418,-3.3418,-3.3418,-3.3418,-3.3418,-3.3574,-3.3711,-3.3711,-3.3867,-3.4082,-3.4316,-3.4336,-3.4434,-3.4668,-3.4883,-3.5,-3.5,-3.541,-3.5664,-3.5664,-3.5898,-3.6016,-3.6016,-3.6016,-3.6016,-3.6016,-3.6016,-3.6016,-3.6016,-3.6016,-3.6016,-3.6016,-3.6016,-3.6016,0.0,0.0,-1.5859,-1.7929,-1.8691,-1.9185,0.0,0.0,0.0,0.0,0.0,0.0,0.0,0.0,0.0,0.0,0.0,0.0,0.0,0.0,0.0,0.0,0.0,0.0,0.0,0.0,0.0,0.0,0.0,-2.8301,-2.8301,-2.8301,-2.8301,-2.8301,-2.8301,-2.8301,-2.8301,-2.8301,-2.8301,-2.8301,-2.8613,-2.8769,-2.8769,-2.9101,-2.9473,-2.9883,-3.0,-3.0293,-3.0723,-3.0723,-3.0781,-3.0898,-3.0898,-3.0898,-3.0898,-3.0898,-3.0898,-3.0898,-3.0898,-3.0898,-3.0937,-3.125,-3.1426,-3.166,-3.2402,-3.2715,-3.2871,-3.3301,-3.3418,-3.3418,-3.3418,-3.3418,-3.3418,-3.3418,-3.3418,-3.3418,-3.3418,-3.3418,-3.3418,-3.3418,-3.3418,-3.3418,-3.3418,-3.3418,-3.3418,-3.3418,-3.3418,-3.3535,-3.3867,-3.3906,-3.4023,-3.4336,-3.4473,-3.4531,-3.4531,-3.5059,-3.5391,-3.5391,-3.5781,-3.6016,-3.6016,-3.6016,-3.6016,-3.6016,-3.5918,-3.5918,-3.6016,-3.6016,-3.6016,-3.6016,-3.6016,-3.6016,0.0,-1.2871,0.0,-1.5399,0.0,0.0,0.0,0.0,0.0,0.0,0.0,0.0,0.0,0.0,0.0,0.0,0.0,0.0,0.0,0.0,0.0,0.0,0.0,0.0,0.0,0.0,0.0,0.0,0.0,-2.8301,-2.8301,-2.8301,-2.8301,-2.8301,-2.8301,-2.8301,-2.8301,-2.8301,-2.8301,-2.8301,-2.832,-2.832,-2.832,-2.8359,-2.8594,-2.9004,-2.9414,-2.9844,-3.0234,-3.0234,-3.0488,-3.0898,-3.0898,-3.0898,-3.0898,-3.0898,-3.0898,-3.0898,-3.0898,-3.0898,-3.0898,-3.0918,-3.1191,-3.1601,-3.207,-3.248,-3.2871,-3.3301,-3.3418,-3.3418,-3.3418,-3.3418,-3.3418,-3.3418,-3.3418,-3.3418,-3.3418,-3.3418,-3.3418,-3.3418,-3.3418,-3.3418,-3.3418,-3.3418,-3.3418,-3.3418,-3.3418,-3.3437,-3.3457,-3.3457,-3.3457,-3.3496,-3.3867,-3.4101,-3.4101,-3.4902,-3.5391,-3.5391,-3.5781,-3.6016,-3.6016,-3.6016,-3.6016,-3.6016,-3.5625,-3.5625,-3.6016,-3.6016,-3.6016,-3.6016,-3.6016,-3.6016,0.0,0.0,0.0,-1.6129,-1.6915,0.0,0.0,0.0,0.0,0.0,0.0,0.0,0.0,0.0,0.0,0.0,0.0,0.0,0.0,0.0,0.0,0.0,0.0,0.0,0.0,0.0,0.0,0.0,0.0,0.0,-2.7891,-2.8144,-2.8301,-2.8301,-2.8301,-2.8301,-2.8301,-2.8301,-2.8301,-2.8301,-2.8301,-2.8301,-2.8301,-2.8301,-2.8379,-2.8516,-2.8672,-2.9141,-2.9805,-3.0078,-3.0293,-3.0469,-3.0781,-3.0898,-3.0898,-3.0898,-3.0898,-3.0898,-3.0898,-3.0898,-3.0898,-3.0898,-3.0996,-3.1191,-3.1621,-3.2051,-3.248,-3.291,-3.3203,-3.3418,-3.3418,-3.3418,-3.3418,-3.3418,-3.3418,-3.3418,-3.3418,-3.3418,-3.3418,-3.3418,-3.3418,-3.3418,-3.3418,-3.3418,-3.332,-3.3066,-3.3242,-3.332,-3.3047,-3.3262,-3.3418,-3.3418,-3.3555,-3.3652,-3.3652,-3.4199,-3.4668,-3.4922,-3.5371,-3.5742,-3.6016,-3.6016,-3.6016,-3.6016,-3.5605,-3.5469,-3.5605,-3.5312,-3.5332,-3.5605,-3.5605,-3.5762,-1.1013,0.0,0.0,0.0,0.0,0.0,0.0,0.0,0.0,0.0,0.0,0.0,0.0,0.0,0.0,0.0,0.0,0.0,0.0,0.0,0.0,0.0,0.0,0.0,0.0,0.0,0.0,0.0,0.0,0.0,-2.7441,-2.7715,-2.7871,-2.7871,-2.7871,-2.7871,-2.7871,-2.8008,-2.8086,-2.8086,-2.8223,-2.8301,-2.8301,-2.8301,-2.8301,-2.8301,-2.8301,-2.8691,-2.9375,-2.9648,-2.9863,-3.0039,-3.0488,-3.0664,-3.0684,-3.084,-3.0898,-3.0898,-3.0898,-3.0898,-3.0898,-3.0898,-3.0898,-3.0976,-3.1387,-3.1719,-3.207,-3.2637,-3.2988,-3.3242,-3.3379,-3.3418,-3.3418,-3.3418,-3.3418,-3.3418,-3.3418,-3.3418,-3.3418,-3.3418,-3.3418,-3.3418,-3.3418,-3.3418,-3.332,-3.3047,-3.3242,-3.332,-3.3047,-3.3242,-3.3418,-3.3418,-3.3418,-3.3418,-3.3418,-3.3828,-3.4199,-3.4473,-3.4902,-3.5351,-3.5801,-3.5664,-3.5644,-3.5801,-3.5234,-3.4941,-3.4941,-3.4785,-3.4863,-3.5156,-3.5156,-3.5391,0.0,0.0,0.0,0.0,0.0,0.0,0.0,0.0,0.0,0.0,0.0,0.0,0.0,0.0,0.0,0.0,0.0,0.0,0.0,0.0,0.0,0.0,0.0,0.0,0.0,0.0,0.0,0.0,0.0,-2.6992,-2.6992,-2.7012,-2.7012,-2.7012,-2.691,-2.691,-2.7012,-2.7441,-2.7656,-2.7676,-2.8086,-2.8281,-2.8301,-2.8301,-2.8301,-2.8301,-2.8301,-2.8516,-2.8906,-2.8906,-2.916,-2.959,-3.0019,-3.0195,-3.0254,-3.0723,-3.0898,-3.0898,-3.0898,-3.0898,-3.0898,-3.0898,-3.0898,-3.0957,-3.1367,-3.1504,-3.1699,-3.2539,-3.2793,-3.2891,-3.332,-3.3418,-3.3418,-3.3418,-3.3418,-3.3418,-3.3418,-3.3418,-3.3418,-3.3418,-3.3418,-3.3418,-3.3418,-3.3418,-3.3418,-3.3398,-3.3398,-3.3398,-3.3398,-3.3398,-3.3418,-3.3418,-3.3418,-3.3418,-3.3418,-3.3809,-3.4062,-3.4082,-3.4453,-3.4883,-3.5351,-3.4941,-3.4902,-3.5371,-3.4512,-3.4082,-3.4082,-3.4473,-3.4668,-3.4687,-3.4687,-3.4941,-1.01,0.0,0.0,0.0,0.0,0.0,0.0,0.0,0.0,0.0,0.0,0.0,0.0,0.0,0.0,0.0,0.0,0.0,0.0,0.0,0.0,0.0,0.0,0.0,0.0,0.0,0.0,0.0,-2.6387,-2.6562,-2.6562,-2.6855,-2.7012,-2.7012,-2.605,-2.605,-2.7012,-2.6163,-2.6371,-2.7676,-2.7793,-2.7988,-2.8301,-2.8301,-2.8301,-2.8301,-2.8301,-2.8359,-2.8496,-2.8789,-2.8984,-2.918,-2.9902,-3.0195,-3.0254,-3.0723,-3.0898,-3.0898,-3.0898,-3.0898,-3.0898,-3.0898,-3.0898,-3.0918,-3.1035,-3.1269,-3.1641,-3.2187,-3.2559,-3.2891,-3.332,-3.3418,-3.3418,-3.3418,-3.3418,-3.3418,-3.3418,-3.3418,-3.3418,-3.3418,-3.3418,-3.3418,-3.3418,-3.3418,-3.332,-3.3008,-3.2969,-3.2969,-3.2969,-3.2969,-3.3086,-3.3379,-3.3418,-3.3418,-3.3418,-3.3535,-3.373,-3.4062,-3.418,-3.4434,-3.4883,-3.4766,-3.4766,-3.4883,-3.4355,-3.4082,-3.4082,-3.3867,-3.3926,-3.4258,-3.4551,-3.4941,-1.0336,-1.1731,-1.3355,0.0,0.0,0.0,0.0,-1.5407,0.0,0.0,0.0,0.0,0.0,0.0,0.0,0.0,0.0,0.0,0.0,0.0,0.0,0.0,0.0,0.0,0.0,0.0,0.0,-2.5762,-2.5977,-2.6113,-2.6113,-2.6348,-2.6484,-2.6484,-2.5743,-2.5642,-2.6484,-2.5914,-2.6123,-2.7129,-2.7305,-2.7617,-2.8027,-2.8027,-2.8125,-2.8301,-2.7618,-2.7726,-2.832,-2.7886,-2.809,-2.873,-2.9394,-2.9785,-3.0,-3.043,-3.0723,-3.0898,-3.0898,-3.0898,-3.0898,-3.0898,-3.0898,-3.0898,-3.0898,-3.1055,-3.1348,-3.1777,-3.2324,-3.2851,-3.3105,-3.3281,-3.3418,-3.3418,-3.3418,-3.3418,-3.3418,-3.3418,-3.3418,-3.3418,-3.3418,-3.3418,-3.3418,-3.3418,-3.334,-3.3086,-3.3066,-3.3066,-3.3066,-3.3066,-3.3144,-3.3398,-3.3418,-3.3418,-3.3418,-3.3418,-3.3535,-3.3789,-3.3809,-3.3984,-3.4414,-3.4258,-3.4258,-3.4434,-3.4023,-3.3809,-3.3809,-3.3535,-3.3555,-3.3809,-3.4043,-3.4414,-1.0367,-1.1522,-1.3149,-1.3947,-1.3761,0.0,-1.5763,-1.5103,0.0,0.0,0.0,0.0,0.0,0.0,0.0,0.0,0.0,0.0,0.0,0.0,0.0,0.0,0.0,0.0,0.0,-2.5625,-2.5664,-2.5664,-2.5703,-2.5742,-2.5742,-2.5742,-2.5742,-2.5742,-2.5547,-2.5528,-2.5742,-2.6014,-2.6229,-2.6387,-2.6758,-2.7168,-2.7598,-2.7637,-2.7871,-2.8116,-2.6915,-2.706,-2.8174,-2.6825,-2.7168,-2.834,-2.875,-2.916,-2.9551,-3.0019,-3.0449,-3.082,-3.0879,-3.0898,-3.0898,-3.0898,-3.0898,-3.0898,-3.0898,-3.0898,-3.0976,-3.1406,-3.2109,-3.2734,-3.2734,-3.3047,-3.3359,-3.3359,-3.3379,-3.3418,-3.3418,-3.3418,-3.3418,-3.3418,-3.3418,-3.3418,-3.3418,-3.3418,-3.3418,-3.3418,-3.3379,-3.3379,-3.3418,-3.3379,-3.3379,-3.3418,-3.3418,-3.3418,-3.3418,-3.3418,-3.3418,-3.3418,-3.3418,-3.3594,-3.3984,-3.3633,-3.3613,-3.3984,-3.3613,-3.3418,-3.3418,-3.3418,-3.3418,-3.3418,-3.3418,-3.3652,-1.0915,-1.2318,-1.3704,-1.3214,0.0,0.0,-1.4881,-1.513,0.0,0.0,0.0,0.0,0.0,0.0,0.0,0.0,0.0,0.0,0.0,0.0,0.0,0.0,0.0,0.0,0.0,-2.5,-2.5195,-2.5195,-2.5527,-2.5742,-2.5742,-2.5742,-2.5742,-2.5742,-2.4609,-2.4609,-2.5742,-2.4684,-2.5008,-2.6387,-2.6465,-2.6738,-2.7148,-2.75,-2.7715,-2.7812,-2.7806,-2.8067,-2.8301,-2.796,-2.8067,-2.834,-2.875,-2.8965,-2.9141,-2.9902,-3.0254,-3.0391,-3.0762,-3.0898,-3.0898,-3.0898,-3.0898,-3.0898,-3.0898,-3.0898,-3.0976,-3.1406,-3.1894,-3.2285,-3.2285,-3.2598,-3.291,-3.291,-3.3184,-3.3418,-3.3418,-3.3418,-3.3418,-3.3418,-3.3418,-3.3418,-3.3418,-3.3418,-3.3418,-3.3418,-3.3125,-3.3047,-3.3379,-3.3125,-3.3047,-3.3379,-3.3418,-3.3418,-3.3418,-3.3418,-3.3418,-3.3418,-3.3418,-3.3457,-3.3535,-3.3476,-3.3457,-3.3535,-3.3457,-3.3418,-3.3418,-3.3418,-3.3418,-3.3418,-3.3418,-3.3652,-1.2206,-1.3209,-1.438,-1.4609,0.0,0.0,0.0,0.0,0.0,0.0,0.0,0.0,0.0,0.0,0.0,0.0,0.0,0.0,0.0,0.0,0.0,0.0,0.0,0.0,0.0,-2.4609,-2.4746,-2.4746,-2.4961,-2.5176,-2.5391,-2.541,-2.5508,-2.5723,-2.502,-2.502,-2.5742,-2.502,-2.5115,-2.6074,-2.5343,-2.5653,-2.6699,-2.618,-2.6607,-2.7676,-2.7093,-2.7428,-2.8281,-2.7511,-2.7618,-2.832,-2.8516,-2.873,-2.8965,-2.9394,-2.9824,-3.0234,-3.0469,-3.0703,-3.0898,-3.0898,-3.0898,-3.0898,-3.0898,-3.0898,-3.0937,-3.1152,-3.1504,-3.1836,-3.1836,-3.2168,-3.2539,-3.2734,-3.2949,-3.3164,-3.3379,-3.3418,-3.3418,-3.3418,-3.3418,-3.3418,-3.3418,-3.3418,-3.3418,-3.3418,-3.3242,-3.3184,-3.3398,-3.3242,-3.3184,-3.3398,-3.3418,-3.3418,-3.3418,-3.3418,-3.3418,-3.3418,-3.3418,-3.3418,-3.3418,-3.3418,-3.3418,-3.3418,-3.3418,-3.3418,-3.3418,-3.3418,-3.3418,-3.3418,-3.3418,-3.3535,0.0,0.0,0.0,0.0,0.0,-1.6374,0.0,0.0,0.0,0.0,0.0,0.0,0.0,0.0,0.0,0.0,0.0,0.0,0.0,0.0,0.0,0.0,0.0,0.0,0.0,-2.3984,-2.4062,-2.4394,-2.4199,-2.4316,-2.4902,-2.4941,-2.5156,-2.5586,-2.5605,-2.5644,-2.5742,-2.5742,-2.5742,-2.5645,-2.4609,-2.4678,-2.5852,-2.5069,-2.5582,-2.6987,-2.6157,-2.6736,-2.8058,-2.7023,-2.7276,-2.8301,-2.8301,-2.8496,-2.8809,-2.8887,-2.9355,-2.998,-3.0137,-3.0449,-3.0762,-3.0859,-3.0898,-3.0898,-3.0898,-3.0898,-3.0898,-3.0898,-3.1133,-3.1406,-3.1406,-3.1719,-3.2129,-3.2461,-3.2617,-3.2793,-3.3203,-3.3301,-3.332,-3.3398,-3.3418,-3.3418,-3.3418,-3.3418,-3.3418,-3.3418,-3.3418,-3.3418,-3.3418,-3.3418,-3.3418,-3.3418,-3.3418,-3.3418,-3.3418,-3.3418,-3.3418,-3.3418,-3.3418,-3.3418,-3.3418,-3.3418,-3.3418,-3.3418,-3.3418,-3.3418,-3.3418,-3.3418,-3.3418,-3.3418,-3.3418,-3.3418,0.0,0.0,0.0,0.0,-1.8316,0.0,0.0,0.0,0.0,0.0,0.0,0.0,0.0,0.0,0.0,0.0,0.0,0.0,0.0,0.0,0.0,0.0,0.0,0.0,0.0,0.0,-2.2793,-2.4297,-2.3359,-2.3242,-2.4434,-2.4492,-2.4687,-2.5137,-2.5137,-2.5332,-2.5742,-2.5742,-2.5742,-2.5742,-2.5528,-2.4941,-2.4071,-2.5477,-2.5585,-2.4765,-2.6683,-2.7571,-2.7773,-2.8019,-2.8174,-2.8301,-2.8301,-2.832,-2.8398,-2.8789,-2.8984,-2.918,-2.9941,-3.0234,-3.0351,-3.0762,-3.0898,-3.0898,-3.0898,-3.0898,-3.0898,-3.0898,-3.0918,-3.0957,-3.0957,-3.1269,-3.1601,-3.166,-3.1953,-3.2363,-3.2773,-3.2871,-3.2969,-3.334,-3.3418,-3.3418,-3.3418,-3.3418,-3.3418,-3.3418,-3.3418,-3.3418,-3.3418,-3.3418,-3.3418,-3.3418,-3.3418,-3.3418,-3.3418,-3.3418,-3.3418,-3.3418,-3.3418,-3.3418,-3.3418,-3.3418,-3.3418,-3.3418,-3.3418,-3.3418,-3.3418,-3.3418,-3.3418,-3.3418,-3.3418,-3.3418,0.0,0.0,0.0,0.0,0.0,0.0,-1.6573,0.0,-1.5879,0.0,0.0,0.0,0.0,0.0,0.0,0.0,0.0,0.0,0.0,0.0,0.0,0.0,0.0,0.0,0.0,0.0,0.0,0.0,0.0,-2.2051,-2.3613,-2.3672,-2.3984,-2.4668,-2.4941,-2.5156,-2.5352,-2.5605,-2.5742,-2.5742,-2.4922,-2.4609,-2.4824,-2.4796,-2.5102,-2.5566,-2.6555,-2.7207,-2.7676,-2.7851,-2.8066,-2.8301,-2.8301,-2.8301,-2.832,-2.8496,-2.8711,-2.8965,-2.9336,-2.9785,-3.0273,-3.0742,-3.0898,-3.0898,-3.0898,-3.0898,-3.0898,-3.0898,-3.0898,-3.0898,-3.0898,-3.1016,-3.1211,-3.1465,-3.166,-3.1973,-3.2656,-3.2793,-3.293,-3.334,-3.3418,-3.3418,-3.3418,-3.3418,-3.3418,-3.3418,-3.3418,-3.3418,-3.3418,-3.3418,-3.3418,-3.3418,-3.3418,-3.3418,-3.3418,-3.3418,-3.3418,-3.3418,-3.3418,-3.3418,-3.3418,-3.3418,-3.3418,-3.3418,-3.3418,-3.3418,-3.3418,-3.3418,-3.3418,-3.3418,-3.3418,-3.3418,-1.6939,0.0,0.0,0.0,0.0,0.0,0.0,0.0,0.0,0.0,0.0,0.0,0.0,0.0,0.0,0.0,0.0,0.0,0.0,0.0,0.0,0.0,0.0,0.0,0.0,0.0,0.0,0.0,0.0,0.0,-2.2891,-2.2969,-2.3359,-2.4219,-2.4551,-2.4824,-2.5059,-2.5391,-2.5605,-2.5645,-2.4707,-2.4609,-2.5118,-2.451,-2.4777,-2.5695,-2.6229,-2.6738,-2.7344,-2.7559,-2.7851,-2.8125,-2.8242,-2.8301,-2.8301,-2.8301,-2.8476,-2.8769,-2.8887,-2.9473,-3.0254,-3.0586,-3.0781,-3.0898,-3.0898,-3.0898,-3.0898,-3.0898,-3.0898,-3.0898,-3.0898,-3.0898,-3.0957,-3.1269,-3.1348,-3.1543,-3.2285,-3.2539,-3.2754,-3.3164,-3.334,-3.3418,-3.3418,-3.3418,-3.3418,-3.3418,-3.3418,-3.3418,-3.3418,-3.3418,-3.3418,-3.3418,-3.3418,-3.3418,-3.3418,-3.3418,-3.3418,-3.3418,-3.3418,-3.3418,-3.3418,-3.3418,-3.3418,-3.3418,-3.3418,-3.3418,-3.3418,-3.3418,-3.3418,-3.3418,-3.3418,-3.3418,0.0,0.0,0.0,-1.7605,0.0,0.0,0.0,0.0,-1.7187,0.0,0.0,0.0,0.0,0.0,-1.7012,-1.6233,0.0,0.0,0.0,0.0,0.0,0.0,0.0,0.0,0.0,0.0,0.0,0.0,-1.9668,0.0,-2.2402,-2.2539,-2.293,-2.3789,-2.3828,-2.4238,-2.5059,-2.5078,-2.5312,-2.5742,-2.5645,-2.502,-2.38,-2.502,-2.4922,-2.3836,-2.5676,-2.6406,-2.6484,-2.7324,-2.7676,-2.7734,-2.8125,-2.8301,-2.8301,-2.8301,-2.8301,-2.8379,-2.8769,-2.9473,-3.0195,-3.0215,-3.0527,-3.0898,-3.0898,-3.0898,-3.0898,-3.0898,-3.0898,-3.0898,-3.0898,-3.0898,-3.0898,-3.0918,-3.0918,-3.1035,-3.1465,-3.1894,-3.2305,-3.2734,-3.3144,-3.3418,-3.3418,-3.3418,-3.3418,-3.3418,-3.3418,-3.3418,-3.3418,-3.3418,-3.3418,-3.3418,-3.3418,-3.3418,-3.3418,-3.3418,-3.3418,-3.3418,-3.3418,-3.3418,-3.3418,-3.3418,-3.3418,-3.3418,-3.3418,-3.3418,-3.3418,-3.3418,-3.3418,-3.3418,-3.3418,-3.3418,0.0,0.0,-1.682,-1.8357,0.0,0.0,0.0,0.0,0.0,0.0,0.0,0.0,0.0,0.0,-1.709,-1.6272,-1.6115,0.0,0.0,0.0,0.0,0.0,0.0,0.0,0.0,0.0,0.0,-1.9863,-1.9141,-1.9648,0.0,-2.209,-2.248,-2.334,-2.3633,-2.3926,-2.4219,-2.4785,-2.5137,-2.5293,-2.5605,-2.543,-2.502,-2.5528,-2.543,-2.5039,-2.5683,-2.6113,-2.6406,-2.6699,-2.7148,-2.7676,-2.7812,-2.8047,-2.8301,-2.8301,-2.8301,-2.8359,-2.8769,-2.9101,-2.9434,-3.0019,-3.0293,-3.0488,-3.0801,-3.0898,-3.0898,-3.0898,-3.0898,-3.0898,-3.0898,-3.0898,-3.0898,-3.0898,-3.0898,-3.0996,-3.1426,-3.1641,-3.1953,-3.2656,-3.291,-3.3105,-3.3379,-3.3418,-3.3418,-3.3418,-3.3418,-3.3418,-3.3418,-3.3418,-3.3418,-3.3418,-3.3418,-3.3418,-3.3418,-3.3418,-3.3418,-3.3418,-3.3418,-3.3418,-3.3418,-3.3418,-3.3418,-3.3418,-3.3418,-3.3418,-3.3418,-3.3418,-3.3418,-3.3418,-3.3418,-3.3418,-1.6828,-1.6469,0.0,-1.7895,-1.7038,0.0,-1.7149,0.0,0.0,0.0,0.0,0.0,0.0,0.0,0.0,-1.6894,-1.623,-1.5234,0.0,0.0,0.0,0.0,0.0,0.0,0.0,0.0,-1.7773,-1.8965,-1.8379,-1.8965,0.0,0.0,-2.2207,-2.2891,-2.334,-2.3633,-2.3789,-2.4492,-2.4922,-2.5078,-2.5527,-2.5742,-2.5742,-2.5742,-2.5742,-2.5742,-2.5742,-2.5898,-2.6172,-2.6328,-2.6797,-2.7441,-2.7598,-2.793,-2.8301,-2.8301,-2.8301,-2.834,-2.8594,-2.8789,-2.9004,-2.957,-2.9941,-3.0254,-3.0547,-3.0762,-3.0898,-3.0898,-3.0898,-3.0898,-3.0898,-3.0898,-3.0898,-3.0898,-3.0898,-3.0957,-3.123,-3.1406,-3.168,-3.2226,-3.2578,-3.2871,-3.3144,-3.332,-3.3418,-3.3418,-3.3418,-3.3418,-3.3418,-3.3418,-3.3418,-3.3418,-3.3418,-3.3418,-3.3418,-3.3418,-3.3418,-3.3418,-3.3418,-3.3418,-3.3418,-3.3418,-3.3418,-3.3418,-3.3418,-3.3418,-3.3418,-3.3418,-3.3418,-3.3418,-3.3418,-3.3418]},{"header":{"parameterUnit":"m.s-1","parameterCategory":1,"la1":30.6,"la2":29.2853,"lo1":-89.7004,"lo2":-87.6739,"dy":0.0162,"dx":0.0183,"nx":112,"ny":82,"refTime":"2026-02-18T12:00:00:Z","depth":0,"parameterNumber":3,"parameterNumberName":"V-component_of_WINDS"},"data":[0.0,0.0,0.0,0.0,0.0,0.0,0.0,0.0,0.0,0.0,0.0,0.0,0.0,0.0,0.0,0.0,0.0,0.0,0.0,0.0,0.0,0.0,0.0,0.0,0.0,0.0,0.0,0.0,0.0,0.0,0.0,0.0,0.0,0.0,0.0,0.0,0.0,0.0,0.0,0.0,0.0,0.0,0.0,0.0,0.0,0.0,0.0,0.0,0.0,0.0,0.0,0.0,0.0,0.0,0.0,0.0,0.0,0.0,0.0,0.0,0.0,0.0,0.0,0.0,0.0,0.0,0.0,0.0,0.0,0.0,0.0,0.0,0.0,0.0,0.0,0.0,0.0,0.0,0.0,0.0,0.0,0.0,0.0,0.0,0.0,0.0,0.0,0.0,0.0,0.0,-4.1211,-4.5703,-5.1641,-5.4961,-5.4062,-5.375,-5.0438,-4.2976,0.0,0.0,0.0,0.0,0.0,0.0,0.0,0.0,0.0,0.0,0.0,0.0,0.0,0.0,0.0,0.0,0.0,0.0,0.0,0.0,0.0,0.0,0.0,0.0,0.0,0.0,0.0,0.0,0.0,0.0,0.0,0.0,0.0,0.0,0.0,0.0,0.0,0.0,0.0,0.0,0.0,0.0,0.0,0.0,0.0,0.0,0.0,0.0,0.0,0.0,0.0,0.0,0.0,0.0,0.0,0.0,0.0,0.0,0.0,0.0,0.0,0.0,0.0,0.0,0.0,0.0,0.0,0.0,0.0,0.0,0.0,0.0,0.0,0.0,0.0,0.0,0.0,0.0,0.0,0.0,0.0,0.0,0.0,0.0,0.0,0.0,0.0,0.0,0.0,0.0,0.0,0.0,0.0,0.0,0.0,0.0,0.0,0.0,0.0,0.0,0.0,0.0,0.0,0.0,-4.125,-5.0547,-5.3789,-5.4961,-5.4062,-5.2656,-4.938,-4.3763,0.0,0.0,0.0,0.0,0.0,0.0,0.0,0.0,0.0,0.0,0.0,0.0,0.0,0.0,0.0,0.0,0.0,0.0,0.0,0.0,0.0,0.0,0.0,0.0,0.0,0.0,0.0,0.0,0.0,0.0,0.0,0.0,0.0,0.0,0.0,0.0,0.0,0.0,0.0,0.0,0.0,0.0,0.0,0.0,0.0,0.0,0.0,0.0,0.0,0.0,0.0,0.0,0.0,0.0,0.0,0.0,0.0,0.0,0.0,0.0,0.0,0.0,0.0,0.0,0.0,0.0,0.0,0.0,0.0,0.0,0.0,0.0,0.0,0.0,0.0,0.0,0.0,0.0,0.0,0.0,0.0,0.0,0.0,0.0,0.0,0.0,0.0,0.0,0.0,0.0,0.0,0.0,0.0,0.0,0.0,0.0,0.0,0.0,0.0,0.0,0.0,0.0,0.0,-4.0156,-4.418,-5.125,-5.3555,-5.4258,-5.3359,-5.1719,-4.8694,-4.3841,-3.9431,0.0,0.0,0.0,0.0,0.0,0.0,0.0,0.0,0.0,0.0,0.0,0.0,0.0,0.0,0.0,0.0,0.0,0.0,0.0,0.0,0.0,0.0,0.0,0.0,0.0,0.0,0.0,0.0,0.0,0.0,0.0,0.0,0.0,0.0,0.0,0.0,0.0,0.0,0.0,0.0,0.0,0.0,0.0,0.0,0.0,0.0,0.0,0.0,0.0,0.0,0.0,0.0,0.0,0.0,0.0,0.0,0.0,0.0,0.0,0.0,0.0,0.0,0.0,0.0,0.0,0.0,0.0,0.0,0.0,0.0,0.0,0.0,0.0,0.0,0.0,0.0,0.0,0.0,0.0,0.0,0.0,0.0,0.0,0.0,0.0,0.0,0.0,0.0,0.0,0.0,0.0,0.0,0.0,0.0,0.0,0.0,0.0,0.0,0.0,0.0,0.0,0.0,-4.4207,-4.758,-5.1238,-5.2997,-5.3544,-5.2685,-5.0502,-4.7471,-4.345,-3.7936,0.0,0.0,0.0,0.0,0.0,0.0,0.0,0.0,0.0,0.0,0.0,0.0,0.0,0.0,0.0,0.0,0.0,0.0,0.0,0.0,0.0,0.0,0.0,0.0,0.0,0.0,0.0,0.0,0.0,0.0,0.0,0.0,0.0,0.0,0.0,0.0,0.0,0.0,0.0,0.0,0.0,0.0,0.0,0.0,0.0,0.0,0.0,0.0,0.0,0.0,0.0,0.0,0.0,0.0,0.0,0.0,0.0,0.0,0.0,0.0,0.0,0.0,0.0,0.0,0.0,0.0,0.0,0.0,0.0,0.0,0.0,0.0,0.0,0.0,0.0,0.0,0.0,0.0,0.0,0.0,0.0,0.0,0.0,0.0,0.0,0.0,0.0,0.0,0.0,0.0,0.0,0.0,0.0,0.0,0.0,0.0,0.0,0.0,0.0,0.0,0.0,0.0,-4.5109,-5.031,-5.2038,-5.3078,-5.3273,-5.2407,-4.8607,-4.511,-4.2379,-3.583,0.0,0.0,0.0,0.0,0.0,0.0,0.0,0.0,0.0,0.0,0.0,0.0,0.0,0.0,0.0,0.0,0.0,0.0,0.0,0.0,0.0,0.0,0.0,0.0,0.0,0.0,0.0,0.0,0.0,0.0,0.0,0.0,0.0,0.0,0.0,0.0,0.0,0.0,0.0,0.0,0.0,0.0,0.0,0.0,0.0,0.0,0.0,0.0,0.0,0.0,0.0,0.0,0.0,0.0,0.0,0.0,0.0,0.0,0.0,0.0,0.0,0.0,0.0,0.0,0.0,0.0,0.0,0.0,0.0,0.0,0.0,0.0,0.0,0.0,0.0,0.0,0.0,0.0,0.0,0.0,0.0,0.0,0.0,0.0,0.0,0.0,0.0,0.0,0.0,0.0,0.0,0.0,0.0,0.0,0.0,0.0,0.0,0.0,0.0,0.0,0.0,0.0,-4.3561,-4.7894,0.0,-5.1834,-5.1912,-5.1563,-4.9117,-4.5979,-4.2264,0.0,0.0,0.0,0.0,0.0,0.0,0.0,0.0,0.0,0.0,0.0,0.0,0.0,0.0,0.0,0.0,0.0,0.0,0.0,0.0,0.0,0.0,0.0,0.0,0.0,0.0,0.0,0.0,0.0,0.0,0.0,0.0,0.0,0.0,0.0,0.0,0.0,0.0,0.0,0.0,0.0,0.0,0.0,0.0,0.0,0.0,0.0,0.0,0.0,0.0,0.0,0.0,0.0,0.0,0.0,0.0,0.0,0.0,0.0,0.0,0.0,0.0,0.0,0.0,0.0,0.0,0.0,0.0,0.0,0.0,0.0,0.0,0.0,0.0,0.0,0.0,0.0,0.0,0.0,0.0,0.0,0.0,0.0,0.0,0.0,0.0,0.0,0.0,0.0,0.0,0.0,0.0,0.0,0.0,0.0,0.0,0.0,0.0,0.0,0.0,0.0,0.0,-3.9047,-4.3235,-4.7223,0.0,-5.1376,-5.1491,-5.1761,-4.9182,-4.5851,-4.1801,0.0,0.0,0.0,0.0,0.0,0.0,0.0,0.0,0.0,0.0,0.0,0.0,0.0,0.0,0.0,0.0,0.0,0.0,0.0,0.0,0.0,0.0,0.0,0.0,0.0,0.0,0.0,0.0,0.0,0.0,0.0,0.0,0.0,0.0,0.0,0.0,0.0,0.0,0.0,0.0,0.0,0.0,0.0,0.0,0.0,0.0,0.0,0.0,0.0,0.0,0.0,0.0,0.0,0.0,0.0,0.0,0.0,0.0,0.0,0.0,0.0,0.0,0.0,0.0,0.0,0.0,0.0,0.0,0.0,0.0,0.0,0.0,0.0,0.0,0.0,0.0,0.0,0.0,0.0,0.0,0.0,0.0,0.0,0.0,0.0,0.0,0.0,0.0,0.0,0.0,0.0,0.0,0.0,0.0,0.0,0.0,0.0,0.0,0.0,0.0,0.0,0.0,-3.9106,-4.463,-4.926,-5.1664,-5.1933,-5.2279,-5.3126,-4.8548,-4.4201,0.0,0.0,0.0,0.0,0.0,0.0,0.0,0.0,0.0,0.0,0.0,0.0,0.0,0.0,0.0,0.0,0.0,0.0,0.0,0.0,0.0,0.0,0.0,0.0,0.0,0.0,0.0,0.0,0.0,0.0,0.0,0.0,0.0,0.0,0.0,0.0,0.0,0.0,0.0,0.0,0.0,0.0,0.0,0.0,0.0,0.0,0.0,0.0,0.0,0.0,0.0,0.0,0.0,0.0,0.0,0.0,0.0,0.0,0.0,0.0,0.0,0.0,0.0,0.0,0.0,0.0,0.0,0.0,0.0,0.0,0.0,0.0,0.0,0.0,0.0,0.0,0.0,0.0,0.0,0.0,0.0,0.0,0.0,0.0,0.0,0.0,0.0,0.0,0.0,0.0,0.0,0.0,0.0,0.0,0.0,0.0,0.0,0.0,0.0,0.0,0.0,0.0,0.0,-4.0756,-4.6339,-5.0702,-5.2626,-5.2818,-5.2933,-5.3164,-5.0164,-4.6047,-4.0854,0.0,0.0,0.0,0.0,0.0,0.0,0.0,0.0,0.0,0.0,0.0,0.0,0.0,0.0,0.0,0.0,0.0,0.0,0.0,0.0,0.0,0.0,0.0,0.0,0.0,0.0,0.0,0.0,0.0,0.0,0.0,0.0,0.0,0.0,0.0,0.0,0.0,0.0,0.0,0.0,0.0,0.0,0.0,0.0,0.0,0.0,0.0,0.0,0.0,0.0,0.0,0.0,0.0,0.0,0.0,0.0,0.0,0.0,0.0,0.0,0.0,0.0,0.0,0.0,0.0,0.0,0.0,0.0,0.0,0.0,0.0,0.0,0.0,0.0,0.0,0.0,0.0,0.0,0.0,0.0,0.0,0.0,0.0,0.0,0.0,0.0,0.0,0.0,0.0,0.0,0.0,0.0,0.0,0.0,0.0,0.0,0.0,0.0,0.0,0.0,0.0,0.0,-4.1404,-4.6722,-5.0971,-5.2972,-5.3203,-5.3356,-5.3703,-5.1395,-4.7509,-4.1893,0.0,0.0,0.0,0.0,0.0,0.0,0.0,0.0,0.0,0.0,0.0,0.0,0.0,0.0,0.0,0.0,0.0,0.0,0.0,0.0,0.0,0.0,0.0,0.0,0.0,0.0,0.0,0.0,0.0,0.0,0.0,0.0,0.0,0.0,0.0,0.0,0.0,0.0,0.0,0.0,0.0,0.0,0.0,0.0,0.0,0.0,0.0,0.0,0.0,0.0,0.0,0.0,0.0,0.0,0.0,0.0,0.0,0.0,0.0,0.0,0.0,0.0,0.0,0.0,0.0,0.0,0.0,0.0,0.0,0.0,0.0,0.0,0.0,0.0,0.0,0.0,0.0,0.0,0.0,0.0,0.0,0.0,0.0,0.0,0.0,0.0,0.0,0.0,0.0,0.0,0.0,0.0,0.0,0.0,0.0,0.0,0.0,0.0,0.0,0.0,0.0,0.0,-4.1393,-4.6394,-5.0548,-5.2933,-5.3203,-5.3549,-5.4434,-5.2164,-4.8548,-4.3475,0.0,0.0,0.0,0.0,0.0,0.0,0.0,0.0,0.0,0.0,0.0,0.0,0.0,0.0,0.0,0.0,0.0,0.0,0.0,0.0,0.0,0.0,0.0,0.0,0.0,0.0,0.0,0.0,0.0,0.0,0.0,0.0,0.0,0.0,0.0,0.0,0.0,0.0,0.0,0.0,0.0,0.0,0.0,0.0,0.0,0.0,0.0,0.0,0.0,0.0,0.0,0.0,0.0,0.0,0.0,0.0,0.0,0.0,0.0,0.0,-3.9376,0.0,0.0,0.0,0.0,0.0,0.0,0.0,0.0,0.0,0.0,0.0,0.0,0.0,0.0,0.0,0.0,0.0,0.0,0.0,0.0,0.0,0.0,0.0,0.0,0.0,0.0,0.0,0.0,0.0,0.0,0.0,0.0,0.0,0.0,0.0,0.0,0.0,0.0,0.0,0.0,0.0,-4.147,-4.7394,-5.1856,-5.3087,-5.3203,-5.3549,-5.4434,-5.2164,-4.8721,-4.4039,-3.96,0.0,0.0,0.0,0.0,0.0,0.0,0.0,0.0,0.0,0.0,0.0,0.0,0.0,0.0,0.0,0.0,0.0,0.0,0.0,0.0,0.0,0.0,0.0,0.0,0.0,0.0,0.0,0.0,0.0,0.0,0.0,0.0,0.0,0.0,0.0,0.0,0.0,0.0,0.0,0.0,0.0,0.0,0.0,0.0,0.0,0.0,0.0,0.0,0.0,0.0,0.0,0.0,0.0,0.0,0.0,0.0,0.0,0.0,0.0,0.0,-4.2375,0.0,0.0,0.0,0.0,0.0,0.0,0.0,0.0,0.0,0.0,0.0,0.0,0.0,0.0,0.0,0.0,0.0,0.0,0.0,0.0,0.0,0.0,0.0,0.0,0.0,0.0,0.0,0.0,0.0,0.0,0.0,0.0,0.0,0.0,0.0,0.0,0.0,0.0,0.0,0.0,-4.2047,-4.7472,-5.1338,-5.2203,-5.2141,-5.2234,-5.2679,-5.077,-4.8372,-4.5594,-4.0675,0.0,0.0,0.0,0.0,0.0,0.0,0.0,0.0,0.0,0.0,0.0,0.0,0.0,0.0,0.0,0.0,0.0,0.0,0.0,0.0,0.0,0.0,0.0,0.0,0.0,0.0,0.0,0.0,0.0,0.0,0.0,0.0,0.0,0.0,0.0,0.0,0.0,0.0,0.0,0.0,0.0,0.0,0.0,0.0,0.0,0.0,0.0,0.0,0.0,0.0,0.0,0.0,0.0,-5.1357,-5.2753,-5.4264,-5.4264,-5.4969,-5.5935,-5.1369,-4.9273,-4.8875,0.0,0.0,0.0,0.0,0.0,0.0,0.0,0.0,0.0,0.0,0.0,0.0,0.0,0.0,0.0,0.0,0.0,0.0,0.0,0.0,0.0,0.0,0.0,0.0,0.0,-4.5266,-4.5148,0.0,0.0,0.0,0.0,0.0,0.0,0.0,0.0,0.0,0.0,0.0,0.0,-4.2504,-4.7051,-5.0266,-5.0913,-5.0723,-5.0627,-5.0778,-4.9381,-4.8042,-4.7015,-4.2145,-3.8089,0.0,0.0,0.0,0.0,0.0,0.0,0.0,0.0,0.0,0.0,0.0,0.0,0.0,0.0,0.0,0.0,0.0,0.0,0.0,0.0,0.0,0.0,0.0,0.0,0.0,0.0,0.0,0.0,0.0,0.0,0.0,0.0,-3.612,-3.6708,0.0,0.0,0.0,0.0,0.0,0.0,0.0,0.0,0.0,0.0,0.0,0.0,0.0,-4.8132,-4.9738,-5.3365,-5.5632,-5.6587,-5.9229,-6.1041,-6.2127,-6.2127,-6.269,-6.3646,-6.2913,0.0,-5.2818,-5.0913,0.0,0.0,0.0,0.0,0.0,0.0,0.0,0.0,0.0,0.0,0.0,0.0,0.0,0.0,0.0,0.0,0.0,0.0,0.0,0.0,0.0,0.0,-5.1239,-4.9875,-5.0375,-5.0545,0.0,-4.3254,-3.8208,-3.5307,-3.3659,0.0,0.0,0.0,0.0,0.0,0.0,0.0,-4.1827,-4.649,-4.9599,-4.9741,-4.9683,-4.9956,-5.0741,-4.9881,-4.8558,-4.6756,-4.4565,-4.1779,-3.8295,-3.5653,0.0,0.0,0.0,0.0,0.0,0.0,0.0,0.0,0.0,0.0,0.0,0.0,0.0,0.0,0.0,0.0,0.0,0.0,0.0,0.0,0.0,0.0,0.0,0.0,0.0,0.0,0.0,0.0,0.0,-3.4923,-3.8329,-3.8128,-3.9783,-3.9516,0.0,0.0,0.0,0.0,0.0,0.0,0.0,0.0,0.0,-5.1154,-5.287,-5.4626,-5.6499,-5.9613,-6.1645,-6.249,-6.4359,-6.5716,-6.6563,-6.6574,-6.6883,-6.7408,-6.7384,-6.5273,-6.15,-5.7188,-5.3204,-4.956,0.0,0.0,0.0,0.0,-4.5888,-4.6581,-4.9257,-4.9874,0.0,-4.8582,0.0,0.0,0.0,0.0,0.0,0.0,0.0,0.0,0.0,0.0,0.0,-5.3411,-5.4096,-5.4296,-5.2798,-4.9641,-4.5603,0.0,-3.8438,-3.638,-3.2481,0.0,0.0,0.0,0.0,-4.0722,-4.3114,-4.6786,-4.9171,-4.9171,-4.8982,-4.8962,-4.9368,-4.8624,-4.7779,-4.694,-4.4942,-4.3033,-4.1442,-3.8615,-3.5789,0.0,0.0,0.0,0.0,0.0,0.0,0.0,0.0,0.0,0.0,0.0,0.0,0.0,0.0,0.0,0.0,0.0,0.0,0.0,0.0,0.0,0.0,0.0,0.0,0.0,0.0,0.0,0.0,-3.8138,-4.0962,-3.9782,-4.2677,-4.3104,0.0,0.0,0.0,0.0,0.0,0.0,-5.0012,-5.081,-5.3098,-5.7276,-5.9064,-6.0751,-6.2574,-6.4792,-6.6352,-6.7166,-6.7978,-6.8791,-6.9617,-6.9614,-6.9731,-6.9913,-6.9913,-6.9484,-6.8351,-6.2577,-5.8459,-5.5578,-5.2972,-5.1484,-5.0938,-5.2022,-5.2587,-5.3235,-5.6518,-5.7255,-5.6483,-5.4968,0.0,-4.8932,-4.4883,0.0,0.0,0.0,0.0,-4.7365,-5.0312,-5.2575,-5.443,-5.589,-5.6719,-5.6836,-5.5491,-5.4096,-5.1322,0.0,-4.3217,-4.0912,-3.632,0.0,0.0,0.0,0.0,-4.2388,-4.4607,-4.7127,-4.8744,-4.8744,-4.8495,-4.8306,-4.8306,-4.7755,-4.7241,-4.6838,-4.5296,-4.4232,-4.3828,-4.1515,-3.9093,-3.6604,0.0,0.0,0.0,0.0,0.0,0.0,0.0,0.0,0.0,0.0,0.0,0.0,0.0,0.0,0.0,0.0,0.0,0.0,0.0,0.0,0.0,0.0,0.0,0.0,0.0,0.0,0.0,0.0,0.0,-4.2443,-4.7019,0.0,0.0,0.0,0.0,-4.6746,-4.9121,-5.176,-5.4791,-5.716,-5.992,-6.306,-6.4792,-6.6217,-6.7333,-6.8232,-6.9121,-6.9967,-7.0045,-7.0601,-7.158,-7.1568,-7.166,-7.1852,-7.1852,-7.1312,-7.0049,-6.579,-6.2968,-6.1015,-5.8269,-5.6683,-5.5915,-5.5862,-5.6384,-5.721,-5.805,-5.8366,-5.8596,-5.9911,-5.7263,-5.3327,-5.2234,-4.9862,0.0,0.0,-5.0108,-5.1839,-5.3634,-5.54,-5.6907,-5.7771,-5.7997,-5.7931,-5.7453,-5.5093,-5.2316,0.0,-4.7052,-4.4804,-4.2934,0.0,-4.0413,-4.0932,-4.2581,-4.4235,-4.5661,-4.7279,-4.8344,-4.8344,-4.8306,-4.8306,-4.8306,-4.8269,-4.7609,-4.6067,-4.6581,-4.625,-4.4709,-4.4488,-4.3277,-4.0855,-3.7588,0.0,0.0,0.0,0.0,0.0,0.0,0.0,0.0,0.0,0.0,0.0,0.0,0.0,0.0,0.0,0.0,0.0,0.0,0.0,0.0,0.0,0.0,0.0,0.0,0.0,0.0,0.0,0.0,-4.7058,-5.1786,0.0,-5.0078,-5.0476,-5.1594,-5.3098,-5.5031,-5.7722,-6.1286,-6.2823,-6.4616,-6.6923,-6.8142,-6.8929,-6.9317,-7.0228,-7.0863,-7.1175,-7.1292,-7.154,-7.1906,-7.1749,-7.1737,-7.1815,-7.171,-7.1455,-7.097,-6.8933,-6.6775,-6.4567,-6.3036,-6.1909,-6.1083,-6.0993,-6.145,-6.2208,-6.2348,-6.2411,-6.2194,-6.0736,-5.8196,-5.5479,-5.4087,-5.2906,-5.214,-5.2441,-5.3556,-5.4876,-5.5996,-5.696,-5.7682,-5.7983,-5.8058,-5.7867,-5.7174,-5.6224,-5.4899,-5.301,-4.9963,-4.728,-4.581,-4.4668,-4.3791,-4.3113,-4.4247,-4.5549,-4.6544,-4.7645,-4.8306,-4.8306,-4.8306,-4.8306,-4.8306,-4.7829,-4.7278,-4.6728,-4.6471,-4.6067,-4.5516,-4.5002,-4.3828,-4.1919,-3.9239,-3.5055,0.0,0.0,0.0,0.0,0.0,0.0,0.0,0.0,0.0,0.0,0.0,0.0,0.0,0.0,0.0,0.0,0.0,0.0,0.0,0.0,0.0,0.0,0.0,0.0,0.0,0.0,-5.1118,-5.0885,-5.5733,-5.8006,-5.5218,-5.6425,-5.7825,-5.8796,-6.0738,-6.3002,-6.5678,-6.6891,-6.8072,-6.9374,-7.0271,-7.0742,-7.0793,-7.1481,-7.1777,-7.1681,-7.1858,-7.187,-7.1836,-7.1681,-7.1632,-7.1645,-7.1549,-7.1454,-7.1358,-7.0772,-6.934,-6.742,-6.6295,-6.5526,-6.4962,-6.4526,-6.4629,-6.4879,-6.4614,-6.4326,-6.3762,-6.1704,-5.976,-5.8053,-5.6929,-5.6482,-5.6369,-5.6369,-5.6955,-5.7672,-5.7937,-5.8231,-5.8327,-5.807,-5.7997,-5.785,-5.7336,-5.7005,-5.6492,-5.5427,-5.2589,-4.9896,-4.8468,-4.7642,-4.6765,-4.5577,-4.6138,-4.6911,-4.7462,-4.7976,-4.8306,-4.8306,-4.8306,-4.8306,-4.8306,-4.7572,-4.7131,-4.7131,-4.6104,-4.5516,-4.5516,-4.4709,-4.3681,-4.2323,-3.9129,-3.5459,-3.1384,0.0,0.0,0.0,0.0,0.0,0.0,0.0,0.0,0.0,0.0,0.0,0.0,0.0,0.0,0.0,0.0,0.0,0.0,0.0,0.0,0.0,0.0,0.0,-4.442,-5.0357,-5.4527,-5.3859,-5.8759,-6.1126,-5.8372,-6.1037,-6.3138,-6.3738,-6.6049,-6.7589,-6.7757,-6.9338,-7.0338,-7.0527,-7.13,-7.1801,-7.1992,-7.1991,-7.1897,-7.1695,-7.1695,-7.1634,-7.1496,-7.1496,-7.1513,-7.1503,-7.1503,-7.1387,-7.1168,-7.1168,-7.0629,-6.9563,-6.8025,-6.741,-6.7295,-6.6295,-6.558,-6.5073,-6.4592,-6.3842,-6.3125,-6.3125,-6.2216,-6.113,-6.113,-6.0774,-6.0382,-6.0382,-6.0382,-6.0199,-5.9428,-5.9245,-5.9061,-5.8217,-5.7997,-5.7997,-5.7923,-5.7299,-5.6748,-5.6748,-5.4876,-5.2747,-5.1169,-5.0178,-4.9334,-4.8489,-4.8343,0.0,-4.8306,-4.8306,-4.8306,-4.8306,-4.8306,-4.8306,-4.8306,-4.7534,-4.7057,-4.7057,-4.5553,-4.4673,-4.4673,-4.3938,-4.3094,-4.2289,-3.7528,-3.4669,-3.3863,0.0,0.0,0.0,0.0,0.0,0.0,0.0,0.0,0.0,0.0,0.0,0.0,0.0,0.0,0.0,0.0,0.0,0.0,0.0,0.0,0.0,0.0,-4.9404,-4.9098,-5.4314,-5.8672,-5.9998,-6.3664,-6.5893,-6.5536,-6.6435,-6.7114,-6.7295,-6.8626,-6.9498,-6.972,-7.0706,-7.1395,-7.1565,-7.1799,-7.1953,-7.1992,-7.1862,-7.1733,-7.1695,-7.1618,-7.1544,-7.1487,-7.1332,-7.1274,-7.1245,-7.1129,-7.1014,-7.0975,-7.0975,-7.0575,-6.991,-6.8808,-6.8043,-6.7477,-6.6806,-6.6101,-6.535,-6.4634,-6.3988,-6.3472,-6.3472,-6.2562,-6.1466,-6.1466,-6.0562,-5.9648,-6.0236,-5.9979,-5.9612,-5.9979,-6.0089,-5.9722,-5.8327,-5.7997,-5.7666,-5.6492,-5.6088,-5.5941,-5.5941,-5.4913,-5.3739,-5.2711,-5.1389,-5.0178,-4.937,-4.871,0.0,-4.8306,-4.8306,-4.8306,-4.8306,-4.8306,-4.8306,-4.8306,-4.7186,-4.6436,-4.6513,-4.495,-4.408,-4.4118,-4.3724,-4.2919,-4.1724,-3.8259,-3.6078,0.0,0.0,0.0,0.0,0.0,0.0,0.0,0.0,0.0,0.0,0.0,0.0,0.0,0.0,0.0,0.0,0.0,0.0,0.0,0.0,0.0,0.0,-5.052,-5.4587,-5.5912,-5.9264,-6.2337,-6.4287,-6.6931,-6.8675,-6.8987,-6.954,-6.9759,-6.9477,-7.0286,-7.0908,-7.1116,-7.1568,-7.1895,-7.1992,-7.1992,-7.1971,-7.1883,-7.1756,-7.1618,-7.1503,-7.1426,-7.1321,-7.1245,-7.1129,-7.1052,0.0,-7.0374,-7.0056,-7.0017,-6.9451,-6.9222,0.0,0.0,0.0,0.0,0.0,-6.6195,-6.5628,-6.4631,-6.384,-6.3187,-6.29,-6.1993,-6.108,-6.108,-6.0456,-5.9795,-6.0272,-6.0052,-5.9758,-5.9869,-5.9905,-5.9575,-5.829,-5.774,-5.7226,-5.6308,-5.5831,-5.5574,-5.5574,-5.495,0.0,-5.3335,-5.1867,-5.0508,-4.9664,-4.882,-4.8306,-4.8306,-4.8306,-4.8306,-4.8306,-4.8306,-4.8306,-4.8306,-4.6989,0.0,0.0,0.0,-4.362,-4.2982,-4.2222,0.0,0.0,0.0,0.0,0.0,0.0,0.0,0.0,-3.5375,-3.4863,0.0,0.0,0.0,0.0,0.0,0.0,0.0,0.0,0.0,0.0,0.0,0.0,0.0,0.0,0.0,0.0,-5.5364,-5.9345,-6.3103,-6.4436,-6.559,-6.709,-6.8963,-7.0067,-7.0067,-7.0952,-7.1299,-7.0684,-7.1337,-7.1797,-7.199,0.0,0.0,0.0,0.0,-7.1877,-7.1673,-7.1645,-7.1503,-7.1206,-7.1168,-7.1052,-7.0898,-7.0898,-7.0832,-7.0584,-6.9413,-6.8798,-6.8579,-6.7392,-6.7313,-6.8067,-6.8561,-6.8452,-6.7823,-6.6553,-6.5989,-6.5756,-6.4512,0.0,0.0,-6.1851,-6.1117,-6.0529,-6.0419,-6.0346,-6.0272,-6.0382,-6.0346,-6.0126,-5.9501,-5.9355,-5.9134,-5.8217,-5.7446,-5.6859,-5.6602,-5.5978,-5.5464,-5.5464,-5.4803,-5.4069,-5.3445,-5.2013,-5.0655,-4.9774,-4.904,-4.86,-4.86,-4.86,-4.8561,-4.8485,0.0,0.0,-4.8221,-4.7006,-4.6521,-4.7176,-4.5275,-4.3543,-4.2105,-4.0793,-4.0363,-4.0918,-4.0832,-4.1464,-4.2773,-4.3395,-4.3734,-4.3699,-3.8222,-3.7269,0.0,0.0,0.0,0.0,0.0,0.0,0.0,0.0,0.0,0.0,0.0,0.0,0.0,0.0,0.0,-5.2877,-5.7311,-6.1426,-6.5062,-6.6885,-6.8039,-6.8347,-7.004,-7.1207,-7.1176,-7.1495,-7.1618,-7.1491,-7.1771,-7.1971,-7.1992,-7.1992,0.0,-7.1739,-7.1756,-7.1668,-7.1559,-7.1371,-7.1245,-7.1206,0.0,0.0,-7.0898,-7.0898,-7.0306,-6.9266,-6.9017,-6.8285,-6.7278,-6.7014,-6.715,-6.7502,-6.8271,-6.8203,-6.7649,-6.6773,-6.6022,-6.5308,-6.4398,-6.3539,-6.2695,-6.1851,-6.1484,-6.1263,-6.0603,-5.9942,0.0,-6.0236,-5.9942,-5.9575,-6.0052,-6.0162,-5.9795,-5.8364,-5.7886,-5.7226,-5.528,-5.473,-5.462,-5.462,-5.3995,-5.3592,-5.4069,-5.2821,-5.1499,-5.0655,-5.0435,-5.0325,-5.0325,-5.0325,-5.009,-4.9474,-4.943,-4.9,-4.7854,-4.7019,-4.6339,-4.59,-4.542,-4.4928,-4.4378,-4.4265,-4.4019,-4.3568,-4.3066,-4.267,-4.2381,-4.2552,-4.2927,-4.3507,-4.3136,-4.3092,0.0,0.0,0.0,0.0,0.0,0.0,0.0,0.0,0.0,0.0,0.0,-4.1991,-4.4889,0.0,-5.3436,-5.7465,-6.0734,-6.3575,-6.5769,-6.7757,-6.9075,-6.9401,-7.0706,-7.1596,-7.1588,-7.1753,-7.1835,-7.1835,-7.1953,-7.1992,-7.1992,-7.1885,-7.1801,-7.1722,-7.1618,-7.1505,-7.1337,-7.1235,-7.1129,-7.1052,-7.0552,-7.0283,-7.0283,-6.986,-6.9126,-6.8188,-6.7528,-6.6749,-6.5895,-6.5634,-6.558,-6.5767,-6.6581,-6.6971,-6.699,-6.6219,-6.5668,-6.5191,-6.4383,-6.3539,-6.2608,-6.1375,-6.0726,-6.0201,-5.8967,-5.8601,-5.8601,-5.8651,-5.864,-5.8694,-5.9098,-5.9208,-5.8893,-5.7765,-5.7122,-5.6406,-5.4832,-5.4436,-5.4309,-5.3872,-5.3814,-5.3812,-5.3812,-5.282,-5.1894,-5.1458,-5.1059,-5.0643,-5.0277,-5.0277,-4.9981,-4.9269,-4.9222,-4.89,-4.8204,-4.7177,-4.6305,-4.5617,-4.4844,-4.4334,-4.4198,-4.3975,-4.3852,-4.3852,-4.3939,-4.4012,-4.4012,-4.4756,-4.5297,-4.5669,-4.6563,-4.6433,0.0,0.0,0.0,0.0,0.0,0.0,0.0,0.0,-3.8567,-4.2752,-4.504,-4.7597,-5.1686,-5.4981,-5.8259,-6.1796,-6.3767,-6.5191,-6.6307,-6.7872,-6.9208,-6.9966,-7.1068,-7.1756,-7.1756,-7.1885,-7.1992,-7.1992,-7.1992,-7.1988,-7.1953,-7.1804,-7.1657,-7.1618,-7.1503,-7.1349,-7.1129,-7.1129,-7.1052,-7.0898,-7.009,-6.964,-6.9519,-6.8636,-6.7829,-6.7002,-6.5652,-6.4865,-6.4456,-6.4046,-6.3943,-6.4127,-6.464,-6.5197,-6.5713,-6.5238,-6.4945,-6.4725,-6.3872,-6.3158,-6.2318,-6.0702,-5.9816,-5.9132,-5.749,-5.7448,-5.7873,-5.7136,-5.7333,-5.7729,-5.7583,-5.7546,-5.7413,-5.6773,-5.6165,-5.5506,-5.4901,-5.4721,-5.453,-5.3845,-5.3954,-5.3968,-5.3346,-5.249,-5.1943,-5.2017,-5.1359,-5.0628,-5.0063,-4.997,-4.9734,-4.9043,-4.8992,-4.887,-4.8574,-4.7488,-4.6632,-4.6201,-4.5128,-4.4519,-4.4519,-4.391,-4.3876,-4.4485,-4.4993,-4.5534,-4.6143,-4.7192,-4.7699,-4.7699,-4.8443,-4.824,-3.4572,-3.2673,-3.1873,-3.4402,-3.5056,-3.7055,0.0,0.0,-4.678,-4.9769,-5.2243,-5.4306,-5.5708,-5.7709,-6.0104,-6.2959,-6.4191,-6.5461,-6.741,-6.7872,-6.8423,-6.9447,-7.0976,-7.1978,-7.1978,-7.1989,-7.1992,-7.1992,-7.1992,-7.1916,-7.1742,-7.1698,-7.158,-7.1245,-7.1245,-7.1129,-7.0937,-7.0937,-7.0937,-7.0898,-7.009,-6.9462,-6.8935,-6.8095,-6.6782,-6.5117,-6.3743,-6.3064,-6.3015,-6.2952,-6.3392,-6.4016,-6.3356,-6.3142,-6.3269,-6.3941,-6.3724,-6.2996,-6.2153,-6.1852,-6.1459,-5.9834,-5.9781,-5.996,-5.8378,-5.7895,-5.7871,-5.7149,-5.6958,-5.6872,-5.6126,-5.5948,-5.5948,-5.5836,-5.5766,-5.5684,-5.5574,-5.5599,-5.5509,-5.535,-5.4318,-5.3411,-5.3302,-5.2158,-5.1408,-5.2004,-5.1513,-5.1043,-5.0941,-5.0941,-5.0682,-4.9994,-4.9938,-4.9412,-4.8099,-4.7878,-4.7725,-4.7665,-4.8105,-4.8376,-4.8376,-4.8308,-4.8308,-4.8376,-4.7834,-4.7597,-4.7665,-4.7158,-4.6921,-4.6921,-4.7699,-4.8308,-3.8416,-3.7686,-3.7602,0.0,-4.1385,-4.3341,-4.9,-4.9997,-5.0664,-5.3962,-5.5708,-5.711,-5.8706,-6.058,-6.2421,0.0,-6.5153,-6.6153,-6.7025,-6.768,-6.8038,-6.7993,-6.9464,-7.0703,-7.1172,-7.1156,-7.1303,-7.1785,-7.1739,-7.1689,-7.1591,-7.1477,-7.1321,-7.1206,-7.1091,-7.0975,-7.0898,-7.0898,-7.0667,-7.0206,-6.936,-6.8436,-6.742,-6.651,-6.5423,-6.4071,-6.321,-6.2805,-6.2805,-6.2805,-6.3025,-6.3269,-6.2417,-6.2096,-6.2145,-6.247,-6.2076,-6.1379,-6.1016,-6.0925,-6.0725,-5.951,-5.9405,-5.9354,-5.7794,-5.7617,-5.7793,-5.7025,-5.7183,-5.7471,-5.7117,-5.6692,-5.6316,-5.5844,-5.5374,-5.4954,-5.4495,-5.4782,-5.4903,-5.4401,-5.4136,-5.3885,-5.3369,-5.2482,-5.192,-5.2161,-5.1547,-5.0929,-5.05,-5.0445,-5.0202,-4.9555,-4.9436,-4.9214,-4.8578,-4.8173,-4.7936,-4.7936,-4.78,-4.7699,-4.7699,-4.7699,-4.7699,-4.7699,-4.7868,-4.7936,-4.7936,-4.8037,-4.8071,-4.8105,-4.8849,-4.9357,-4.0861,-4.1485,-4.2689,-4.4942,-4.6931,-4.9281,-5.2744,-5.3632,-5.4415,-5.7058,-5.809,-5.9077,-6.0911,-6.2536,-6.3883,-6.4806,-6.5884,-6.6622,-6.667,-6.7134,-6.7229,-6.657,-6.7358,-6.8351,-6.9394,-6.9882,-7.0464,-7.1206,-7.1218,-7.1236,-7.143,-7.1294,-7.1052,-7.0783,-7.0629,-7.0552,-7.0552,-7.0321,-7.0052,-6.9706,-6.8444,-6.7255,-6.6121,-6.5004,-6.4061,-6.3363,-6.2965,-6.2805,-6.2805,-6.2805,-6.2805,-6.2755,-6.2129,-6.1659,-6.1286,-6.1286,-6.076,-6.0023,-5.9768,-5.9832,-5.9896,-5.9078,-5.8943,-5.8839,-5.7491,-5.7462,-5.774,-5.7017,-5.7205,-5.7646,-5.7436,-5.6982,-5.6369,-5.5563,-5.4987,-5.4441,-5.3915,-5.42,-5.4495,-5.4122,-5.4104,-5.4077,-5.3458,-5.2636,-5.1993,-5.1993,-5.15,-5.0837,-5.009,-4.986,-4.9521,-4.9046,-4.9018,-4.9018,-4.9018,-4.8511,-4.8206,-4.8206,-4.7699,-4.7394,-4.7394,-4.7394,-4.7394,-4.7394,-4.7936,-4.8206,-4.824,-4.8951,-4.9289,-4.9323,-5.0067,-5.0405,-4.138,-4.2714,-4.5026,-4.7169,-5.0498,-5.3878,-5.6136,-5.7931,-5.9201,-5.9314,-6.0056,-6.1012,-6.205,-6.2998,-6.396,-6.5089,-6.6013,-6.6671,-6.6859,-6.6171,-6.5624,-6.5448,-6.4756,-6.487,0.0,-6.8161,-6.9489,-7.0179,-7.0244,-7.0541,-7.1156,-7.1195,-7.0744,-6.9783,-6.9744,-6.9744,-6.9744,-6.8898,-6.8898,-6.9667,-6.7493,-6.6159,-6.5539,-6.3734,-6.2855,-6.2805,-6.2805,-6.2805,-6.2805,-6.2805,-6.2805,-6.2805,-6.2755,-6.1806,-6.0432,-6.0432,-5.9896,-5.9044,-5.828,-5.8528,-5.9011,-5.8209,-5.8424,-5.8908,-5.8103,-5.7848,-5.7785,-5.704,-5.6836,-5.6667,-5.5956,-5.5753,-5.5549,-5.4838,-5.4635,-5.4567,-5.4592,-5.4606,-5.4818,-5.5517,-5.4454,-5.3524,-5.3524,-5.2261,-5.1217,-5.1217,-5.1248,-5.0943,-5.0198,-4.9486,-4.8984,-4.9018,-4.9018,-4.9018,-4.9018,-4.8984,-4.8984,-4.8984,-4.8951,-4.8951,-4.8951,-4.8951,-4.8951,-4.8951,-4.8951,-4.8984,-4.8984,-4.9695,-5.0067,-5.0067,-5.0845,-5.1183,-4.5105,-4.6876,-4.9118,-5.235,-5.4941,-5.7024,-5.8504,-5.955,-6.0138,-5.9906,-5.9546,-5.9542,-6.0426,-6.0988,-6.1834,-6.3386,-6.4947,-6.6141,-6.6795,-6.6527,-6.5836,-6.4679,-6.4671,0.0,0.0,0.0,0.0,-6.986,-6.9937,-7.0206,-7.0975,-7.0475,-7.0052,-6.9706,-6.9129,-6.8859,-6.8859,-6.8186,-6.776,-6.7493,-6.5463,-6.4431,-6.4224,-6.3268,-6.2805,-6.2805,-6.2805,-6.2805,-6.2805,-6.2805,-6.2805,-6.2705,-6.1604,-6.0879,-6.0309,-5.9145,-5.8598,-5.8246,-5.8027,-5.8065,-5.8246,-5.8027,-5.8065,-5.8246,-5.8027,-5.7881,-5.7848,-5.7577,-5.7509,-5.7476,-5.7205,-5.6799,-5.6393,-5.6122,-5.5683,-5.5177,-5.4735,-5.4631,-5.4527,-5.4274,-5.3871,-5.3505,-5.3505,-5.3073,-5.2536,-5.2029,-5.1522,-5.1116,-5.0879,-5.0608,-5.0473,-5.0473,-5.0473,-5.027,-4.9763,-4.9729,-4.9526,-4.9052,-4.9458,-4.9729,-4.9729,-5.0202,-5.0473,-5.0473,-5.0473,-5.0473,-5.0473,-5.071,-5.0845,-5.0845,-5.1589,-5.1928,-4.8941,-5.0944,-5.3052,-5.6335,-5.8432,-5.9795,-6.0258,-6.083,-6.0904,-5.9511,-5.8592,-5.8027,-5.7988,-5.8192,-5.9155,-6.1535,-6.3233,-6.4797,-6.6533,-6.6165,-6.537,-6.447,-6.42,-6.383,0.0,0.0,0.0,-6.8347,-6.8936,-6.959,-7.0437,-6.9975,-6.9552,-6.9244,-6.8398,-6.7845,-6.7707,-6.7049,-6.6265,-6.5385,-6.4158,-6.3498,-6.3271,-6.2965,-6.2805,-6.2805,-6.2805,-6.2805,-6.2805,-6.2805,-6.2618,-6.2271,-6.1229,-6.0458,-5.9832,-5.8703,-5.8137,-5.7881,-5.7881,-5.7881,-5.7881,-5.7881,-5.7881,-5.7881,-5.7881,-5.7881,-5.7881,-5.7881,-5.7881,-5.7881,-5.7881,-5.7543,-5.7137,-5.6867,-5.6461,-5.5886,-5.5141,-5.5006,-5.4769,-5.4025,-5.389,-5.3822,-5.3551,-5.3518,-5.3315,-5.2807,-5.2334,-5.1826,-5.1285,-5.1217,-5.1217,-5.1217,-5.1217,-5.1014,-5.0541,-5.0473,-5.0304,-4.983,-5.0236,-5.0473,-5.0473,-5.0947,-5.1217,-5.1217,-5.1217,-5.1217,-5.1217,-5.1488,-5.1589,-5.1623,-5.2367,-5.2739,-5.2732,-5.4844,-5.6681,-5.9051,-6.104,-6.2183,-6.1363,-6.1802,-6.1446,-5.8196,-5.7188,-5.64,0.0,0.0,-5.6117,-5.9568,-6.1053,-6.2864,-6.6113,-6.5226,-6.4354,0.0,0.0,0.0,0.0,0.0,0.0,-6.582,0.0,-6.8821,-6.9706,-6.9667,-6.9244,-6.8436,-6.7513,-6.6814,-6.6319,-6.5449,-6.4516,-6.3587,-6.3587,-6.3308,-6.2805,-6.2805,-6.2805,-6.2805,-6.2805,-6.2805,-6.2805,-6.2755,-6.2271,-6.1604,-6.1548,-6.0484,-5.9111,-5.9044,-5.8564,-5.7881,-5.7881,-5.7881,-5.7881,-5.7881,-5.7881,-5.7881,-5.7881,-5.7881,-5.7881,-5.7881,-5.7881,-5.7881,-5.7881,-5.7881,-5.7712,-5.7036,-5.6867,-5.6664,-5.5919,-5.5784,-5.5547,-5.4803,-5.4634,-5.4363,-5.3687,-5.3518,-5.3518,-5.3518,-5.3518,-5.2976,-5.1522,-5.1352,-5.1352,-5.1352,-5.1352,-5.1319,-5.1285,-5.1285,-5.1251,-5.1217,-5.1251,-5.1285,-5.1285,-5.1319,-5.1352,-5.1352,-5.1352,-5.1352,-5.1352,-5.2029,-5.2367,-5.2367,-5.3145,-5.3518,-5.6492,-5.8448,-5.9844,-6.1993,-6.2443,-6.2272,-6.2211,-6.095,-5.9112,-5.6805,-5.4334,-5.1924,0.0,0.0,0.0,-5.6036,-5.9762,0.0,-6.6081,-6.593,0.0,-6.4845,0.0,-6.3897,-6.3666,-6.4205,0.0,0.0,-6.7436,-6.9052,-7.0514,-6.9398,-6.8629,-6.8398,-6.6974,-6.597,-6.5442,-6.4445,-6.368,-6.3014,-6.3014,-6.2917,-6.2805,-6.2805,-6.2805,-6.2805,-6.2805,-6.2805,-6.2755,-6.2129,-6.177,-6.1456,-6.0238,-5.9474,-5.9044,-5.8458,-5.8065,-5.7881,-5.7881,-5.7881,-5.7881,-5.7881,-5.7881,-5.7881,-5.7881,-5.7881,-5.7881,-5.7881,-5.7881,-5.7881,-5.7881,-5.7881,-5.7848,-5.7645,-5.7611,-5.7408,-5.6697,-5.6528,-5.6292,-5.5581,-5.4972,-5.4532,-5.4329,-5.3856,-5.3518,-5.3518,-5.3518,-5.3382,-5.2976,-5.2909,-5.2909,-5.2909,-5.2909,-5.2672,-5.2063,-5.2029,-5.1792,-5.1251,-5.1725,-5.2029,-5.2029,-5.2604,-5.2909,-5.2909,-5.2909,-5.2909,-5.2909,-5.3112,-5.3179,-5.3213,-5.3416,-5.3518,-5.9492,-6.1547,-6.3015,-6.349,-6.3259,-6.2522,-6.0823,-5.9206,-5.6945,-5.282,-5.0271,-4.8009,-4.549,-4.752,0.0,0.0,0.0,0.0,-6.5234,-6.5595,-6.5499,0.0,-6.5205,0.0,-6.4974,-6.5743,-6.6512,0.0,-6.7906,-6.8975,-7.0283,-6.9475,-6.8821,-6.8398,-6.6929,-6.5581,-6.4481,-6.3637,-6.311,-6.2805,-6.2805,-6.2805,-6.2805,-6.2805,-6.2805,-6.2805,0.0,-6.2805,-6.2755,-6.1969,-6.14,-6.0938,-5.9604,-5.8875,-5.8494,-5.8065,-5.7881,-5.7881,-5.7881,-5.7881,-5.7881,-5.7881,-5.7881,-5.7881,-5.7881,-5.7881,-5.7881,-5.7881,-5.7881,-5.7881,-5.7881,-5.7881,-5.7881,-5.7881,-5.7881,-5.778,-5.7374,-5.7273,-5.707,-5.6325,-5.5581,-5.5074,-5.5074,-5.4735,-5.4363,-5.4025,-5.3991,-5.3856,-5.3551,-5.3518,-5.3518,-5.3518,-5.3518,-5.3315,-5.2875,-5.2841,-5.2672,-5.2232,-5.2604,-5.2841,-5.2841,-5.3281,-5.3518,-5.3518,-5.3518,-5.3518,-5.3518,-5.3518,-5.3518,-5.3518,-5.3822,-5.3991,-6.1932,-6.3883,-6.5531,-6.4289,-6.3727,-6.2452,-5.8666,-5.703,-5.4477,-4.7889,-4.5806,-4.4432,-4.1836,-4.3728,-4.7143,-5.1485,0.0,-5.9945,-6.4166,-6.4768,-6.5114,-6.5936,-6.6,-6.6281,-6.7088,-6.7791,-6.8318,-6.8693,-6.851,-6.8817,-6.9701,-6.9481,-6.8876,-6.7917,-6.6688,-6.5274,-6.3631,-6.3062,-6.2805,-6.2805,-6.2805,-6.2805,-6.2805,-6.2805,-6.2805,-6.2805,0.0,0.0,-6.2755,-6.1969,-6.1113,-6.0273,-5.9443,-5.8633,-5.7915,-5.8017,-5.7983,-5.7915,-5.8017,-5.7983,-5.7881,-5.7881,-5.7881,-5.7881,-5.7881,-5.7881,-5.7881,-5.7881,-5.7881,-5.7881,-5.7881,-5.7881,-5.7881,-5.7881,-5.7881,-5.7881,-5.7881,-5.7881,-5.7712,-5.707,-5.6359,-5.5852,-5.5852,-5.5784,-5.548,-5.4837,-5.4735,-5.4465,-5.3754,-5.3551,-5.3518,-5.3518,-5.3518,-5.3518,-5.3518,-5.3518,-5.3518,-5.3518,-5.3518,-5.3518,-5.3518,-5.3518,-5.3518,-5.3518,-5.3585,-5.3653,-5.3653,-5.3754,-5.3788,-5.3822,-5.4431,-5.4735,-6.3742,-6.4598,-6.5154,-6.576,-6.3829,-6.1133,-5.8819,-5.4939,0.0,0.0,-4.272,-4.0828,-3.8334,-4.1644,-4.6142,-5.0389,-5.4578,-5.9027,-6.3935,-6.4628,-6.5205,0.0,-6.6509,-6.6536,-6.7445,0.0,0.0,0.0,0.0,-6.9088,-6.9999,-6.8291,-6.6595,-6.5118,-6.4439,-6.3958,-6.3593,-6.3062,-6.2805,-6.2805,-6.2805,-6.2805,-6.2805,-6.2805,-6.2805,-6.2805,-6.2805,0.0,-6.2755,-6.1969,-6.1113,-6.0273,-5.9443,-5.8633,-5.7949,-5.8592,-5.8423,-5.7983,-5.8592,-5.8423,-5.7881,-5.7881,-5.7881,-5.7881,-5.7881,-5.7881,-5.7881,-5.7881,-5.7881,-5.7881,-5.7881,-5.7881,-5.7881,-5.7881,-5.7881,-5.7881,-5.7881,-5.7881,-5.7848,-5.7712,-5.7103,-5.663,-5.663,-5.6122,-5.5683,-5.5547,-5.5513,-5.5243,-5.4499,-5.389,-5.3518,-5.3518,-5.3518,-5.3518,-5.3518,-5.3518,-5.3518,-5.3518,-5.3518,-5.3518,-5.3518,-5.3518,-5.3518,-5.3518,-5.4093,-5.4397,-5.4397,-5.504,-5.5344,-5.5344,-5.548,-5.5513,-6.4623,-6.5827,-6.6787,-6.6488,-6.3723,-5.9996,-5.604,0.0,0.0,0.0,-3.8338,-3.7035,-3.5791,-3.93,0.0,-4.6877,-5.1173,-5.593,-6.118,-6.1962,0.0,-6.6298,-6.6602,-6.6895,0.0,0.0,0.0,0.0,0.0,-6.894,-6.9626,-6.7884,-6.6139,-6.4691,-6.3947,-6.3453,-6.3168,-6.2917,-6.2805,-6.2805,-6.2805,-6.2805,-6.2805,-6.2805,-6.2805,-6.2805,-6.2805,0.0,-6.2705,-6.1492,-6.076,-6.0273,-5.8943,-5.8246,-5.7983,-5.8727,-5.8795,-5.8524,-5.8896,-5.8795,-5.8423,-5.8017,-5.7881,-5.7881,-5.7881,-5.7881,-5.7881,-5.7881,-5.7881,-5.7881,-5.7881,-5.7881,-5.7881,-5.7881,-5.7881,-5.7881,-5.7881,-5.7881,-5.7881,-5.7881,-5.7611,-5.7374,-5.7374,-5.707,-5.6697,-5.6325,-5.6292,-5.6021,-5.5277,-5.4871,-5.4363,-5.3585,-5.3518,-5.3653,-5.4025,-5.4059,-5.4228,-5.4634,-5.4668,-5.4668,-5.4668,-5.4668,-5.4668,-5.4668,-5.5006,-5.5175,-5.5175,-5.5547,-5.5716,-5.5716,-5.6089,-5.6292,-6.5229,-6.6711,-6.7926,-6.6605,-6.3384,-5.8988,-5.3146,-4.8358,0.0,-3.6714,-3.4674,-3.4084,-3.4173,0.0,-4.0674,0.0,-4.7728,-5.2283,-5.8144,-5.9117,-6.088,0.0,-6.6296,0.0,-6.7752,0.0,0.0,0.0,0.0,0.0,-6.8447,-6.7297,-6.5966,-6.4502,-6.3788,-6.3215,-6.2805,-6.2805,-6.2805,-6.2805,-6.2805,-6.2805,-6.2805,-6.2805,-6.2805,-6.2805,-6.2805,0.0,0.0,-6.1265,-6.0519,-6.0211,-5.8772,-5.8065,-5.8017,-5.893,-5.9167,-5.9032,-5.9201,-5.9133,-5.8896,-5.8118,-5.7881,-5.7881,-5.7881,-5.7881,-5.7881,-5.7881,-5.7881,-5.7881,-5.7881,-5.7881,-5.7881,-5.7881,-5.7881,-5.7881,-5.7881,-5.7881,-5.7881,-5.7881,-5.7881,-5.7881,-5.7881,-5.7881,-5.7679,-5.7137,-5.7036,-5.6765,-5.6055,-5.5953,-5.5446,-5.4126,-5.3991,-5.4228,-5.4769,-5.4837,-5.5074,-5.5683,-5.5716,-5.5716,-5.5716,-5.5716,-5.5716,-5.5716,-5.5886,-5.5953,-5.5953,-5.6122,-5.619,-5.619,-5.6765,-5.7036,-6.5641,-6.6407,-6.6459,-6.6035,-6.2757,-5.8102,-5.2265,0.0,-4.1678,-3.5746,-3.3724,-3.3276,-3.4045,0.0,0.0,0.0,0.0,-4.8943,-5.6216,-5.79,-5.9946,-6.4065,0.0,0.0,-6.7299,0.0,0.0,0.0,0.0,0.0,-6.5764,-6.5979,-6.5162,-6.3051,-6.2941,-6.2855,-6.2805,-6.2805,-6.2805,-6.2805,-6.2805,-6.2805,-6.2805,-6.2805,-6.2805,-6.2805,-6.2805,0.0,0.0,-6.1824,-6.1055,-6.0273,-5.9377,-5.8564,-5.8051,-5.9471,-5.9573,-5.9099,-5.9776,-5.9573,-5.8896,-5.8118,-5.7881,-5.7881,-5.7881,-5.7881,-5.7881,-5.7881,-5.7881,-5.7881,-5.7881,-5.7881,-5.7881,-5.7881,-5.7881,-5.7881,-5.7881,-5.7881,-5.7881,-5.7881,-5.7881,-5.7881,-5.7881,-5.7881,-5.7881,-5.7814,-5.778,-5.7509,-5.6799,-5.6697,-5.6393,-5.5581,-5.5513,-5.5547,-5.5615,-5.5615,-5.5649,-5.5716,-5.5716,-5.5716,-5.5716,-5.5716,-5.5716,-5.5716,-5.6359,-5.6697,-5.6697,-5.7374,-5.7679,-5.7679,-5.7746,-5.778,-6.4775,-6.62,-6.6633,-6.6064,-6.2313,-5.7242,-5.1326,-4.557,-3.9997,-3.4627,-3.225,-3.158,-3.2919,-3.3527,0.0,0.0,0.0,0.0,-5.0147,-5.1757,-5.4466,-6.0302,-6.242,0.0,0.0,0.0,0.0,0.0,0.0,0.0,-6.5375,-6.5483,-6.4758,-6.2879,-6.2805,-6.2805,-6.2805,-6.2805,-6.2805,-6.2805,-6.2805,-6.2805,-6.2805,-6.2805,-6.2805,-6.2805,-6.2805,0.0,0.0,-6.1171,-6.0397,-5.9509,-5.8703,-5.8209,-5.8017,-5.9066,-5.9268,-5.9066,-5.9336,-5.9268,-5.8896,-5.8118,-5.7881,-5.7881,-5.7881,-5.7881,-5.7881,-5.7881,-5.7881,-5.7881,-5.7881,-5.7881,-5.7881,-5.7881,-5.7881,-5.7881,-5.7881,-5.7881,-5.7881,-5.7881,-5.7881,-5.7881,-5.7881,-5.7881,-5.7881,-5.7881,-5.7881,-5.778,-5.7476,-5.7442,-5.734,-5.707,-5.6258,-5.5886,-5.6325,-5.6359,-5.6562,-5.7002,-5.7036,-5.7036,-5.7036,-5.7036,-5.7036,-5.7036,-5.7306,-5.7442,-5.7442,-5.7746,-5.7881,-5.7881,-5.7881,-5.7881,-6.3274,-6.5175,-6.5859,-6.5051,-6.1214,-5.6124,-5.0391,-4.4446,-3.8773,-3.3913,-3.1364,-3.0494,-3.221,-3.2257,-3.3463,0.0,0.0,-3.9872,-4.5969,-4.7451,-5.0151,0.0,0.0,0.0,0.0,0.0,0.0,0.0,0.0,0.0,0.0,-6.5081,-6.431,-6.2879,-6.2805,-6.2805,-6.2805,-6.2805,-6.2805,-6.2805,-6.2805,-6.2805,-6.2805,-6.2805,-6.2805,-6.2805,0.0,0.0,0.0,-6.1055,-6.0273,-5.9377,-5.8564,-5.8137,-5.7983,-5.8727,-5.9032,-5.9032,-5.9032,-5.9032,-5.8896,-5.8118,-5.7881,-5.7881,-5.7881,-5.7881,-5.7881,-5.7881,-5.7881,-5.7881,-5.7881,-5.7881,-5.7881,-5.7881,-5.7881,-5.7881,-5.7881,-5.7881,-5.7881,-5.7881,-5.7881,-5.7881,-5.7881,-5.7881,-5.7881,-5.7881,-5.7881,-5.7881,-5.7881,-5.7881,-5.7881,-5.7881,-5.6968,-5.6562,-5.707,-5.7137,-5.734,-5.7848,-5.7881,-5.7881,-5.7881,-5.7881,-5.7881,-5.7881,-5.7881,-5.7881,-5.7881,-5.7881,-5.7881,-5.7881,-5.7881,-5.7881,-6.1032,-6.2963,-6.3411,-6.2551,-5.916,-5.4679,-4.9567,-4.3704,-3.8072,-3.3797,-3.1364,-3.0494,-3.221,-3.2128,-3.3134,-3.7266,0.0,0.0,-4.5148,-4.6617,-4.8343,0.0,0.0,0.0,0.0,0.0,0.0,0.0,0.0,0.0,0.0,-6.453,-6.3723,-6.2842,-6.2805,-6.2805,-6.2805,-6.2805,-6.2805,-6.2805,-6.2805,-6.2805,-6.2805,-6.2805,-6.2805,0.0,0.0,0.0,0.0,-6.1915,-6.1113,-6.0273,-5.9443,-5.8633,-5.7983,-5.8727,-5.9032,-5.9032,-5.9032,-5.9032,-5.8896,-5.8118,-5.7881,-5.7881,-5.7881,-5.7881,-5.7881,-5.7881,-5.7881,-5.7881,-5.7881,-5.7881,-5.7881,-5.7881,-5.7881,-5.7881,-5.7881,-5.7881,-5.7881,-5.7881,-5.7881,-5.7881,-5.7881,-5.7881,-5.7881,-5.7881,-5.7881,-5.7881,-5.7881,-5.7881,-5.7881,-5.7881,-5.7881,-5.7881,-5.7881,-5.7881,-5.7881,-5.7881,-5.7881,-5.7881,-5.7881,-5.7881,-5.7881,-5.7881,-5.7881,-5.7881,-5.7881,-5.7881,-5.7881,-5.7881,-5.7881,-5.7881,-5.5073,-5.6708,-5.7009,-5.5569,-5.3313,-5.0307,-4.5789,-4.1314,-3.7112,-3.3446,-3.1021,-2.9927,-3.1016,-3.0916,-3.2416,-3.7616,-3.8412,0.0,0.0,0.0,0.0,0.0,0.0,0.0,0.0,0.0,0.0,0.0,0.0,0.0,0.0,-6.3686,-6.3099,-6.2805,-6.2805,-6.2805,-6.2805,-6.2805,-6.2805,-6.2805,-6.2805,-6.2805,-6.2805,-6.2805,0.0,0.0,0.0,0.0,0.0,-6.1113,-6.0273,-5.9443,-5.8633,-5.8137,-5.7915,-5.8152,-5.8254,-5.8254,-5.8254,-5.8254,-5.822,-5.7983,-5.7881,-5.7881,-5.7881,-5.7881,-5.7881,-5.7881,-5.7881,-5.7881,-5.7881,-5.7881,-5.7881,-5.7881,-5.7881,-5.7881,-5.7881,-5.7881,-5.7881,-5.7881,-5.7881,-5.7881,-5.7881,-5.7881,-5.7881,-5.7881,-5.7881,-5.7881,-5.7881,-5.7881,-5.7881,-5.7881,-5.7881,-5.7881,-5.7881,-5.7881,-5.7881,-5.7881,-5.7881,-5.7881,-5.7881,-5.7881,-5.7881,-5.7881,-5.7881,-5.7881,-5.7881,-5.7881,-5.7881,-5.7881,-5.7881,-5.7881,-5.0078,-5.222,-5.2884,-5.1791,-4.977,-4.7165,-4.3782,-3.9739,-3.5883,-3.302,-3.0829,-2.9655,-3.0453,-3.0383,-3.1678,-3.6119,-3.711,0.0,0.0,0.0,0.0,0.0,0.0,0.0,0.0,0.0,0.0,0.0,0.0,0.0,0.0,-6.3282,-6.2805,-6.2805,-6.2805,-6.2805,-6.2805,-6.2805,-6.2805,-6.2805,-6.2805,-6.2805,-6.2805,-6.2805,0.0,0.0,0.0,0.0,0.0,-6.1055,-6.0211,-5.9078,-5.8564,-5.8209,-5.7881,-5.7881,-5.7881,-5.7881,-5.7881,-5.7881,-5.7881,-5.7881,-5.7881,-5.7881,-5.7881,-5.7881,-5.7881,-5.7881,-5.7881,-5.7881,-5.7881,-5.7881,-5.7881,-5.7881,-5.7881,-5.7881,-5.7881,-5.7881,-5.7881,-5.7881,-5.7881,-5.7881,-5.7881,-5.7881,-5.7881,-5.7881,-5.7881,-5.7881,-5.7881,-5.7881,-5.7881,-5.7881,-5.7881,-5.7881,-5.7881,-5.7881,-5.7881,-5.7881,-5.7881,-5.7881,-5.7881,-5.7881,-5.7881,-5.7881,-5.7881,-5.7881,-5.7881,-5.7881,-5.7881,-5.7881,-5.7881,-5.8051,0.0,-4.8688,-5.0051,-5.0012,-4.7573,-4.4746,-4.2869,-3.8553,0.0,-3.2562,-3.0675,-2.9651,-3.0581,-3.0508,-3.1164,-3.3807,0.0,0.0,0.0,0.0,0.0,0.0,0.0,0.0,0.0,0.0,0.0,0.0,0.0,0.0,0.0,-6.3246,-6.2805,-6.2805,-6.2805,-6.2805,-6.2805,-6.2805,-6.2805,-6.2805,-6.2805,-6.2805,-6.2805,-6.2805,0.0,0.0,0.0,0.0,0.0,-6.1548,-6.058,-5.918,-5.9078,-5.8564,-5.7881,-5.7881,-5.7881,-5.7881,-5.7881,-5.7881,-5.7881,-5.7881,-5.7881,-5.7881,-5.7881,-5.7881,-5.7881,-5.7881,-5.7881,-5.7881,-5.7881,-5.7881,-5.7881,-5.7881,-5.7881,-5.7881,-5.7881,-5.7881,-5.7881,-5.7881,-5.7881,-5.7881,-5.7881,-5.7881,-5.7881,-5.7881,-5.7881,-5.7881,-5.7881,-5.7881,-5.7881,-5.7881,-5.7881,-5.7881,-5.7881,-5.7881,-5.7881,-5.7881,-5.7881,-5.7881,-5.7881,-5.7881,-5.7881,-5.7881,-5.7881,-5.7881,-5.7881,-5.7949,-5.7983,-5.7983,-5.8017,-5.8423,-3.8075,0.0,-4.1865,-4.1207,-4.0275,-3.9235,0.0,-3.5628,-3.3231,-3.2115,-3.0405,-2.9715,-3.174,-3.1581,-3.2706,0.0,0.0,0.0,0.0,0.0,0.0,0.0,0.0,0.0,0.0,0.0,0.0,0.0,0.0,0.0,0.0,-6.2915,-6.2805,-6.2805,-6.2805,-6.2805,-6.2805,-6.2805,-6.2805,-6.2805,-6.2805,-6.2805,-6.2805,-6.2805,0.0,0.0,0.0,0.0,-6.1548,-6.0938,-6.0086,-5.9078,-5.8458,-5.8065,-5.7881,-5.7881,-5.7881,-5.7881,-5.7881,-5.7881,-5.7881,-5.7881,-5.7881,-5.7881,-5.7881,-5.7881,-5.7881,-5.7881,-5.7881,-5.7881,-5.7881,-5.7881,-5.7881,-5.7881,-5.7881,-5.7881,-5.7881,-5.7881,-5.7881,-5.7881,-5.7881,-5.7881,-5.7881,-5.7881,-5.7881,-5.7881,-5.7881,-5.7881,-5.7881,-5.7881,-5.7881,-5.7881,-5.7881,-5.7881,-5.7881,-5.7881,-5.7881,-5.7881,-5.7881,-5.7881,-5.7881,-5.7881,-5.7881,-5.7881,-5.7881,-5.7881,-5.7881,-5.8457,-5.8761,-5.8761,-5.9336,-5.9674,-3.4295,-3.668,-3.9146,-3.8482,-3.7976,-3.7394,-3.6629,-3.4116,-3.1763,-3.1199,-2.9959,-2.9489,-3.1201,0.0,0.0,0.0,0.0,0.0,0.0,0.0,0.0,0.0,0.0,0.0,0.0,0.0,0.0,0.0,0.0,0.0,0.0,-6.2805,-6.2805,-6.2805,-6.2805,-6.2805,-6.2805,-6.2805,-6.2805,-6.2805,-6.2805,-6.2805,-6.2805,-6.2805,-6.2805,0.0,0.0,0.0,-6.0997,-6.0149,-5.9311,-5.8494,-5.8065,-5.7881,-5.7881,-5.7881,-5.7881,-5.7881,-5.7881,-5.7881,-5.7881,-5.7881,-5.7881,-5.7881,-5.7881,-5.7881,-5.7881,-5.7881,-5.7881,-5.7881,-5.7881,-5.7881,-5.7881,-5.7881,-5.7881,-5.7881,-5.7881,-5.7881,-5.7881,-5.7881,-5.8152,-5.8389,-5.8389,-5.8693,-5.8896,-5.8896,-5.8896,-5.8896,-5.8896,-5.8896,-5.8761,-5.8457,-5.8389,-5.8254,-5.7915,-5.7881,-5.7881,-5.7881,-5.7881,-5.7881,-5.7881,-5.7881,-5.7881,-5.7881,-5.822,-5.8389,-5.8423,-5.9167,-5.9505,-5.9505,-5.9911,-6.0317,-3.3089,-3.5905,-3.8788,-3.8061,-3.7681,-3.728,-3.647,-3.3529,0.0,0.0,0.0,0.0,0.0,-3.2339,0.0,0.0,0.0,0.0,0.0,0.0,0.0,0.0,0.0,0.0,0.0,0.0,0.0,0.0,0.0,0.0,0.0,-6.2572,-6.2645,-6.2618,-6.2755,-6.2805,-6.2805,-6.2805,-6.2805,-6.2805,-6.2805,-6.2805,-6.2805,-6.2805,-6.2755,0.0,0.0,0.0,-6.0149,-5.9377,-5.8633,-5.7881,-5.7881,-5.7881,-5.7881,-5.7881,-5.7881,-5.7881,-5.7881,-5.7881,-5.7881,-5.7881,-5.7881,-5.7881,-5.7881,-5.7881,-5.7881,-5.7881,-5.7881,-5.7881,-5.7881,-5.7881,-5.7881,-5.7881,-5.7881,-5.7881,-5.7881,-5.7881,-5.7915,-5.8051,-5.8592,-5.9066,-5.9167,-5.9708,-6.0114,-6.0114,-6.0114,-6.0114,-6.0114,-6.0114,-5.9877,-5.9235,-5.9167,-5.893,-5.8287,-5.822,-5.822,-5.822,-5.8118,-5.8118,-5.822,-5.822,-5.822,-5.822,-5.8863,-5.9167,-5.9167,-5.9911,-6.0283,-6.0283,-6.0385,-6.0825,-3.4044,-3.5951,-3.6914,-3.4737,-3.5528,-3.6446,-3.4931,-3.3389,-3.2279,0.0,0.0,0.0,0.0,-3.6009,-3.7147,0.0,0.0,0.0,0.0,0.0,0.0,0.0,0.0,0.0,0.0,0.0,0.0,0.0,0.0,0.0,0.0,-6.1441,-6.1784,-6.177,-6.2427,-6.2805,-6.2805,-6.2805,-6.2805,-6.2805,-6.2805,-6.2805,-6.2805,-6.2805,-6.2464,0.0,0.0,-6.0725,-5.9311,-5.9178,-5.8633,-5.7881,-5.7881,-5.7881,-5.7881,-5.7881,-5.7881,-5.7881,-5.7881,-5.7881,-5.7881,-5.7881,-5.7881,-5.7881,-5.7881,-5.7881,-5.7881,-5.7881,-5.7881,-5.7881,-5.7881,-5.7881,-5.7881,-5.7881,-5.7881,-5.7881,-5.7881,-5.7881,-5.8084,-5.8727,-5.893,-5.9201,-5.981,-6.0047,-6.0114,-6.0114,-6.0114,-6.0114,-6.0114,-6.0114,-6.0047,-5.9945,-5.9945,-5.9877,-5.9776,-5.9742,-5.9742,-5.9742,-5.9201,-5.9133,-5.9742,-5.9742,-5.9742,-5.9742,-5.9877,-5.9945,-5.9945,-6.0723,-6.1129,-6.1129,-6.1738,-6.211,-3.1902,-3.3682,-3.5333,-3.4498,-3.6484,-3.8431,-3.7507,-3.5901,-3.4614,0.0,0.0,0.0,0.0,0.0,0.0,0.0,0.0,0.0,0.0,0.0,0.0,0.0,0.0,0.0,0.0,0.0,0.0,0.0,0.0,0.0,0.0,0.0,-6.0194,-5.9803,-6.0503,-6.0699,-6.0341,-6.0286,-6.1134,-6.2805,-6.2376,-6.2376,-6.2805,-6.2324,-6.1969,-6.1548,0.0,-5.9797,-5.9044,-5.8633,-5.8246,-5.7881,-5.7881,-5.7881,-5.7881,-5.7881,-5.7881,-5.7881,-5.7881,-5.7881,-5.7881,-5.7881,-5.7881,-5.7881,-5.7881,-5.7881,-5.7881,-5.7881,-5.7881,-5.7881,-5.7881,-5.7881,-5.7881,-5.7881,-5.7881,-5.7881,-5.7881,-5.7881,-5.8118,-5.8863,-5.9336,-5.9844,-6.0622,-6.1061,-6.1332,-6.1332,-6.1332,-6.1332,-6.1332,-6.1332,-6.1197,-6.0791,-6.0757,-6.0588,-6.0148,-6.0114,-6.0114,-6.0114,-5.9776,-5.9742,-6.008,-6.0114,-6.0114,-6.0114,-6.052,-6.0757,-6.0757,-6.1501,-6.1873,-6.1907,-6.2245,-6.2381,-3.1038,-3.2432,-3.4388,-3.5588,-3.7812,-3.9843,-4.0362,-3.8726,-3.7294,0.0,0.0,0.0,0.0,0.0,0.0,0.0,0.0,0.0,0.0,0.0,0.0,0.0,0.0,0.0,0.0,0.0,0.0,0.0,0.0,0.0,0.0,0.0,-5.8458,-5.7917,-5.8673,-5.8785,-5.8213,-5.7977,-5.9281,-6.1967,-6.1552,-6.1625,-6.2223,-6.1806,-6.14,-6.0961,-5.9669,-5.8976,-5.8737,-5.8137,-5.7881,-5.7881,-5.7881,-5.7881,-5.7881,-5.7881,-5.7881,-5.7881,-5.7881,-5.7881,-5.7881,-5.7881,-5.7881,-5.7881,-5.7881,-5.7881,-5.7881,-5.7881,-5.7881,-5.7881,-5.7881,-5.7881,-5.7881,-5.7881,-5.7881,-5.7881,-5.7881,-5.7881,-5.8152,-5.9099,-5.9708,-6.0419,-6.14,-6.2009,-6.2381,-6.2381,-6.2381,-6.2381,-6.2381,-6.2381,-6.2178,-6.1603,-6.1569,-6.1298,-6.0689,-6.0622,-6.0622,-6.0622,-6.0486,-6.0452,-6.0622,-6.0622,-6.0622,-6.0622,-6.1231,-6.1569,-6.1569,-6.211,-6.2381,-6.2381,-6.2381,-6.2381,-3.4389,-3.4412,-3.4568,-3.7661,-3.8058,-3.8493,-4.1442,-4.0818,0.0,-4.2506,0.0,0.0,0.0,0.0,0.0,0.0,0.0,0.0,0.0,0.0,0.0,0.0,0.0,0.0,0.0,0.0,0.0,0.0,0.0,0.0,0.0,0.0,0.0,-5.7016,-5.7857,-5.8213,-5.8213,-5.7429,-5.7857,-5.9545,-6.0215,-6.0576,-6.0612,-6.1279,-6.0725,-5.9311,-5.9178,-5.8703,-5.8027,-5.7954,-5.7881,-5.7881,-5.7881,-5.7881,-5.7881,-5.7881,-5.7881,-5.7881,-5.7881,-5.7881,-5.7881,-5.7881,-5.7881,-5.7881,-5.7881,-5.7881,-5.7881,-5.7881,-5.7881,-5.7881,-5.7881,-5.7881,-5.7881,-5.7881,-5.7881,-5.7881,-5.7881,-5.7881,-5.8321,-5.9742,-6.0047,-6.0554,-6.2042,-6.2347,-6.2381,-6.2381,-6.2381,-6.2381,-6.2381,-6.2381,-6.2381,-6.2313,-6.2313,-6.2279,-6.2245,-6.2212,-6.2212,-6.2212,-6.1603,-6.1535,-6.2212,-6.2212,-6.2212,-6.2212,-6.2279,-6.2313,-6.2313,-6.2347,-6.2381,-6.2381,-6.2381,-6.2381,-3.281,-3.3335,-3.4468,-3.7257,-3.8836,0.0,0.0,-4.4452,-4.5076,-4.7535,-4.7792,0.0,0.0,0.0,0.0,0.0,0.0,0.0,0.0,0.0,0.0,0.0,0.0,0.0,0.0,0.0,0.0,0.0,0.0,0.0,0.0,0.0,0.0,-5.4766,-5.5536,-5.5723,-5.5288,-5.4964,-5.5283,-5.6376,-5.7645,-5.8485,-5.9023,-5.8804,-5.8577,-5.8351,-5.7878,-5.7766,-5.7881,-5.7881,-5.7881,-5.7881,-5.7881,-5.7881,-5.7881,-5.7881,-5.7881,-5.7881,-5.7881,-5.7881,-5.7881,-5.7881,-5.7881,-5.7881,-5.7881,-5.7881,-5.7881,-5.7881,-5.7881,-5.7881,-5.7881,-5.7881,-5.7881,-5.7881,-5.7881,-5.7881,-5.7881,-5.7881,-5.8321,-5.981,-6.0114,-6.0588,-6.211,-6.2381,-6.2381,-6.2381,-6.2381,-6.2381,-6.2381,-6.2381,-6.2381,-6.2381,-6.2381,-6.2381,-6.2381,-6.2381,-6.2381,-6.2381,-6.2144,-6.211,-6.2381,-6.2381,-6.2381,-6.2381,-6.2381,-6.2381,-6.2381,-6.2381,-6.2381,-6.2381,-6.2381,-6.2381,-3.2449,-3.2963,-3.4394,-3.6853,0.0,0.0,-4.614,-4.7498,-4.882,-5.205,-5.1903,-5.1242,-5.1499,0.0,0.0,0.0,0.0,0.0,0.0,0.0,0.0,0.0,0.0,0.0,0.0,0.0,0.0,0.0,0.0,0.0,0.0,0.0,0.0,0.0,-5.4011,-5.3977,-5.3518,-5.3518,-5.3783,-5.4299,-5.5296,-5.6333,-5.7384,-5.7074,-5.704,-5.7225,-5.6709,-5.6731,-5.7205,-5.7205,-5.734,-5.7577,-5.7814,-5.7881,-5.7881,-5.7881,-5.7881,-5.7881,-5.7881,-5.7881,-5.7881,-5.7881,-5.7881,-5.7881,-5.7881,-5.7881,-5.7881,-5.7881,-5.7881,-5.7881,-5.7881,-5.7881,-5.7881,-5.7881,-5.7881,-5.7881,-5.7881,-5.7881,-5.8254,-5.9505,-5.9945,-6.052,-6.1806,-6.2245,-6.2381,-6.2381,-6.2381,-6.2381,-6.2381,-6.2381,-6.2381,-6.2381,-6.2381,-6.2381,-6.2381,-6.2381,-6.2381,-6.2381,-6.2381,-6.2381,-6.2381,-6.2381,-6.2381,-6.2381,-6.2381,-6.2381,-6.2381,-6.2381,-6.2381,-6.2381,-6.2381,-6.2381,-3.4247,-3.3807,-3.4394,-3.689,0.0,0.0,-4.8233,-4.9591,-5.0986,-5.5831,-5.4289,-5.227,-5.3115,0.0,0.0,0.0,0.0,0.0,0.0,0.0,0.0,0.0,0.0,0.0,0.0,0.0,0.0,0.0,0.0,0.0,0.0,0.0,0.0,0.0,-5.3518,-5.3518,-5.3518,-5.3518,-5.3518,-5.3518,-5.3518,-5.429,-5.5686,-5.6478,-5.6434,-5.5716,-5.5716,-5.5716,-5.5716,-5.5716,-5.6156,-5.6867,-5.7577,-5.7881,-5.7881,-5.7881,-5.7881,-5.7881,-5.7881,-5.7881,-5.7881,-5.7881,-5.7881,-5.7881,-5.7881,-5.7881,-5.7881,-5.7881,-5.7881,-5.7881,-5.7881,-5.7881,-5.7881,-5.7881,-5.7881,-5.7881,-5.7881,-5.7881,-5.8118,-5.8863,-5.9607,-6.0351,-6.1163,-6.1907,-6.2381,-6.2381,-6.2381,-6.2381,-6.2381,-6.2381,-6.2381,-6.2381,-6.2381,-6.2381,-6.2381,-6.2381,-6.2381,-6.2381,-6.2381,-6.2381,-6.2381,-6.2381,-6.2381,-6.2381,-6.2381,-6.2381,-6.2381,-6.2381,-6.2381,-6.2381,-6.2381,-6.2381,-3.2559,-3.3366,0.0,-3.8432,0.0,0.0,0.0,-5.2564,0.0,0.0,-5.7226,-5.5464,-5.5684,0.0,0.0,0.0,0.0,0.0,0.0,0.0,0.0,0.0,0.0,0.0,0.0,0.0,0.0,0.0,0.0,0.0,0.0,0.0,0.0,0.0,-5.3518,-5.3518,-5.3518,-5.3518,-5.3518,-5.3518,-5.3518,-5.372,-5.419,-5.4395,-5.4669,-5.4938,-5.4938,-5.5209,-5.5716,-5.5716,-5.5852,-5.6122,-5.6833,-5.7137,-5.7171,-5.7712,-5.7881,-5.7881,-5.7881,-5.7881,-5.7881,-5.7881,-5.7881,-5.7881,-5.7881,-5.7881,-5.7881,-5.7881,-5.7881,-5.7881,-5.7881,-5.7881,-5.7881,-5.7881,-5.7881,-5.7881,-5.7881,-5.7881,-5.8118,-5.8863,-5.9201,-5.9776,-6.1061,-6.1467,-6.1806,-6.2313,-6.2381,-6.2381,-6.2381,-6.2381,-6.2381,-6.2381,-6.2381,-6.2381,-6.2381,-6.2381,-6.2381,-6.2381,-6.2381,-6.2381,-6.2381,-6.2381,-6.2381,-6.2381,-6.2381,-6.2381,-6.2381,-6.2381,-6.2381,-6.2381,-6.2381,-6.2381,-3.3807,-3.5128,0.0,-4.0928,-4.4745,-4.893,-5.3959,0.0,0.0,0.0,0.0,-5.785,0.0,0.0,0.0,0.0,0.0,0.0,0.0,0.0,0.0,0.0,0.0,0.0,0.0,0.0,0.0,0.0,0.0,0.0,0.0,0.0,0.0,0.0,-5.3518,-5.3518,-5.3518,-5.3518,-5.3518,-5.3518,-5.3518,-5.3518,-5.3518,-5.3518,-5.3754,-5.416,-5.416,-5.4431,-5.4871,-5.5141,-5.5277,-5.5344,-5.6089,-5.6359,-5.6461,-5.7171,-5.7442,-5.7476,-5.778,-5.7881,-5.7881,-5.7881,-5.7881,-5.7881,-5.7881,-5.7881,-5.7881,-5.7881,-5.7881,-5.7881,-5.7881,-5.7881,-5.7881,-5.7881,-5.7881,-5.7881,-5.7881,-5.7881,-5.8017,-5.849,-5.8795,-5.9302,-6.025,-6.0892,-6.1467,-6.1907,-6.2212,-6.2381,-6.2381,-6.2381,-6.2381,-6.2381,-6.2381,-6.2381,-6.2381,-6.2381,-6.2381,-6.2381,-6.2381,-6.2381,-6.2381,-6.2381,-6.2381,-6.2381,-6.2381,-6.2381,-6.2381,-6.2381,-6.2381,-6.2381,-6.2381,-6.2381,-3.6523,0.0,0.0,-4.3901,-4.6985,0.0,-5.6602,-5.9208,-6.0309,-6.0382,0.0,0.0,0.0,0.0,0.0,0.0,0.0,0.0,0.0,0.0,0.0,0.0,0.0,0.0,0.0,0.0,0.0,0.0,0.0,0.0,0.0,0.0,0.0,-5.3281,-5.3281,-5.3281,-5.3281,-5.3382,-5.3382,0.0,-5.345,-5.3518,-5.3518,-5.3518,-5.3518,-5.3518,-5.3518,-5.3518,-5.3551,-5.4228,-5.4499,-5.4566,-5.531,-5.5615,-5.5716,-5.6427,-5.6697,-5.6799,-5.7543,-5.778,-5.7814,-5.7881,-5.7881,-5.7881,-5.7881,-5.7881,-5.7881,-5.7881,-5.7881,-5.7881,-5.7881,-5.7881,-5.7881,-5.7881,-5.7881,-5.7881,-5.7881,-5.7881,-5.7881,-5.7881,-5.8457,-5.893,-5.8998,-6.0182,-6.1129,-6.1298,-6.1907,-6.2381,-6.2381,-6.2381,-6.2381,-6.2381,-6.2381,-6.2381,-6.2381,-6.2381,-6.2381,-6.2381,-6.2381,-6.2381,-6.2381,-6.2381,-6.2381,-6.2381,-6.2381,-6.2381,-6.2381,-6.2381,-6.2381,-6.2381,-6.2381,-6.2381,-3.4284,-3.7074,0.0,0.0,-5.0325,-5.473,-5.7373,-5.8767,-5.9648,0.0,0.0,0.0,0.0,0.0,0.0,0.0,0.0,0.0,0.0,0.0,0.0,0.0,0.0,0.0,0.0,0.0,0.0,0.0,0.0,0.0,0.0,0.0,0.0,-5.1691,-5.1691,-5.1691,-5.1691,-5.2266,-5.257,0.0,-5.3213,-5.3518,-5.3518,-5.3518,-5.3518,-5.3518,-5.3518,-5.3518,-5.3518,-5.3687,-5.3754,-5.3822,-5.4532,-5.4837,-5.4938,-5.5683,-5.5953,-5.6055,-5.6799,-5.7036,-5.7137,-5.7712,-5.7881,-5.7881,-5.7881,-5.7881,-5.7881,-5.7881,-5.7881,-5.7881,-5.7881,-5.7881,-5.7881,-5.7881,-5.7881,-5.7881,-5.7881,-5.7881,-5.7881,-5.7881,-5.8017,-5.8321,-5.893,-5.9302,-5.9911,-6.1129,-6.1907,-6.2381,-6.2381,-6.2381,-6.2381,-6.2381,-6.2381,-6.2381,-6.2381,-6.2381,-6.2381,-6.2381,-6.2381,-6.2381,-6.2381,-6.2381,-6.2381,-6.2381,-6.2381,-6.2381,-6.2381,-6.2381,-6.2381,-6.2381,-6.2381,-6.2381,-3.4724,0.0,0.0,-4.9003,0.0,-5.6014,-5.7629,-5.8327,0.0,0.0,0.0,0.0,0.0,0.0,0.0,0.0,0.0,0.0,0.0,0.0,0.0,0.0,0.0,0.0,0.0,0.0,0.0,0.0,0.0,0.0,0.0,-5.1217,-5.1217,-5.1217,-5.1217,-5.1217,-5.1217,-5.1589,-5.1792,-5.1792,-5.2198,-5.2604,-5.2942,-5.3315,-5.3518,-5.3518,-5.3518,-5.3518,-5.3518,-5.3518,-5.3518,-5.3551,-5.3923,-5.4059,-5.416,-5.4905,-5.5175,-5.5277,-5.6021,-5.6292,-5.6393,-5.7137,-5.7374,-5.7442,-5.778,-5.7881,-5.7881,-5.7881,-5.7881,-5.7881,-5.7881,-5.7881,-5.7881,-5.7881,-5.7881,-5.7881,-5.7881,-5.7881,-5.7881,-5.7881,-5.7881,-5.8017,-5.8423,-5.8795,-5.9404,-6.0554,-6.1061,-6.1434,-6.1806,-6.1873,-6.2009,-6.2347,-6.2381,-6.2381,-6.2381,-6.2381,-6.2381,-6.2381,-6.2381,-6.2381,-6.2381,-6.2381,-6.2381,-6.2381,-6.2381,-6.2381,-6.2381,-6.2381,-6.2381,-6.2381,-6.2381,-6.2381,-3.5238,0.0,-4.4709,-5.2123,-5.4803,0.0,-5.7446,-5.7886,0.0,0.0,0.0,0.0,0.0,0.0,0.0,0.0,0.0,0.0,0.0,0.0,0.0,0.0,0.0,0.0,0.0,0.0,0.0,0.0,0.0,0.0,-5.0845,-5.0845,-5.0845,-5.0845,-5.0845,-5.0845,-5.0845,-5.0947,-5.1014,-5.1014,-5.115,-5.1522,-5.2131,-5.2807,-5.3247,-5.3518,-5.3518,-5.3518,-5.3518,-5.3518,-5.3518,-5.3518,-5.3518,-5.3518,-5.3585,-5.4194,-5.4397,-5.4499,-5.5243,-5.5513,-5.5649,-5.6393,-5.6697,-5.69,-5.7509,-5.778,-5.7881,-5.7881,-5.7881,-5.7881,-5.7881,-5.7881,-5.7881,-5.7881,-5.7881,-5.7881,-5.7881,-5.7881,-5.7881,-5.7881,-5.7881,-5.7881,-5.7881,-5.8524,-5.9235,-5.981,-6.0013,-6.0351,-6.1028,-6.1095,-6.1332,-6.1941,-6.211,-6.2212,-6.2212,-6.2313,-6.2381,-6.2381,-6.2381,-6.2381,-6.2381,-6.2381,-6.2381,-6.2381,-6.2381,-6.2381,-6.2381,-6.2381,-6.2381,-6.2381,-6.2381,-6.2381,0.0,0.0,-4.6544,0.0,-5.3959,-5.5831,0.0,0.0,0.0,0.0,0.0,0.0,0.0,0.0,0.0,0.0,0.0,0.0,0.0,0.0,0.0,0.0,0.0,0.0,0.0,0.0,0.0,0.0,0.0,0.0,-4.9289,-4.9289,-4.9289,-4.9289,-4.9289,-4.9289,-4.9289,-4.9932,-5.0236,-5.0236,-5.0913,-5.1251,-5.1352,-5.1488,-5.2266,-5.3518,-5.3518,-5.3518,-5.3518,-5.3518,-5.3518,-5.3518,-5.3518,-5.3518,-5.3518,-5.3619,-5.3653,-5.3754,-5.4499,-5.4735,-5.4871,-5.5615,-5.6292,-5.6833,-5.6934,-5.7374,-5.7881,-5.7881,-5.7881,-5.7881,-5.7881,-5.7881,-5.7881,-5.7881,-5.7881,-5.7881,-5.7881,-5.7881,-5.7881,-5.7881,-5.7881,-5.7881,-5.7881,-5.8524,-5.9032,-5.9133,-5.9708,-6.0148,-6.025,-6.025,-6.0283,-6.0385,-6.1028,-6.1467,-6.1467,-6.2009,-6.2381,-6.2381,-6.2381,-6.2381,-6.2381,-6.2381,-6.2381,-6.2381,-6.2381,-6.2381,-6.2381,-6.2381,-6.2381,-6.2381,-6.2381,-6.2381,-3.5055,-4.0524,-4.5847,0.0,-5.3482,-5.4583,0.0,0.0,0.0,0.0,0.0,0.0,0.0,0.0,0.0,0.0,0.0,0.0,0.0,0.0,0.0,0.0,0.0,0.0,0.0,0.0,0.0,0.0,0.0,-4.9018,-4.9018,-4.9018,-4.9018,-4.9018,-4.9018,-4.9018,-4.9018,-4.9323,-4.9492,-4.9492,-5.0236,-5.0574,-5.0608,-5.1014,-5.1826,-5.2841,-5.2841,-5.3078,-5.3518,-5.3518,-5.3518,-5.3518,-5.3518,-5.3518,-5.3518,-5.3518,-5.3518,-5.3551,-5.3856,-5.3991,-5.4093,-5.4837,-5.531,-5.5716,-5.6562,-5.7036,-5.7374,-5.778,-5.7881,-5.7881,-5.7881,-5.7881,-5.7881,-5.7881,-5.7881,-5.7881,-5.7881,-5.7881,-5.7881,-5.7881,-5.7881,-5.7881,-5.7881,-5.8152,-5.8389,-5.8389,-5.866,-5.9032,-5.9438,-5.9471,-5.9641,-6.0047,-6.0419,-6.0622,-6.0622,-6.1332,-6.1772,-6.1772,-6.2178,-6.2381,-6.2381,-6.2381,-6.2381,-6.2381,-6.2381,-6.2381,-6.2381,-6.2381,-6.2381,-6.2381,-6.2381,-6.2381,0.0,0.0,-4.2988,-4.8928,-5.1353,-5.2711,0.0,0.0,0.0,0.0,0.0,0.0,0.0,0.0,0.0,0.0,0.0,0.0,0.0,0.0,0.0,0.0,0.0,0.0,0.0,0.0,0.0,0.0,0.0,-4.9018,-4.9018,-4.9018,-4.9018,-4.9018,-4.9018,-4.9018,-4.9018,-4.9018,-4.9018,-4.9018,-4.956,-4.983,-4.983,-5.0405,-5.1048,-5.1758,-5.1961,-5.2469,-5.3213,-5.3213,-5.3315,-5.3518,-5.3518,-5.3518,-5.3518,-5.3518,-5.3518,-5.3518,-5.3518,-5.3518,-5.3585,-5.4126,-5.4431,-5.4837,-5.6122,-5.6664,-5.6934,-5.7679,-5.7881,-5.7881,-5.7881,-5.7881,-5.7881,-5.7881,-5.7881,-5.7881,-5.7881,-5.7881,-5.7881,-5.7881,-5.7881,-5.7881,-5.7881,-5.7881,-5.7881,-5.7881,-5.7881,-5.8084,-5.866,-5.8727,-5.893,-5.9471,-5.9708,-5.981,-5.981,-6.0723,-6.1298,-6.1298,-6.1975,-6.2381,-6.2381,-6.2381,-6.2381,-6.2381,-6.2212,-6.2212,-6.2381,-6.2381,-6.2381,-6.2381,-6.2381,-6.2381,0.0,-3.3972,0.0,-4.1742,0.0,0.0,0.0,0.0,0.0,0.0,0.0,0.0,0.0,0.0,0.0,0.0,0.0,0.0,0.0,0.0,0.0,0.0,0.0,0.0,0.0,0.0,0.0,0.0,0.0,-4.9018,-4.9018,-4.9018,-4.9018,-4.9018,-4.9018,-4.9018,-4.9018,-4.9018,-4.9018,-4.9018,-4.9052,-4.9052,-4.9052,-4.912,-4.9526,-5.0236,-5.0947,-5.1691,-5.2367,-5.2367,-5.2807,-5.3518,-5.3518,-5.3518,-5.3518,-5.3518,-5.3518,-5.3518,-5.3518,-5.3518,-5.3518,-5.3551,-5.4025,-5.4735,-5.5547,-5.6258,-5.6934,-5.7679,-5.7881,-5.7881,-5.7881,-5.7881,-5.7881,-5.7881,-5.7881,-5.7881,-5.7881,-5.7881,-5.7881,-5.7881,-5.7881,-5.7881,-5.7881,-5.7881,-5.7881,-5.7881,-5.7881,-5.7915,-5.7949,-5.7949,-5.7949,-5.8017,-5.866,-5.9066,-5.9066,-6.0452,-6.1298,-6.1298,-6.1975,-6.2381,-6.2381,-6.2381,-6.2381,-6.2381,-6.1704,-6.1704,-6.2381,-6.2381,-6.2381,-6.2381,-6.2381,-6.2381,0.0,0.0,0.0,-3.894,-4.2668,0.0,0.0,0.0,0.0,0.0,0.0,0.0,0.0,0.0,0.0,0.0,0.0,0.0,0.0,0.0,0.0,0.0,0.0,0.0,0.0,0.0,0.0,0.0,0.0,0.0,-4.8308,-4.8748,-4.9018,-4.9018,-4.9018,-4.9018,-4.9018,-4.9018,-4.9018,-4.9018,-4.9018,-4.9018,-4.9018,-4.9018,-4.9154,-4.939,-4.9661,-5.0473,-5.1623,-5.2097,-5.2469,-5.2773,-5.3315,-5.3518,-5.3518,-5.3518,-5.3518,-5.3518,-5.3518,-5.3518,-5.3518,-5.3518,-5.3687,-5.4025,-5.4769,-5.5513,-5.6258,-5.7002,-5.7509,-5.7881,-5.7881,-5.7881,-5.7881,-5.7881,-5.7881,-5.7881,-5.7881,-5.7881,-5.7881,-5.7881,-5.7881,-5.7881,-5.7881,-5.7881,-5.7712,-5.7273,-5.7577,-5.7712,-5.7239,-5.7611,-5.7881,-5.7881,-5.8118,-5.8287,-5.8287,-5.9235,-6.0047,-6.0486,-6.1264,-6.1907,-6.2381,-6.2381,-6.2381,-6.2381,-6.167,-6.1434,-6.167,-6.1163,-6.1197,-6.167,-6.167,-6.1941,-2.7779,0.0,0.0,0.0,0.0,0.0,0.0,0.0,0.0,0.0,0.0,0.0,0.0,0.0,0.0,0.0,0.0,0.0,0.0,0.0,0.0,0.0,0.0,0.0,0.0,0.0,0.0,0.0,0.0,0.0,-4.753,-4.8003,-4.8274,-4.8274,-4.8274,-4.8274,-4.8274,-4.8511,-4.8646,-4.8646,-4.8883,-4.9018,-4.9018,-4.9018,-4.9018,-4.9018,-4.9018,-4.9695,-5.0879,-5.1352,-5.1725,-5.2029,-5.2807,-5.3112,-5.3145,-5.3416,-5.3518,-5.3518,-5.3518,-5.3518,-5.3518,-5.3518,-5.3518,-5.3653,-5.4363,-5.4938,-5.5547,-5.6528,-5.7137,-5.7577,-5.7814,-5.7881,-5.7881,-5.7881,-5.7881,-5.7881,-5.7881,-5.7881,-5.7881,-5.7881,-5.7881,-5.7881,-5.7881,-5.7881,-5.7712,-5.7239,-5.7577,-5.7712,-5.7239,-5.7577,-5.7881,-5.7881,-5.7881,-5.7881,-5.7881,-5.8592,-5.9235,-5.9708,-6.0452,-6.1231,-6.2009,-6.1772,-6.1738,-6.2009,-6.1028,-6.052,-6.052,-6.025,-6.0385,-6.0892,-6.0892,-6.1298,0.0,0.0,0.0,0.0,0.0,0.0,0.0,0.0,0.0,0.0,0.0,0.0,0.0,0.0,0.0,0.0,0.0,0.0,0.0,0.0,0.0,0.0,0.0,0.0,0.0,0.0,0.0,0.0,0.0,-4.6752,-4.6752,-4.6786,-4.6786,-4.6786,-4.6844,-4.6844,-4.6786,-4.753,-4.7902,-4.7936,-4.8646,-4.8984,-4.9018,-4.9018,-4.9018,-4.9018,-4.9018,-4.939,-5.0067,-5.0067,-5.0507,-5.1251,-5.1995,-5.23,-5.2401,-5.3213,-5.3518,-5.3518,-5.3518,-5.3518,-5.3518,-5.3518,-5.3518,-5.3619,-5.4329,-5.4566,-5.4905,-5.6359,-5.6799,-5.6968,-5.7712,-5.7881,-5.7881,-5.7881,-5.7881,-5.7881,-5.7881,-5.7881,-5.7881,-5.7881,-5.7881,-5.7881,-5.7881,-5.7881,-5.7881,-5.7848,-5.7848,-5.7848,-5.7848,-5.7848,-5.7881,-5.7881,-5.7881,-5.7881,-5.7881,-5.8558,-5.8998,-5.9032,-5.9674,-6.0419,-6.1231,-6.052,-6.0452,-6.1264,-5.9776,-5.9032,-5.9032,-5.9708,-6.0047,-6.008,-6.008,-6.052,-2.5157,0.0,0.0,0.0,0.0,0.0,0.0,0.0,0.0,0.0,0.0,0.0,0.0,0.0,0.0,0.0,0.0,0.0,0.0,0.0,0.0,0.0,0.0,0.0,0.0,0.0,0.0,0.0,-4.5703,-4.6007,-4.6007,-4.6515,-4.6786,-4.6786,-4.7238,-4.7238,-4.6786,-4.7444,-4.782,-4.7936,-4.8139,-4.8477,-4.9018,-4.9018,-4.9018,-4.9018,-4.9018,-4.912,-4.9357,-4.9864,-5.0202,-5.0541,-5.1792,-5.23,-5.2401,-5.3213,-5.3518,-5.3518,-5.3518,-5.3518,-5.3518,-5.3518,-5.3518,-5.3551,-5.3754,-5.416,-5.4803,-5.575,-5.6393,-5.6968,-5.7712,-5.7881,-5.7881,-5.7881,-5.7881,-5.7881,-5.7881,-5.7881,-5.7881,-5.7881,-5.7881,-5.7881,-5.7881,-5.7881,-5.7712,-5.7171,-5.7103,-5.7103,-5.7103,-5.7103,-5.7306,-5.7814,-5.7881,-5.7881,-5.7881,-5.8084,-5.8423,-5.8998,-5.9201,-5.9641,-6.0419,-6.0216,-6.0216,-6.0419,-5.9505,-5.9032,-5.9032,-5.866,-5.8761,-5.9336,-5.9844,-6.052,-2.6409,-2.6504,-2.7081,0.0,0.0,0.0,0.0,-3.4403,0.0,0.0,0.0,0.0,0.0,0.0,0.0,0.0,0.0,0.0,0.0,0.0,0.0,0.0,0.0,0.0,0.0,0.0,0.0,-4.4621,-4.4993,-4.5229,-4.5229,-4.5635,-4.5872,-4.5872,-4.6203,-4.6259,-4.5872,-4.651,-4.6885,-4.6989,-4.7293,-4.7834,-4.8545,-4.8545,-4.8714,-4.9018,-4.9316,-4.9256,-4.9052,-4.9794,-4.9903,-4.9763,-5.0913,-5.1589,-5.1961,-5.2706,-5.3213,-5.3518,-5.3518,-5.3518,-5.3518,-5.3518,-5.3518,-5.3518,-5.3518,-5.3788,-5.4296,-5.504,-5.5987,-5.69,-5.734,-5.7645,-5.7881,-5.7881,-5.7881,-5.7881,-5.7881,-5.7881,-5.7881,-5.7881,-5.7881,-5.7881,-5.7881,-5.7881,-5.7746,-5.7306,-5.7273,-5.7273,-5.7273,-5.7273,-5.7408,-5.7848,-5.7881,-5.7881,-5.7881,-5.7881,-5.8084,-5.8524,-5.8558,-5.8863,-5.9607,-5.9336,-5.9336,-5.9641,-5.893,-5.8558,-5.8558,-5.8084,-5.8118,-5.8558,-5.8964,-5.9607,-2.8484,-2.8164,-2.8521,-2.9571,-2.7752,0.0,-3.3422,-3.4324,0.0,0.0,0.0,0.0,0.0,0.0,0.0,0.0,0.0,0.0,0.0,0.0,0.0,0.0,0.0,0.0,0.0,-4.4384,-4.4451,-4.4451,-4.4519,-4.4587,-4.4587,-4.4587,-4.4587,-4.4587,-4.4699,-4.4665,-4.4587,-4.5286,-4.5659,-4.5703,-4.6346,-4.7056,-4.78,-4.7868,-4.8274,-4.8944,-4.9571,-4.958,-4.9046,-4.9664,-4.9521,-4.9086,-4.9796,-5.0507,-5.1183,-5.1995,-5.2739,-5.3382,-5.3484,-5.3518,-5.3518,-5.3518,-5.3518,-5.3518,-5.3518,-5.3518,-5.3653,-5.4397,-5.5615,-5.6697,-5.6697,-5.7239,-5.778,-5.778,-5.7814,-5.7881,-5.7881,-5.7881,-5.7881,-5.7881,-5.7881,-5.7881,-5.7881,-5.7881,-5.7881,-5.7881,-5.7814,-5.7814,-5.7881,-5.7814,-5.7814,-5.7881,-5.7881,-5.7881,-5.7881,-5.7881,-5.7881,-5.7881,-5.7881,-5.8186,-5.8863,-5.8254,-5.822,-5.8863,-5.822,-5.7881,-5.7881,-5.7881,-5.7881,-5.7881,-5.7881,-5.8287,-2.9989,-2.9737,-2.9556,-2.8663,0.0,0.0,-2.7124,-2.8011,0.0,0.0,0.0,0.0,0.0,0.0,0.0,0.0,0.0,0.0,0.0,0.0,0.0,0.0,0.0,0.0,0.0,-4.3301,-4.3639,-4.3639,-4.4215,-4.4587,-4.4587,-4.4587,-4.4587,-4.4587,-4.5089,-4.5089,-4.4587,-4.5226,-4.5583,-4.5703,-4.5838,-4.6312,-4.7022,-4.7631,-4.8003,-4.8173,-4.8897,-4.9107,-4.9018,-4.9168,-4.9107,-4.9086,-4.9796,-5.0168,-5.0473,-5.1792,-5.2401,-5.2638,-5.3281,-5.3518,-5.3518,-5.3518,-5.3518,-5.3518,-5.3518,-5.3518,-5.3653,-5.4397,-5.5243,-5.5919,-5.5919,-5.6461,-5.7002,-5.7002,-5.7476,-5.7881,-5.7881,-5.7881,-5.7881,-5.7881,-5.7881,-5.7881,-5.7881,-5.7881,-5.7881,-5.7881,-5.7374,-5.7239,-5.7814,-5.7374,-5.7239,-5.7814,-5.7881,-5.7881,-5.7881,-5.7881,-5.7881,-5.7881,-5.7881,-5.7949,-5.8084,-5.7983,-5.7949,-5.8084,-5.7949,-5.7881,-5.7881,-5.7881,-5.7881,-5.7881,-5.7881,-5.8287,-3.1591,-3.093,-3.0663,-3.012,0.0,0.0,0.0,0.0,0.0,0.0,0.0,0.0,0.0,0.0,0.0,0.0,0.0,0.0,0.0,0.0,0.0,0.0,0.0,0.0,0.0,-4.2625,-4.2861,-4.2861,-4.3234,-4.3606,-4.3978,-4.4012,-4.4181,-4.4553,-4.4906,-4.4906,-4.4587,-4.4906,-4.5077,-4.5162,-4.5486,-4.5806,-4.6244,-4.6988,-4.751,-4.7936,-4.8626,-4.8976,-4.8984,-4.9376,-4.9316,-4.9052,-4.939,-4.9763,-5.0168,-5.0913,-5.1657,-5.2367,-5.2773,-5.3179,-5.3518,-5.3518,-5.3518,-5.3518,-5.3518,-5.3518,-5.3585,-5.3957,-5.4566,-5.5141,-5.5141,-5.5716,-5.6359,-5.6697,-5.707,-5.7442,-5.7814,-5.7881,-5.7881,-5.7881,-5.7881,-5.7881,-5.7881,-5.7881,-5.7881,-5.7881,-5.7577,-5.7476,-5.7848,-5.7577,-5.7476,-5.7848,-5.7881,-5.7881,-5.7881,-5.7881,-5.7881,-5.7881,-5.7881,-5.7881,-5.7881,-5.7881,-5.7881,-5.7881,-5.7881,-5.7881,-5.7881,-5.7881,-5.7881,-5.7881,-5.7881,-5.8084,0.0,0.0,0.0,0.0,0.0,-2.8795,0.0,0.0,0.0,0.0,0.0,0.0,0.0,0.0,0.0,0.0,0.0,0.0,0.0,0.0,0.0,0.0,0.0,0.0,0.0,-4.1542,-4.1677,-4.2252,-4.1914,-4.2117,-4.3132,-4.32,-4.3572,-4.4316,-4.435,-4.4418,-4.4587,-4.4587,-4.4587,-4.4643,-4.5089,-4.5451,-4.5694,-4.6172,-4.6872,-4.7699,-4.8426,-4.8734,-4.8843,-4.9512,-4.9462,-4.9018,-4.9018,-4.9357,-4.9898,-5.0033,-5.0845,-5.1928,-5.2198,-5.2739,-5.3281,-5.345,-5.3518,-5.3518,-5.3518,-5.3518,-5.3518,-5.3518,-5.3923,-5.4397,-5.4397,-5.4938,-5.5649,-5.6224,-5.6494,-5.6799,-5.7509,-5.7679,-5.7712,-5.7848,-5.7881,-5.7881,-5.7881,-5.7881,-5.7881,-5.7881,-5.7881,-5.7881,-5.7881,-5.7881,-5.7881,-5.7881,-5.7881,-5.7881,-5.7881,-5.7881,-5.7881,-5.7881,-5.7881,-5.7881,-5.7881,-5.7881,-5.7881,-5.7881,-5.7881,-5.7881,-5.7881,-5.7881,-5.7881,-5.7881,-5.7881,-5.7881,0.0,0.0,0.0,0.0,-3.3214,0.0,0.0,0.0,0.0,0.0,0.0,0.0,0.0,0.0,0.0,0.0,0.0,0.0,0.0,0.0,0.0,0.0,0.0,0.0,0.0,0.0,-3.9478,-4.2083,-4.046,-4.0257,-4.232,-4.2422,-4.276,-4.3538,-4.3538,-4.3876,-4.4587,-4.4587,-4.4587,-4.4587,-4.4665,-4.4995,-4.5511,-4.5725,-4.6157,-4.6823,-4.7646,-4.7996,-4.8105,-4.8775,-4.9046,-4.9018,-4.9018,-4.9052,-4.9187,-4.9864,-5.0202,-5.0541,-5.186,-5.2367,-5.257,-5.3281,-5.3518,-5.3518,-5.3518,-5.3518,-5.3518,-5.3518,-5.3551,-5.3619,-5.3619,-5.416,-5.4735,-5.4837,-5.5344,-5.6055,-5.6765,-5.6934,-5.7103,-5.7746,-5.7881,-5.7881,-5.7881,-5.7881,-5.7881,-5.7881,-5.7881,-5.7881,-5.7881,-5.7881,-5.7881,-5.7881,-5.7881,-5.7881,-5.7881,-5.7881,-5.7881,-5.7881,-5.7881,-5.7881,-5.7881,-5.7881,-5.7881,-5.7881,-5.7881,-5.7881,-5.7881,-5.7881,-5.7881,-5.7881,-5.7881,-5.7881,0.0,0.0,0.0,0.0,0.0,0.0,-2.8996,0.0,-2.7503,0.0,0.0,0.0,0.0,0.0,0.0,0.0,0.0,0.0,0.0,0.0,0.0,0.0,0.0,0.0,0.0,0.0,0.0,0.0,0.0,-3.8193,-4.0899,-4.1001,-4.1542,-4.2726,-4.32,-4.3572,-4.391,-4.435,-4.4587,-4.4587,-4.4961,-4.5089,-4.5015,-4.5432,-4.5754,-4.6122,-4.6462,-4.7124,-4.7936,-4.824,-4.8612,-4.9018,-4.9018,-4.9018,-4.9052,-4.9357,-4.9729,-5.0168,-5.0811,-5.1589,-5.2435,-5.3247,-5.3518,-5.3518,-5.3518,-5.3518,-5.3518,-5.3518,-5.3518,-5.3518,-5.3518,-5.3721,-5.4059,-5.4499,-5.4837,-5.5378,-5.6562,-5.6799,-5.7036,-5.7746,-5.7881,-5.7881,-5.7881,-5.7881,-5.7881,-5.7881,-5.7881,-5.7881,-5.7881,-5.7881,-5.7881,-5.7881,-5.7881,-5.7881,-5.7881,-5.7881,-5.7881,-5.7881,-5.7881,-5.7881,-5.7881,-5.7881,-5.7881,-5.7881,-5.7881,-5.7881,-5.7881,-5.7881,-5.7881,-5.7881,-5.7881,-5.7881,-3.9191,0.0,0.0,0.0,0.0,0.0,0.0,0.0,0.0,0.0,0.0,0.0,0.0,0.0,0.0,0.0,0.0,0.0,0.0,0.0,0.0,0.0,0.0,0.0,0.0,0.0,0.0,0.0,0.0,0.0,-3.9648,-3.9783,-4.046,-4.1948,-4.2523,-4.2997,-4.3403,-4.3978,-4.435,-4.4643,-4.5035,-4.5089,-4.4852,-4.5142,-4.5397,-4.5648,-4.5659,-4.6312,-4.7361,-4.7733,-4.824,-4.8714,-4.8917,-4.9018,-4.9018,-4.9018,-4.9323,-4.983,-5.0033,-5.1048,-5.2401,-5.2976,-5.3315,-5.3518,-5.3518,-5.3518,-5.3518,-5.3518,-5.3518,-5.3518,-5.3518,-5.3518,-5.3619,-5.416,-5.4296,-5.4634,-5.5919,-5.6359,-5.6731,-5.7442,-5.7746,-5.7881,-5.7881,-5.7881,-5.7881,-5.7881,-5.7881,-5.7881,-5.7881,-5.7881,-5.7881,-5.7881,-5.7881,-5.7881,-5.7881,-5.7881,-5.7881,-5.7881,-5.7881,-5.7881,-5.7881,-5.7881,-5.7881,-5.7881,-5.7881,-5.7881,-5.7881,-5.7881,-5.7881,-5.7881,-5.7881,-5.7881,0.0,0.0,0.0,-3.57,0.0,0.0,0.0,0.0,-2.977,0.0,0.0,0.0,0.0,0.0,-2.9465,-2.7975,0.0,0.0,0.0,0.0,0.0,0.0,0.0,0.0,0.0,0.0,0.0,0.0,-3.4066,0.0,-3.8802,-3.9039,-3.9715,-4.1204,-4.1271,-4.1982,-4.3403,-4.3436,-4.3842,-4.4587,-4.4643,-4.4906,-4.5477,-4.4906,-4.4961,-4.5546,-4.5614,-4.5737,-4.5872,-4.7327,-4.7936,-4.8037,-4.8714,-4.9018,-4.9018,-4.9018,-4.9018,-4.9154,-4.983,-5.1048,-5.23,-5.2334,-5.2875,-5.3518,-5.3518,-5.3518,-5.3518,-5.3518,-5.3518,-5.3518,-5.3518,-5.3518,-5.3518,-5.3551,-5.3551,-5.3754,-5.4499,-5.5243,-5.5953,-5.6697,-5.7408,-5.7881,-5.7881,-5.7881,-5.7881,-5.7881,-5.7881,-5.7881,-5.7881,-5.7881,-5.7881,-5.7881,-5.7881,-5.7881,-5.7881,-5.7881,-5.7881,-5.7881,-5.7881,-5.7881,-5.7881,-5.7881,-5.7881,-5.7881,-5.7881,-5.7881,-5.7881,-5.7881,-5.7881,-5.7881,-5.7881,-5.7881,0.0,0.0,-4.2159,-3.7637,0.0,0.0,0.0,0.0,0.0,0.0,0.0,0.0,0.0,0.0,-2.96,-2.8043,-2.7772,0.0,0.0,0.0,0.0,0.0,0.0,0.0,0.0,0.0,0.0,-3.4404,-3.3152,-3.4032,0.0,-3.8261,-3.8937,-4.0426,-4.0933,-4.1441,-4.1948,-4.2929,-4.3538,-4.3809,-4.435,-4.472,-4.4906,-4.4665,-4.472,-4.494,-4.4936,-4.5229,-4.5737,-4.6244,-4.7022,-4.7936,-4.8173,-4.8578,-4.9018,-4.9018,-4.9018,-4.912,-4.983,-5.0405,-5.098,-5.1995,-5.2469,-5.2807,-5.3348,-5.3518,-5.3518,-5.3518,-5.3518,-5.3518,-5.3518,-5.3518,-5.3518,-5.3518,-5.3518,-5.3687,-5.4431,-5.4803,-5.5344,-5.6562,-5.7002,-5.734,-5.7814,-5.7881,-5.7881,-5.7881,-5.7881,-5.7881,-5.7881,-5.7881,-5.7881,-5.7881,-5.7881,-5.7881,-5.7881,-5.7881,-5.7881,-5.7881,-5.7881,-5.7881,-5.7881,-5.7881,-5.7881,-5.7881,-5.7881,-5.7881,-5.7881,-5.7881,-5.7881,-5.7881,-5.7881,-5.7881,-4.2996,-4.3469,0.0,-3.9494,-3.7824,0.0,-3.2424,0.0,0.0,0.0,0.0,0.0,0.0,0.0,0.0,-2.9262,-2.8112,-2.6387,0.0,0.0,0.0,0.0,0.0,0.0,0.0,0.0,-3.0784,-3.2848,-3.1833,-3.2848,0.0,0.0,-3.8464,-3.9648,-4.0426,-4.0933,-4.1204,-4.2422,-4.3166,-4.3436,-4.4215,-4.4587,-4.4587,-4.4587,-4.4587,-4.4587,-4.4587,-4.4857,-4.5331,-4.5602,-4.6413,-4.753,-4.78,-4.8376,-4.9018,-4.9018,-4.9018,-4.9086,-4.9526,-4.9864,-5.0236,-5.1217,-5.186,-5.2401,-5.2909,-5.3281,-5.3518,-5.3518,-5.3518,-5.3518,-5.3518,-5.3518,-5.3518,-5.3518,-5.3518,-5.3619,-5.4093,-5.4397,-5.4871,-5.5818,-5.6427,-5.6934,-5.7408,-5.7712,-5.7881,-5.7881,-5.7881,-5.7881,-5.7881,-5.7881,-5.7881,-5.7881,-5.7881,-5.7881,-5.7881,-5.7881,-5.7881,-5.7881,-5.7881,-5.7881,-5.7881,-5.7881,-5.7881,-5.7881,-5.7881,-5.7881,-5.7881,-5.7881,-5.7881,-5.7881,-5.7881,-5.7881]}]]